[[{"header":{"parameterUnit":"m.s-1","parameterCategory":1,"la1":31.0,"la2":29.5877,"lo1":-88.7671,"lo2":-86.6584,"dy":0.0162,"dx":0.0185,"nx":115,"ny":88,"refTime":"2023-04-17T06:00:00:Z","depth":0,"parameterNumber":2,"parameterNumberName":"U-component_of_WINDS"},"data":[0.0,0.0,0.0,0.0,0.0,0.0,0.0,0.0,0.0,0.0,0.0,0.0,0.0,0.0,0.0,0.0,0.0,0.0,0.0,0.0,0.0,0.0,0.0,0.0,0.0,0.0,0.0,0.0,0.0,0.0,0.0,0.0,0.0,0.0,0.0,0.0,0.0,0.0,0.0,0.0,0.0,0.0,0.0,0.0,0.0,0.0,0.0,0.0,0.0,0.0,0.0,0.0,0.0,0.0,0.0,0.0,0.0,0.0,0.0,0.0,0.0,0.0,0.0,0.0,0.0,0.0,0.0,0.0,0.0,0.0,0.0,0.0,0.0,0.0,0.0,0.0,0.0,0.0,0.0,0.0,0.0,0.0,0.0,0.0,0.0,0.0,0.0,0.0,0.0,0.0,0.0,0.0,0.0,0.0,0.0,0.0,0.0,0.0,0.0,0.0,0.0,0.0,0.0,0.0,0.0,0.0,0.0,0.0,0.0,0.0,0.0,0.0,0.0,0.0,0.0,0.0,0.0,0.0,0.0,0.0,0.0,0.0,0.0,0.0,0.0,0.0,0.0,0.0,0.0,0.0,0.0,0.0,0.0,0.0,0.0,0.0,0.0,0.0,0.0,0.0,0.0,0.0,0.0,0.0,0.0,0.0,0.0,0.0,0.0,0.0,0.0,0.0,0.0,0.0,0.0,0.0,0.0,0.0,0.0,0.0,0.0,0.0,0.0,0.0,0.0,0.0,0.0,0.0,0.0,0.0,0.0,0.0,0.0,0.0,0.0,0.0,0.0,0.0,0.0,0.0,0.0,0.0,0.0,0.0,0.0,0.0,0.0,0.0,0.0,0.0,0.0,0.0,0.0,0.0,0.0,0.0,0.0,0.0,0.0,0.0,0.0,0.0,0.0,0.0,0.0,0.0,0.0,0.0,0.0,0.0,0.0,0.0,0.0,0.0,0.0,0.0,0.0,0.0,0.0,0.0,0.0,0.0,0.0,0.0,0.0,0.0,0.0,0.0,0.0,0.0,0.0,0.0,0.0,0.0,0.0,0.0,0.0,0.0,0.0,0.0,0.0,0.0,0.0,0.0,0.0,0.0,0.0,0.0,0.0,0.0,0.0,0.0,0.0,0.0,0.0,0.0,0.0,0.0,0.0,0.0,0.0,0.0,0.0,0.0,0.0,0.0,0.0,0.0,0.0,0.0,0.0,0.0,0.0,0.0,0.0,0.0,0.0,0.0,0.0,0.0,0.0,0.0,0.0,0.0,0.0,0.0,0.0,0.0,0.0,0.0,0.0,0.0,0.0,0.0,0.0,0.0,0.0,0.0,0.0,0.0,0.0,0.0,0.0,0.0,0.0,0.0,0.0,0.0,0.0,0.0,0.0,0.0,0.0,0.0,0.0,0.0,0.0,0.0,0.0,0.0,0.0,0.0,0.0,0.0,0.0,0.0,0.0,0.0,0.0,0.0,0.0,0.0,0.0,0.0,0.0,0.0,0.0,0.0,0.0,0.0,0.0,0.0,0.0,0.0,0.0,0.0,0.0,0.0,0.0,0.0,0.0,0.0,0.0,0.0,0.0,0.0,0.0,0.0,0.0,0.0,0.0,0.0,0.0,0.0,0.0,0.0,0.0,0.0,0.0,0.0,0.0,0.0,0.0,0.0,0.0,0.0,0.0,0.0,0.0,0.0,0.0,0.0,0.0,0.0,0.0,0.0,0.0,0.0,0.0,0.0,0.0,0.0,0.0,0.0,0.0,0.0,0.0,0.0,0.0,0.0,0.0,0.0,0.0,0.0,0.0,0.0,0.0,0.0,0.0,0.0,0.0,0.0,0.0,0.0,0.0,0.0,0.0,0.0,0.0,0.0,0.0,0.0,0.0,0.0,0.0,0.0,0.0,0.0,0.0,0.0,0.0,0.0,0.0,0.0,0.0,0.0,0.0,0.0,0.0,0.0,0.0,0.0,0.0,0.0,0.0,0.0,0.0,0.0,0.0,0.0,0.0,0.0,0.0,0.0,0.0,0.0,0.0,0.0,0.0,0.0,0.0,0.0,0.0,0.0,0.0,0.0,0.0,0.0,0.0,0.0,0.0,0.0,0.0,0.0,0.0,0.0,0.0,0.0,0.0,0.0,0.0,0.0,0.0,0.0,0.0,0.0,0.0,0.0,0.0,0.0,0.0,0.0,0.0,0.0,0.0,0.0,0.0,0.0,0.0,0.0,0.0,0.0,0.0,0.0,0.0,0.0,0.0,0.0,0.0,0.0,0.0,0.0,0.0,0.0,0.0,0.0,0.0,0.0,0.0,0.0,0.0,0.0,0.0,0.0,0.0,0.0,0.0,0.0,0.0,0.0,0.0,0.0,0.0,0.0,0.0,0.0,0.0,0.0,0.0,0.0,0.0,0.0,0.0,0.0,0.0,0.0,0.0,0.0,0.0,0.0,0.0,0.0,0.0,0.0,0.0,0.0,0.0,0.0,0.0,0.0,0.0,0.0,0.0,0.0,0.0,0.0,0.0,0.0,0.0,0.0,0.0,0.0,0.0,0.0,0.0,0.0,0.0,0.0,0.0,0.0,0.0,0.0,0.0,0.0,0.0,0.0,0.0,0.0,0.0,0.0,0.0,0.0,0.0,0.0,0.0,0.0,0.0,0.0,0.0,0.0,0.0,0.0,0.0,0.0,0.0,0.0,0.0,0.0,0.0,0.0,0.0,0.0,0.0,0.0,0.0,0.0,0.0,0.0,0.0,0.0,0.0,0.0,0.0,0.0,0.0,0.0,0.0,0.0,0.0,0.0,0.0,0.0,0.0,0.0,0.0,0.0,0.0,0.0,0.0,0.0,0.0,0.0,0.0,0.0,0.0,0.0,0.0,0.0,0.0,0.0,0.0,0.0,0.0,0.0,0.0,0.0,0.0,0.0,0.0,0.0,0.0,0.0,0.0,0.0,0.0,0.0,0.0,0.0,0.0,0.0,0.0,0.0,0.0,0.0,0.0,0.0,0.0,0.0,0.0,0.0,0.0,0.0,0.0,0.0,0.0,0.0,0.0,0.0,0.0,0.0,0.0,0.0,0.0,0.0,0.0,0.0,0.0,0.0,0.0,0.0,0.0,0.0,0.0,0.0,0.0,0.0,0.0,0.0,0.0,0.0,0.0,0.0,0.0,0.0,0.0,0.0,0.0,0.0,0.0,0.0,0.0,0.0,0.0,0.0,0.0,0.0,0.0,0.0,0.0,0.0,0.0,0.0,0.0,0.0,0.0,0.0,0.0,0.0,0.0,0.0,0.0,0.0,0.0,0.0,0.0,0.0,0.0,0.0,0.0,0.0,0.0,0.0,0.0,0.0,0.0,0.0,0.0,0.0,0.0,0.0,0.0,0.0,0.0,0.0,0.0,0.0,0.0,0.0,0.0,0.0,0.0,0.0,0.0,0.0,0.0,0.0,0.0,0.0,0.0,0.0,0.0,0.0,0.0,0.0,0.0,0.0,0.0,0.0,0.0,0.0,0.0,0.0,0.0,0.0,0.0,0.0,0.0,0.0,0.0,0.0,0.0,0.0,0.0,0.0,0.0,0.0,0.0,0.0,0.0,0.0,0.0,0.0,0.0,0.0,0.0,0.0,0.0,0.0,0.0,0.0,0.0,0.0,0.0,0.0,0.0,0.0,0.0,0.0,0.0,0.0,0.0,0.0,0.0,0.0,0.0,0.0,0.0,0.0,0.0,0.0,0.0,0.0,0.0,0.0,0.0,0.0,0.0,0.0,0.0,0.0,0.0,0.0,0.0,0.0,0.0,0.0,0.0,0.0,0.0,0.0,0.0,0.0,0.0,0.0,0.0,0.0,0.0,0.0,0.0,0.0,0.0,0.0,0.0,0.0,0.0,0.0,0.0,0.0,0.0,0.0,0.0,0.0,0.0,0.0,0.0,0.0,0.0,0.0,0.0,0.0,0.0,0.0,0.0,0.0,0.0,0.0,0.0,0.0,0.0,0.0,0.0,0.0,0.0,0.0,0.0,0.0,0.0,0.0,0.0,0.0,0.0,0.0,0.0,0.0,0.0,0.0,0.0,0.0,0.0,0.0,0.0,0.0,0.0,0.0,0.0,0.0,0.0,0.0,0.0,0.0,0.0,0.0,0.0,0.0,0.0,0.0,0.0,0.0,0.0,0.0,0.0,0.0,0.0,0.0,0.0,0.0,0.0,0.0,0.0,0.0,0.0,0.0,0.0,0.0,0.0,0.0,0.0,0.0,0.0,0.0,0.0,0.0,0.0,0.0,0.0,0.0,-3.1515,0.0,0.0,0.0,0.0,0.0,0.0,0.0,0.0,0.0,0.0,0.0,0.0,0.0,0.0,0.0,0.0,0.0,0.0,0.0,0.0,0.0,0.0,0.0,0.0,0.0,0.0,0.0,0.0,0.0,0.0,0.0,0.0,0.0,0.0,0.0,0.0,0.0,0.0,0.0,0.0,0.0,0.0,0.0,0.0,0.0,0.0,0.0,0.0,0.0,0.0,0.0,0.0,0.0,0.0,0.0,0.0,0.0,0.0,0.0,0.0,0.0,0.0,0.0,0.0,0.0,0.0,0.0,0.0,0.0,0.0,0.0,0.0,0.0,0.0,0.0,0.0,0.0,0.0,0.0,0.0,0.0,0.0,0.0,0.0,0.0,0.0,0.0,0.0,0.0,0.0,0.0,0.0,0.0,0.0,0.0,0.0,0.0,0.0,0.0,0.0,0.0,0.0,0.0,0.0,0.0,0.0,0.0,0.0,0.0,0.0,-3.4884,-3.4537,-3.3271,-3.2449,-3.2088,0.0,0.0,0.0,0.0,0.0,0.0,0.0,0.0,0.0,0.0,0.0,0.0,0.0,0.0,0.0,0.0,0.0,0.0,0.0,0.0,0.0,0.0,0.0,0.0,0.0,0.0,0.0,0.0,0.0,0.0,0.0,0.0,0.0,0.0,0.0,0.0,0.0,0.0,0.0,0.0,0.0,0.0,0.0,0.0,0.0,0.0,0.0,0.0,0.0,0.0,0.0,0.0,0.0,0.0,0.0,0.0,0.0,0.0,0.0,0.0,0.0,0.0,0.0,0.0,0.0,0.0,0.0,0.0,0.0,0.0,0.0,0.0,0.0,0.0,0.0,0.0,0.0,0.0,0.0,0.0,0.0,0.0,0.0,0.0,0.0,0.0,0.0,0.0,0.0,0.0,0.0,0.0,0.0,0.0,0.0,0.0,0.0,0.0,0.0,0.0,0.0,0.0,0.0,0.0,0.0,0.0,0.0,0.0,0.0,0.0,0.0,0.0,-3.3621,-3.2858,-3.2842,0.0,0.0,0.0,0.0,0.0,0.0,0.0,0.0,0.0,0.0,0.0,0.0,0.0,0.0,0.0,0.0,0.0,0.0,0.0,0.0,0.0,0.0,0.0,0.0,0.0,0.0,0.0,0.0,0.0,0.0,0.0,0.0,0.0,0.0,0.0,0.0,0.0,0.0,0.0,0.0,0.0,0.0,0.0,0.0,0.0,0.0,0.0,0.0,0.0,0.0,0.0,0.0,0.0,0.0,0.0,0.0,0.0,0.0,0.0,0.0,0.0,0.0,0.0,0.0,0.0,0.0,0.0,0.0,0.0,0.0,0.0,0.0,0.0,0.0,0.0,0.0,0.0,0.0,0.0,0.0,0.0,0.0,0.0,0.0,0.0,0.0,0.0,0.0,0.0,0.0,0.0,0.0,0.0,0.0,0.0,0.0,0.0,0.0,0.0,0.0,0.0,0.0,0.0,0.0,0.0,0.0,0.0,0.0,0.0,0.0,-3.484,-3.4917,-3.4045,0.0,-3.3646,0.0,0.0,0.0,0.0,0.0,0.0,0.0,0.0,0.0,0.0,0.0,0.0,0.0,0.0,0.0,0.0,0.0,0.0,0.0,0.0,0.0,0.0,0.0,0.0,0.0,0.0,0.0,0.0,0.0,0.0,0.0,0.0,0.0,0.0,0.0,0.0,0.0,0.0,0.0,0.0,0.0,0.0,0.0,0.0,0.0,0.0,0.0,0.0,0.0,0.0,0.0,0.0,0.0,0.0,0.0,0.0,0.0,0.0,0.0,0.0,0.0,0.0,0.0,0.0,0.0,0.0,0.0,0.0,0.0,0.0,0.0,0.0,0.0,0.0,0.0,0.0,0.0,0.0,0.0,0.0,0.0,0.0,0.0,0.0,0.0,0.0,0.0,0.0,0.0,0.0,0.0,0.0,0.0,0.0,0.0,0.0,0.0,0.0,0.0,0.0,0.0,0.0,0.0,0.0,0.0,0.0,0.0,0.0,0.0,0.0,-3.4749,-3.4771,-3.4055,-3.3431,0.0,0.0,0.0,0.0,0.0,0.0,0.0,0.0,0.0,0.0,0.0,0.0,0.0,0.0,0.0,0.0,0.0,0.0,0.0,0.0,0.0,0.0,0.0,0.0,0.0,0.0,0.0,0.0,0.0,0.0,0.0,0.0,0.0,0.0,0.0,0.0,0.0,0.0,0.0,0.0,0.0,0.0,0.0,0.0,0.0,0.0,0.0,0.0,0.0,0.0,0.0,0.0,0.0,0.0,0.0,0.0,0.0,0.0,0.0,0.0,0.0,0.0,0.0,0.0,0.0,0.0,0.0,0.0,0.0,0.0,0.0,0.0,0.0,0.0,0.0,0.0,0.0,0.0,0.0,0.0,0.0,0.0,0.0,0.0,0.0,0.0,0.0,0.0,0.0,0.0,0.0,0.0,0.0,0.0,0.0,0.0,0.0,0.0,0.0,0.0,0.0,0.0,0.0,0.0,0.0,0.0,0.0,0.0,0.0,0.0,-3.4583,-3.4521,-3.4317,-3.3815,-3.3251,-3.2656,0.0,0.0,0.0,0.0,0.0,0.0,0.0,0.0,0.0,0.0,0.0,0.0,0.0,0.0,0.0,0.0,0.0,0.0,0.0,0.0,0.0,0.0,0.0,0.0,0.0,0.0,0.0,0.0,0.0,0.0,0.0,0.0,0.0,0.0,0.0,0.0,0.0,0.0,0.0,0.0,0.0,0.0,0.0,0.0,0.0,0.0,0.0,0.0,0.0,0.0,0.0,0.0,0.0,0.0,0.0,0.0,0.0,0.0,0.0,0.0,0.0,0.0,0.0,0.0,0.0,0.0,0.0,0.0,0.0,0.0,0.0,0.0,0.0,0.0,0.0,0.0,0.0,0.0,0.0,0.0,0.0,0.0,0.0,0.0,0.0,0.0,0.0,0.0,0.0,0.0,0.0,0.0,0.0,0.0,0.0,0.0,0.0,0.0,0.0,0.0,0.0,0.0,0.0,0.0,0.0,0.0,0.0,0.0,-3.4397,-3.4416,-3.4076,-3.3412,-3.3381,-3.3414,0.0,0.0,0.0,0.0,0.0,0.0,0.0,0.0,0.0,0.0,0.0,0.0,0.0,0.0,0.0,0.0,0.0,0.0,0.0,0.0,0.0,0.0,0.0,0.0,0.0,0.0,0.0,0.0,0.0,0.0,0.0,0.0,0.0,0.0,0.0,0.0,0.0,0.0,0.0,0.0,0.0,0.0,0.0,0.0,0.0,0.0,0.0,0.0,0.0,0.0,0.0,0.0,0.0,0.0,0.0,0.0,0.0,0.0,0.0,0.0,0.0,0.0,0.0,0.0,0.0,0.0,0.0,0.0,0.0,0.0,0.0,0.0,0.0,0.0,0.0,0.0,0.0,0.0,0.0,0.0,0.0,0.0,0.0,0.0,0.0,0.0,0.0,0.0,0.0,0.0,0.0,0.0,0.0,0.0,0.0,0.0,0.0,0.0,0.0,0.0,0.0,0.0,0.0,0.0,0.0,0.0,0.0,0.0,0.0,-3.4209,-3.4274,-3.3978,-3.3217,-3.3234,-3.278,0.0,0.0,0.0,0.0,0.0,0.0,0.0,0.0,0.0,0.0,0.0,0.0,0.0,0.0,0.0,0.0,0.0,0.0,0.0,0.0,0.0,0.0,0.0,0.0,0.0,0.0,0.0,0.0,0.0,0.0,0.0,0.0,0.0,0.0,0.0,0.0,0.0,0.0,0.0,0.0,0.0,0.0,0.0,0.0,0.0,0.0,0.0,0.0,0.0,0.0,0.0,0.0,0.0,0.0,0.0,0.0,0.0,0.0,0.0,0.0,0.0,0.0,0.0,0.0,0.0,0.0,0.0,0.0,0.0,0.0,0.0,0.0,0.0,0.0,0.0,0.0,0.0,0.0,0.0,0.0,0.0,0.0,0.0,0.0,0.0,0.0,0.0,0.0,0.0,0.0,0.0,0.0,0.0,0.0,0.0,0.0,0.0,0.0,0.0,0.0,0.0,0.0,0.0,0.0,0.0,0.0,0.0,0.0,0.0,-3.4074,0.0,-3.3819,-3.3057,-3.2794,-3.2147,0.0,0.0,0.0,0.0,0.0,0.0,0.0,0.0,0.0,0.0,0.0,0.0,0.0,0.0,0.0,0.0,0.0,0.0,0.0,0.0,0.0,0.0,0.0,0.0,0.0,0.0,0.0,0.0,0.0,0.0,0.0,0.0,0.0,0.0,0.0,0.0,0.0,0.0,0.0,0.0,0.0,0.0,0.0,0.0,0.0,0.0,0.0,0.0,0.0,0.0,0.0,0.0,0.0,0.0,0.0,0.0,0.0,0.0,0.0,0.0,0.0,0.0,0.0,0.0,0.0,0.0,0.0,0.0,0.0,0.0,0.0,0.0,0.0,0.0,0.0,0.0,0.0,0.0,0.0,0.0,0.0,0.0,0.0,0.0,0.0,0.0,0.0,0.0,0.0,0.0,0.0,0.0,0.0,0.0,0.0,0.0,0.0,0.0,0.0,0.0,0.0,0.0,0.0,0.0,0.0,0.0,0.0,0.0,-3.3998,-3.3998,-3.3998,-3.3623,-3.2816,-3.2077,-3.167,0.0,0.0,0.0,0.0,0.0,0.0,0.0,0.0,0.0,0.0,0.0,0.0,0.0,0.0,0.0,0.0,0.0,0.0,0.0,0.0,0.0,0.0,0.0,0.0,0.0,0.0,0.0,0.0,0.0,0.0,0.0,0.0,0.0,0.0,0.0,0.0,0.0,0.0,0.0,0.0,0.0,0.0,0.0,0.0,0.0,0.0,0.0,0.0,0.0,0.0,0.0,0.0,0.0,0.0,0.0,0.0,0.0,0.0,0.0,0.0,0.0,0.0,0.0,0.0,0.0,0.0,0.0,0.0,0.0,0.0,0.0,0.0,0.0,0.0,0.0,0.0,0.0,0.0,0.0,0.0,0.0,0.0,0.0,0.0,0.0,0.0,0.0,0.0,0.0,0.0,0.0,0.0,0.0,0.0,0.0,0.0,0.0,0.0,0.0,0.0,0.0,0.0,0.0,0.0,0.0,0.0,0.0,0.0,0.0,-3.3873,-3.3947,-3.3585,-3.2772,-3.2533,-3.2158,0.0,0.0,0.0,0.0,0.0,0.0,0.0,0.0,0.0,0.0,0.0,0.0,0.0,0.0,0.0,0.0,0.0,0.0,0.0,0.0,0.0,0.0,0.0,0.0,0.0,0.0,0.0,0.0,0.0,0.0,0.0,0.0,0.0,0.0,0.0,0.0,0.0,0.0,0.0,0.0,0.0,0.0,0.0,0.0,0.0,0.0,0.0,0.0,0.0,0.0,0.0,0.0,0.0,0.0,0.0,0.0,0.0,0.0,0.0,0.0,0.0,0.0,0.0,0.0,0.0,0.0,0.0,0.0,0.0,0.0,0.0,0.0,0.0,0.0,0.0,0.0,0.0,0.0,0.0,0.0,0.0,0.0,0.0,0.0,0.0,0.0,0.0,0.0,0.0,0.0,0.0,0.0,0.0,0.0,0.0,0.0,0.0,0.0,0.0,0.0,0.0,0.0,0.0,0.0,0.0,0.0,0.0,0.0,0.0,-3.4623,-3.4734,-3.4549,-3.4057,-3.3771,-3.3103,-3.1948,0.0,0.0,0.0,0.0,0.0,0.0,0.0,0.0,0.0,0.0,0.0,0.0,0.0,0.0,0.0,0.0,0.0,0.0,0.0,0.0,0.0,0.0,0.0,0.0,0.0,0.0,0.0,0.0,0.0,0.0,0.0,0.0,0.0,0.0,0.0,0.0,0.0,0.0,0.0,0.0,0.0,0.0,0.0,0.0,0.0,0.0,0.0,0.0,0.0,0.0,0.0,0.0,0.0,0.0,0.0,0.0,0.0,0.0,0.0,0.0,0.0,0.0,0.0,0.0,0.0,0.0,0.0,0.0,0.0,0.0,0.0,0.0,0.0,0.0,0.0,0.0,0.0,0.0,0.0,0.0,0.0,0.0,0.0,0.0,0.0,0.0,0.0,0.0,0.0,0.0,0.0,0.0,0.0,0.0,0.0,0.0,0.0,0.0,0.0,0.0,0.0,0.0,0.0,0.0,0.0,0.0,0.0,0.0,-3.6191,-3.6321,-3.6395,-3.6395,-3.5518,-3.4348,0.0,0.0,0.0,0.0,0.0,0.0,0.0,0.0,0.0,0.0,0.0,0.0,0.0,0.0,0.0,0.0,0.0,0.0,0.0,0.0,0.0,0.0,0.0,0.0,0.0,0.0,0.0,0.0,0.0,0.0,0.0,0.0,0.0,0.0,0.0,0.0,0.0,0.0,0.0,0.0,0.0,0.0,0.0,0.0,0.0,0.0,0.0,0.0,0.0,0.0,0.0,0.0,0.0,0.0,0.0,0.0,0.0,0.0,0.0,0.0,0.0,0.0,0.0,0.0,0.0,0.0,0.0,0.0,0.0,0.0,0.0,0.0,0.0,0.0,0.0,0.0,0.0,0.0,0.0,0.0,0.0,0.0,0.0,0.0,0.0,0.0,0.0,0.0,0.0,0.0,0.0,0.0,0.0,0.0,0.0,0.0,0.0,0.0,0.0,0.0,0.0,0.0,0.0,0.0,0.0,0.0,0.0,0.0,0.0,-3.8597,-3.9353,-3.9195,-3.8102,-3.6611,-3.5615,0.0,0.0,0.0,0.0,0.0,0.0,0.0,0.0,0.0,0.0,0.0,0.0,0.0,0.0,0.0,0.0,0.0,0.0,0.0,0.0,0.0,0.0,0.0,0.0,0.0,0.0,0.0,0.0,0.0,0.0,0.0,0.0,0.0,0.0,0.0,0.0,0.0,0.0,0.0,0.0,0.0,0.0,0.0,0.0,0.0,0.0,0.0,0.0,0.0,0.0,0.0,0.0,0.0,0.0,0.0,0.0,0.0,0.0,0.0,0.0,0.0,0.0,0.0,0.0,0.0,0.0,0.0,0.0,0.0,0.0,0.0,0.0,0.0,0.0,0.0,0.0,0.0,0.0,0.0,0.0,0.0,0.0,0.0,0.0,0.0,0.0,0.0,0.0,0.0,0.0,0.0,0.0,0.0,0.0,0.0,0.0,0.0,0.0,0.0,0.0,0.0,0.0,0.0,0.0,0.0,0.0,0.0,0.0,-3.7594,-3.9312,-4.087,-4.125,-4.0359,-3.8266,-3.6808,0.0,0.0,0.0,0.0,0.0,0.0,0.0,0.0,0.0,0.0,0.0,0.0,0.0,0.0,0.0,0.0,0.0,0.0,0.0,0.0,0.0,0.0,0.0,0.0,0.0,0.0,0.0,0.0,0.0,0.0,0.0,0.0,0.0,0.0,0.0,0.0,0.0,0.0,0.0,0.0,0.0,0.0,0.0,0.0,0.0,0.0,0.0,0.0,0.0,0.0,0.0,0.0,0.0,0.0,0.0,0.0,0.0,0.0,0.0,0.0,0.0,0.0,0.0,0.0,0.0,0.0,0.0,0.0,0.0,0.0,0.0,0.0,0.0,0.0,0.0,0.0,0.0,0.0,0.0,0.0,0.0,0.0,0.0,0.0,0.0,0.0,0.0,0.0,0.0,0.0,0.0,0.0,0.0,0.0,0.0,0.0,0.0,0.0,0.0,0.0,0.0,0.0,0.0,0.0,0.0,0.0,0.0,0.0,-3.8402,-3.9247,-4.1421,-4.2609,-4.2519,-3.9962,-3.7825,0.0,0.0,0.0,0.0,0.0,0.0,0.0,0.0,0.0,0.0,0.0,0.0,0.0,0.0,0.0,0.0,0.0,0.0,0.0,0.0,0.0,0.0,0.0,0.0,0.0,0.0,0.0,0.0,0.0,0.0,0.0,0.0,0.0,0.0,0.0,0.0,0.0,0.0,0.0,0.0,0.0,0.0,0.0,0.0,0.0,0.0,0.0,0.0,0.0,0.0,0.0,0.0,0.0,0.0,0.0,0.0,0.0,0.0,0.0,0.0,0.0,0.0,0.0,0.0,0.0,0.0,0.0,0.0,0.0,0.0,0.0,0.0,0.0,0.0,0.0,0.0,0.0,0.0,0.0,0.0,0.0,0.0,0.0,0.0,0.0,0.0,0.0,0.0,0.0,0.0,0.0,0.0,0.0,0.0,0.0,0.0,0.0,0.0,0.0,0.0,0.0,0.0,0.0,0.0,0.0,0.0,0.0,0.0,-3.9352,-4.0712,-4.1939,-4.2609,-4.2591,-3.9644,-3.7875,0.0,0.0,0.0,0.0,0.0,0.0,0.0,0.0,0.0,0.0,0.0,0.0,0.0,0.0,0.0,0.0,0.0,0.0,0.0,0.0,0.0,0.0,0.0,0.0,0.0,0.0,0.0,0.0,0.0,0.0,0.0,0.0,0.0,0.0,0.0,0.0,0.0,0.0,0.0,0.0,0.0,0.0,0.0,0.0,0.0,0.0,0.0,0.0,-3.0875,0.0,0.0,0.0,0.0,0.0,0.0,0.0,0.0,0.0,0.0,0.0,0.0,0.0,0.0,0.0,0.0,0.0,0.0,0.0,0.0,0.0,0.0,0.0,0.0,0.0,0.0,0.0,0.0,0.0,0.0,0.0,0.0,0.0,0.0,0.0,0.0,0.0,0.0,0.0,0.0,0.0,0.0,0.0,0.0,0.0,0.0,0.0,0.0,0.0,0.0,0.0,0.0,0.0,0.0,0.0,0.0,0.0,0.0,0.0,-3.9722,-4.0895,-4.1715,-4.2124,-4.2035,-3.9815,-3.8381,0.0,0.0,0.0,0.0,0.0,0.0,0.0,0.0,0.0,0.0,0.0,0.0,0.0,0.0,0.0,0.0,0.0,0.0,0.0,0.0,0.0,0.0,0.0,0.0,0.0,0.0,0.0,0.0,0.0,0.0,0.0,0.0,0.0,0.0,0.0,0.0,0.0,0.0,0.0,0.0,0.0,0.0,0.0,0.0,0.0,0.0,0.0,0.0,0.0,0.0,0.0,0.0,0.0,0.0,0.0,0.0,0.0,0.0,0.0,0.0,0.0,0.0,0.0,0.0,0.0,0.0,0.0,0.0,0.0,0.0,0.0,0.0,0.0,0.0,0.0,0.0,0.0,0.0,0.0,0.0,0.0,0.0,0.0,0.0,0.0,0.0,0.0,0.0,0.0,0.0,0.0,0.0,0.0,0.0,0.0,0.0,0.0,0.0,0.0,0.0,0.0,0.0,0.0,0.0,0.0,0.0,0.0,-3.8408,-3.9916,-4.0732,-4.1315,-4.1604,-4.1587,-4.0387,-3.912,-3.7829,0.0,0.0,0.0,0.0,0.0,0.0,0.0,0.0,0.0,0.0,0.0,0.0,0.0,0.0,0.0,0.0,0.0,0.0,0.0,0.0,0.0,0.0,0.0,0.0,0.0,0.0,0.0,0.0,0.0,0.0,0.0,0.0,0.0,0.0,0.0,0.0,0.0,0.0,-3.0724,-3.1483,0.0,0.0,0.0,0.0,0.0,0.0,0.0,0.0,-3.1176,0.0,0.0,0.0,0.0,0.0,0.0,0.0,0.0,0.0,0.0,0.0,0.0,0.0,0.0,0.0,0.0,0.0,0.0,0.0,0.0,0.0,0.0,0.0,0.0,0.0,0.0,0.0,0.0,0.0,0.0,0.0,0.0,0.0,0.0,0.0,0.0,0.0,0.0,0.0,0.0,0.0,0.0,0.0,0.0,0.0,0.0,0.0,0.0,0.0,0.0,0.0,0.0,0.0,0.0,0.0,0.0,-3.6853,-3.9031,-4.0574,-4.1416,-4.1534,-4.1604,-4.1604,-4.138,-4.0028,-3.7531,0.0,0.0,0.0,0.0,0.0,0.0,0.0,0.0,0.0,0.0,0.0,0.0,0.0,0.0,0.0,0.0,0.0,0.0,0.0,0.0,0.0,0.0,0.0,0.0,0.0,0.0,0.0,0.0,0.0,0.0,0.0,0.0,0.0,0.0,0.0,0.0,0.0,0.0,0.0,-3.1621,-3.205,0.0,0.0,0.0,0.0,0.0,0.0,0.0,0.0,-3.0937,0.0,0.0,0.0,0.0,0.0,0.0,0.0,0.0,0.0,0.0,0.0,0.0,0.0,0.0,0.0,0.0,0.0,0.0,0.0,0.0,0.0,0.0,0.0,0.0,0.0,0.0,0.0,0.0,0.0,0.0,0.0,0.0,0.0,0.0,0.0,0.0,0.0,0.0,0.0,0.0,0.0,0.0,0.0,0.0,0.0,0.0,0.0,0.0,0.0,0.0,0.0,0.0,0.0,0.0,0.0,-3.6996,-3.9588,-4.117,-4.1587,-4.1604,-4.1604,-4.1604,-4.1538,-4.0293,0.0,0.0,0.0,0.0,0.0,0.0,0.0,0.0,0.0,0.0,0.0,0.0,0.0,0.0,0.0,0.0,0.0,0.0,0.0,0.0,0.0,0.0,0.0,0.0,0.0,0.0,0.0,0.0,0.0,0.0,0.0,0.0,0.0,0.0,0.0,0.0,0.0,0.0,0.0,0.0,-3.3264,-3.4173,-3.4472,0.0,0.0,0.0,0.0,0.0,0.0,-3.3748,-3.2147,0.0,0.0,0.0,0.0,0.0,0.0,0.0,0.0,0.0,0.0,0.0,0.0,0.0,0.0,0.0,0.0,0.0,0.0,0.0,0.0,0.0,0.0,0.0,0.0,0.0,0.0,0.0,0.0,0.0,0.0,0.0,0.0,0.0,0.0,0.0,0.0,0.0,0.0,0.0,0.0,0.0,0.0,0.0,0.0,0.0,0.0,0.0,0.0,0.0,0.0,0.0,0.0,0.0,0.0,0.0,-3.756,-4.0482,-4.1968,-4.1868,-4.185,-4.178,-4.1604,-4.1471,-4.0342,0.0,0.0,0.0,0.0,0.0,0.0,0.0,0.0,0.0,0.0,0.0,0.0,0.0,0.0,0.0,0.0,0.0,0.0,0.0,0.0,0.0,0.0,0.0,0.0,0.0,0.0,0.0,0.0,0.0,0.0,0.0,0.0,0.0,0.0,0.0,0.0,0.0,0.0,0.0,0.0,0.0,-3.5963,-3.6176,-3.5681,0.0,0.0,0.0,0.0,-3.5721,-3.4699,0.0,0.0,0.0,0.0,0.0,0.0,0.0,0.0,0.0,0.0,0.0,0.0,0.0,0.0,0.0,0.0,0.0,0.0,0.0,0.0,0.0,0.0,0.0,0.0,0.0,0.0,0.0,0.0,0.0,0.0,0.0,0.0,0.0,0.0,0.0,0.0,0.0,0.0,0.0,0.0,0.0,0.0,0.0,0.0,0.0,0.0,0.0,0.0,0.0,0.0,0.0,0.0,0.0,0.0,0.0,0.0,-3.9769,-4.2184,-4.3209,-4.2687,-4.2675,-4.2319,-4.1622,-4.1471,-4.0364,0.0,0.0,0.0,0.0,0.0,0.0,0.0,0.0,0.0,0.0,0.0,0.0,0.0,0.0,0.0,0.0,0.0,0.0,0.0,0.0,0.0,0.0,0.0,0.0,0.0,0.0,0.0,0.0,0.0,0.0,0.0,0.0,0.0,0.0,0.0,0.0,0.0,0.0,0.0,0.0,0.0,-3.5309,-3.6676,-3.6358,-3.5992,0.0,0.0,-3.6644,-3.6284,-3.6505,0.0,0.0,0.0,0.0,0.0,0.0,0.0,0.0,0.0,0.0,0.0,0.0,0.0,0.0,0.0,0.0,0.0,0.0,0.0,0.0,0.0,0.0,0.0,0.0,0.0,0.0,0.0,0.0,0.0,0.0,0.0,0.0,0.0,0.0,0.0,0.0,0.0,0.0,0.0,0.0,0.0,0.0,0.0,0.0,0.0,0.0,0.0,0.0,0.0,0.0,0.0,0.0,0.0,0.0,0.0,-3.9185,-4.0046,-4.2504,-4.3699,-4.343,-4.3009,-4.264,-4.2306,-4.162,-4.0374,0.0,0.0,0.0,0.0,0.0,0.0,0.0,0.0,0.0,0.0,0.0,0.0,0.0,0.0,0.0,0.0,0.0,0.0,0.0,0.0,0.0,0.0,0.0,0.0,0.0,0.0,0.0,0.0,0.0,0.0,0.0,0.0,0.0,0.0,0.0,0.0,0.0,0.0,0.0,0.0,0.0,0.0,-3.7403,-3.7374,0.0,0.0,0.0,-3.6164,-3.5589,0.0,0.0,0.0,0.0,0.0,0.0,0.0,0.0,0.0,0.0,0.0,0.0,0.0,0.0,0.0,0.0,0.0,0.0,0.0,0.0,0.0,0.0,0.0,0.0,0.0,0.0,0.0,0.0,0.0,0.0,0.0,0.0,0.0,0.0,0.0,0.0,0.0,0.0,0.0,0.0,0.0,0.0,0.0,0.0,0.0,0.0,0.0,0.0,0.0,0.0,0.0,0.0,0.0,0.0,0.0,0.0,0.0,-4.0537,-4.2822,-4.3934,-4.3767,-4.3204,-4.2751,-4.2369,-4.1488,0.0,0.0,0.0,0.0,0.0,0.0,0.0,0.0,0.0,0.0,0.0,0.0,0.0,0.0,0.0,0.0,0.0,0.0,0.0,0.0,0.0,0.0,0.0,0.0,0.0,0.0,0.0,-2.9851,0.0,0.0,0.0,0.0,0.0,0.0,0.0,0.0,0.0,0.0,0.0,0.0,0.0,0.0,-3.6979,-3.7591,-3.7714,-3.7982,0.0,0.0,-3.5971,-3.5742,-3.6338,-3.5926,0.0,0.0,0.0,0.0,0.0,0.0,0.0,0.0,0.0,0.0,0.0,0.0,0.0,0.0,0.0,0.0,0.0,0.0,0.0,0.0,0.0,0.0,0.0,0.0,0.0,0.0,0.0,0.0,0.0,0.0,0.0,0.0,0.0,0.0,0.0,0.0,0.0,0.0,0.0,0.0,0.0,0.0,0.0,0.0,0.0,0.0,0.0,0.0,0.0,0.0,0.0,0.0,0.0,0.0,0.0,-4.2163,-4.3603,-4.4054,-4.3383,-4.3271,-4.262,-4.1281,-4.1024,-4.035,0.0,0.0,0.0,0.0,0.0,0.0,0.0,0.0,0.0,0.0,0.0,0.0,0.0,0.0,0.0,0.0,0.0,0.0,0.0,0.0,0.0,0.0,0.0,0.0,0.0,0.0,0.0,0.0,0.0,0.0,0.0,0.0,0.0,0.0,0.0,0.0,0.0,0.0,0.0,0.0,0.0,-3.6732,-3.6786,-3.6836,-3.7645,0.0,0.0,-3.7009,-3.7742,-3.8976,-3.8471,-3.429,0.0,0.0,0.0,0.0,0.0,0.0,0.0,0.0,0.0,0.0,0.0,0.0,0.0,0.0,0.0,0.0,0.0,0.0,0.0,0.0,0.0,0.0,0.0,0.0,0.0,0.0,0.0,0.0,0.0,0.0,0.0,0.0,0.0,0.0,0.0,0.0,0.0,0.0,0.0,0.0,0.0,0.0,0.0,0.0,0.0,0.0,0.0,0.0,0.0,0.0,0.0,0.0,0.0,-4.1377,-4.2186,-4.3652,-4.4271,-4.3984,-4.3517,-4.301,-4.2496,-4.1345,-4.0421,0.0,0.0,0.0,0.0,0.0,0.0,0.0,0.0,0.0,0.0,0.0,0.0,0.0,0.0,0.0,0.0,0.0,0.0,0.0,0.0,0.0,0.0,0.0,0.0,0.0,0.0,0.0,0.0,-3.6522,-3.6771,-3.592,0.0,0.0,0.0,0.0,0.0,0.0,0.0,0.0,0.0,0.0,-3.6644,-3.8528,-3.8815,0.0,0.0,-3.8976,-3.772,-3.6655,-3.7324,-3.6815,-3.3454,-3.267,0.0,0.0,0.0,0.0,0.0,0.0,0.0,0.0,0.0,0.0,0.0,0.0,0.0,0.0,0.0,0.0,0.0,0.0,0.0,0.0,0.0,0.0,0.0,0.0,0.0,0.0,0.0,0.0,0.0,0.0,0.0,0.0,0.0,0.0,0.0,0.0,0.0,0.0,0.0,0.0,0.0,0.0,0.0,0.0,0.0,0.0,0.0,0.0,0.0,0.0,0.0,0.0,-4.1199,-4.1777,-4.3163,-4.3864,-4.3864,-4.3351,-4.2984,-4.2779,-4.1615,-4.0735,0.0,0.0,0.0,0.0,0.0,0.0,0.0,0.0,0.0,0.0,0.0,0.0,0.0,0.0,0.0,0.0,0.0,0.0,0.0,0.0,0.0,0.0,0.0,0.0,0.0,0.0,0.0,0.0,-3.763,-3.7703,-3.6716,0.0,0.0,0.0,0.0,0.0,0.0,0.0,0.0,0.0,0.0,-3.7398,-3.8886,-3.9101,-3.9173,-3.9388,-3.8348,-3.7057,-3.5727,-3.5943,-3.5522,-3.3346,0.0,0.0,0.0,0.0,0.0,0.0,0.0,0.0,0.0,0.0,0.0,0.0,0.0,0.0,0.0,0.0,0.0,0.0,0.0,0.0,0.0,0.0,0.0,0.0,0.0,0.0,0.0,0.0,0.0,0.0,0.0,0.0,0.0,0.0,0.0,0.0,0.0,0.0,0.0,0.0,0.0,0.0,0.0,0.0,0.0,0.0,0.0,0.0,0.0,0.0,0.0,0.0,0.0,-4.1,-4.1049,-4.212,-4.2665,-4.2649,-4.2618,-4.2323,-4.1705,-4.1594,-4.1371,-4.0898,0.0,0.0,0.0,0.0,0.0,0.0,0.0,0.0,0.0,0.0,0.0,0.0,0.0,0.0,0.0,0.0,0.0,0.0,0.0,0.0,0.0,0.0,0.0,0.0,0.0,0.0,-3.352,-3.5148,-3.6488,0.0,0.0,0.0,0.0,0.0,0.0,0.0,0.0,0.0,0.0,-3.7146,-3.9172,-3.7128,-3.6805,-3.7164,-3.7828,-3.6062,-3.4799,-3.5439,-3.5512,-3.5258,0.0,0.0,0.0,0.0,0.0,0.0,0.0,0.0,0.0,0.0,0.0,0.0,0.0,0.0,0.0,0.0,0.0,0.0,0.0,0.0,0.0,0.0,0.0,0.0,0.0,0.0,0.0,-3.721,-3.6743,0.0,0.0,0.0,0.0,0.0,0.0,0.0,0.0,0.0,0.0,0.0,-3.9347,-3.9997,0.0,0.0,0.0,0.0,0.0,0.0,0.0,0.0,0.0,0.0,0.0,0.0,-4.1003,-4.104,-4.2044,-4.2602,-4.2602,-4.2602,-4.2489,-4.2261,-4.1824,-4.136,-4.0905,0.0,0.0,0.0,0.0,0.0,0.0,0.0,0.0,0.0,0.0,0.0,0.0,0.0,0.0,0.0,0.0,0.0,0.0,0.0,0.0,0.0,0.0,0.0,0.0,0.0,-3.5755,0.0,0.0,0.0,0.0,0.0,0.0,0.0,0.0,0.0,0.0,0.0,-3.4243,-3.6012,-3.6299,-3.6586,-3.7307,-3.7433,-3.7882,0.0,0.0,0.0,0.0,0.0,0.0,0.0,0.0,0.0,0.0,0.0,0.0,0.0,0.0,-2.9637,-2.8423,-2.8246,-2.8257,-2.8238,0.0,0.0,0.0,0.0,0.0,0.0,0.0,0.0,0.0,0.0,0.0,0.0,0.0,0.0,0.0,0.0,-3.8264,0.0,0.0,0.0,0.0,0.0,0.0,0.0,0.0,-3.9978,-4.0375,-4.0105,-4.0722,-4.0945,0.0,-4.0522,-3.9925,0.0,0.0,0.0,0.0,0.0,0.0,0.0,0.0,-4.0825,-4.089,-4.2014,-4.2602,-4.2602,-4.2602,-4.2602,-4.2602,-4.218,-4.1659,-4.1094,-4.0756,-3.9956,0.0,0.0,0.0,0.0,0.0,0.0,0.0,0.0,0.0,0.0,0.0,0.0,0.0,0.0,0.0,0.0,0.0,0.0,0.0,0.0,0.0,0.0,0.0,-3.6011,0.0,0.0,0.0,0.0,0.0,0.0,0.0,0.0,0.0,-3.4738,-3.4754,-3.5511,-3.7541,-3.6948,-3.6499,-3.6964,0.0,0.0,0.0,0.0,0.0,0.0,0.0,-3.4328,-3.3903,-3.3831,-3.4268,-3.5555,-3.5273,-3.4501,-3.3488,0.0,0.0,-3.0826,-3.0416,-3.0392,-3.041,-3.0094,-2.9836,-2.9865,-3.0132,-3.0362,0.0,0.0,0.0,0.0,0.0,0.0,0.0,0.0,-4.0571,-4.0112,0.0,-3.9989,0.0,0.0,0.0,0.0,0.0,0.0,0.0,0.0,-4.3815,-4.4057,-4.134,-4.1996,-4.2059,-4.1414,-4.0601,-4.0264,-4.0399,-4.0621,0.0,0.0,0.0,0.0,0.0,0.0,-4.0529,-4.0623,-4.1921,-4.2602,-4.2602,-4.2602,-4.2602,-4.2602,-4.2602,-4.22,-4.151,-4.1626,-4.1051,-3.9509,-3.897,0.0,0.0,0.0,0.0,0.0,0.0,0.0,0.0,0.0,0.0,0.0,0.0,0.0,0.0,0.0,0.0,0.0,0.0,0.0,0.0,-3.4953,0.0,0.0,0.0,0.0,0.0,0.0,0.0,0.0,0.0,0.0,-3.5714,-3.679,-3.7721,-3.7792,0.0,0.0,0.0,0.0,-3.7017,-3.5121,-3.47,-3.47,-3.4739,-3.4586,-3.4941,-3.6353,0.0,0.0,-3.7577,-3.6534,-3.5614,-3.5643,-3.6067,-3.5407,-3.1968,-3.1397,-3.1311,-3.1293,-3.1387,-3.1334,-3.1453,-3.2007,-3.2575,-4.366,0.0,0.0,0.0,0.0,-4.1821,-4.2462,-4.3299,-4.3896,-4.3686,-4.2928,-4.2671,0.0,0.0,0.0,0.0,0.0,0.0,-4.2028,-4.2494,-4.3025,-4.2864,-4.217,-4.2443,-4.2426,-4.2232,-4.1914,-4.1817,-4.1942,-4.1926,-4.1373,-4.0342,0.0,0.0,0.0,0.0,-4.1288,-4.1457,-4.2211,-4.2602,-4.2602,-4.2602,-4.2602,-4.2602,-4.2602,-4.2474,-4.2265,-4.178,-4.116,-4.0352,-3.8666,0.0,0.0,0.0,0.0,0.0,0.0,0.0,0.0,0.0,0.0,0.0,0.0,0.0,0.0,0.0,0.0,0.0,0.0,0.0,-3.5294,-3.618,-3.6616,0.0,0.0,0.0,0.0,0.0,0.0,0.0,0.0,0.0,-3.7945,-3.7781,-3.7631,0.0,0.0,-3.6531,-3.5714,-3.5968,-3.642,-3.687,0.0,0.0,0.0,-3.5887,-3.5344,-3.5777,-3.6214,-3.6575,-3.6843,-3.6916,-3.7006,-3.7005,-3.7166,-3.6898,-3.6002,-3.5262,-3.4916,-3.4878,-3.4179,-3.3526,-3.3502,-3.339,-3.3203,-4.5819,-4.49,-4.3747,-4.3351,-4.3454,-4.3871,-4.4566,-4.5478,-4.5931,-4.5619,-4.4755,-4.473,-4.3885,-4.2392,-4.205,0.0,0.0,0.0,-4.2998,-4.3664,-4.304,-4.2559,-4.2302,-4.2492,-4.2602,-4.2602,-4.2508,-4.2523,-4.2602,-4.2476,-4.2026,-4.1265,0.0,0.0,-4.0559,-4.1148,-4.152,-4.1675,-4.2278,-4.2602,-4.2602,-4.2602,-4.2602,-4.2602,-4.2602,-4.2602,-4.2602,-4.2136,-4.1601,-4.1054,-3.9761,-3.8492,0.0,0.0,0.0,0.0,0.0,0.0,0.0,0.0,0.0,0.0,0.0,-3.422,-3.4141,0.0,0.0,0.0,-3.6671,-3.6879,-3.7277,-3.7544,0.0,0.0,0.0,0.0,0.0,0.0,0.0,-3.5671,-3.7075,-3.8327,-3.895,-3.8854,-3.8843,-3.9219,-3.838,-3.7667,-3.7448,0.0,-3.8546,-3.9193,-3.8474,-3.8259,-3.9442,-3.885,-3.8133,-3.7775,-3.7524,-3.7417,-3.7417,-3.7542,-3.7595,-3.7595,-3.7595,-3.7595,-3.7595,-3.722,-3.6934,-3.6916,-3.6035,-3.5274,-3.5236,-3.447,-3.3786,-4.7942,-4.7645,-4.4989,-4.449,-4.5392,-4.5392,-4.5934,-4.6842,-4.6858,-4.621,-4.5228,-4.6134,-4.5371,-4.3396,-4.3455,0.0,-4.4888,-4.427,-4.3936,-4.3888,-4.3535,-4.2797,-4.1819,-4.2206,-4.2429,-4.2412,-4.2397,-4.2445,-4.246,-4.2349,-4.235,-4.2414,-4.1834,-4.1174,-4.0546,-4.1126,-4.1448,-4.1511,-4.2232,-4.2586,-4.2602,-4.2602,-4.2602,-4.2602,-4.2602,-4.2602,-4.2602,-4.2602,-4.2342,-4.1742,-4.1628,-4.0764,-3.895,0.0,0.0,0.0,0.0,0.0,0.0,0.0,0.0,0.0,0.0,0.0,0.0,0.0,0.0,0.0,-3.836,0.0,-3.9923,-3.9044,0.0,0.0,0.0,-3.6985,-3.7561,-3.771,-3.7725,-3.7683,0.0,0.0,0.0,0.0,-4.0875,-4.1894,-4.1492,-4.0867,-4.0409,-4.1393,-4.2163,-4.1453,-4.1437,-4.1688,-4.2079,-4.2111,-4.1709,-4.1006,-4.0021,-3.9182,-3.9075,-3.8504,-3.7988,-3.8041,-3.7809,-3.772,-3.772,-3.7648,-3.7595,-3.7559,-3.6988,-3.6467,-3.6359,-3.5398,-3.4553,-4.7352,-4.668,-4.5975,-4.5917,-4.6306,-4.6287,-4.6349,-4.6423,-4.6439,-4.6272,-4.6003,-4.6269,-4.5783,-4.4795,-4.4675,-4.4484,-4.4222,-4.4063,-4.3697,-4.3138,-4.2629,-4.2104,-4.1654,-4.116,-4.0943,-4.0909,-4.0805,-4.099,-4.1343,-4.1194,-4.1692,-4.2745,-4.2765,-4.2414,-4.1693,-4.1853,-4.2013,-4.2171,-4.2364,-4.2508,-4.2602,-4.2602,-4.2602,-4.2602,-4.2602,-4.2602,-4.2602,-4.2602,-4.2522,-4.2391,-4.1857,-4.1353,-4.0896,-3.9149,0.0,0.0,0.0,0.0,0.0,0.0,0.0,0.0,0.0,-3.6247,-3.6763,0.0,-3.8263,0.0,-4.0369,-4.0985,-4.0696,-4.0524,0.0,0.0,-3.938,-3.9133,-3.9551,-3.9751,-3.9649,-3.9157,-3.9664,-4.0358,-4.1054,-4.1119,-4.1818,-4.3692,-4.262,-4.1545,-4.1469,-4.1963,-4.234,-4.2215,-4.2174,-4.2154,-4.244,-4.2348,-4.231,-4.2076,-4.1698,-4.1466,-4.1448,-4.0806,-4.0271,-4.0182,-3.9272,-3.8611,-3.8558,-3.8023,-3.7666,-3.7541,-3.6988,-3.6486,-3.6485,-3.5935,-3.546,-4.7253,-4.6777,-4.6777,-4.6813,-4.6801,-4.6551,-4.6388,-4.6298,-4.6298,-4.6278,-4.6187,-4.6116,-4.5683,-4.505,-4.4999,-4.4652,-4.3999,-4.3665,-4.3164,-4.2514,-4.1747,-4.1199,-4.0805,-4.0347,-4.0124,-4.0124,-4.005,-4.0309,-4.0842,-4.0743,-4.1247,-4.2306,-4.2438,-4.2281,-4.1915,-4.2332,-4.2478,-4.2286,-4.2349,-4.2476,-4.2602,-4.2602,-4.2425,-4.2072,-4.2056,-4.1863,-4.1495,-4.1495,-4.1479,-4.1479,-4.12,-4.0859,-4.055,-3.948,-3.8602,0.0,0.0,0.0,0.0,0.0,0.0,0.0,0.0,0.0,0.0,0.0,-3.9217,0.0,-4.0857,-4.1431,-4.0549,-4.0803,-4.1025,-4.0984,-4.076,-4.0821,-4.1291,-4.1444,-4.135,-4.0971,-4.1301,-4.1811,-4.2422,-4.2406,-4.2835,-4.4333,-4.3743,-4.3265,-4.3524,-4.3615,-4.3584,-4.3545,-4.3707,-4.3975,-4.4303,-4.4071,-4.3839,-4.3804,-4.3286,-4.2822,-4.2822,-4.2162,-4.1627,-4.1556,-4.0931,-4.036,-4.0324,-3.9718,-3.9184,-3.9059,-3.8542,-3.7828,-3.7113,-3.6517,-3.611,-4.7412,-4.7333,-4.7444,-4.7367,-4.7156,-4.6681,-4.645,-4.637,-4.6275,-4.6171,-4.6024,-4.5801,-4.5254,-4.4575,-4.4636,-4.4294,-4.3595,-4.2958,-4.2404,-4.1878,-4.0985,-4.0363,-3.9975,-3.9839,-3.9753,-3.9738,-3.9738,-4.0069,-4.0588,-4.0622,-4.0922,-4.1615,-4.1664,-4.1664,-4.1647,-4.2596,-4.281,-4.2349,-4.2462,-4.259,-4.2716,-4.2619,-4.2202,-4.1544,-4.1496,-4.1129,-4.038,-4.0268,-4.022,-4.022,-4.0246,-4.0017,-3.953,-3.9441,-3.8978,0.0,-3.7036,0.0,0.0,0.0,0.0,0.0,0.0,0.0,0.0,-3.9373,-3.9577,-3.9212,-4.0776,-4.1382,-4.0344,-4.0847,-4.1393,-4.1843,-4.1878,-4.2077,-4.2537,-4.2634,-4.2634,-4.2634,-4.2806,-4.3023,-4.3232,-4.3509,-4.3759,-4.4133,-4.4506,-4.4797,-4.5399,-4.5142,-4.4876,-4.5003,-4.5411,-4.569,-4.6457,-4.6266,-4.5873,-4.5766,-4.491,-4.3943,-4.4036,-4.3358,-4.279,-4.2772,-4.2573,-4.2376,-4.2448,-4.1752,-4.1234,-4.1127,-4.0592,-3.9682,-3.8309,-3.756,-3.6987,-4.7601,-4.6977,-4.7563,-4.7763,-4.7763,-4.7658,-4.7262,-4.6676,-4.6138,-4.588,-4.5796,-4.5175,-4.4527,-4.3861,-4.3173,-4.2441,-4.1646,-4.1487,-4.1323,-4.1034,-4.0366,-4.0185,-4.0351,-3.9743,-3.9457,-3.9457,-3.9472,-3.9692,-4.005,-4.005,-4.065,-4.1743,-4.1931,-4.1916,-4.1794,0.0,0.0,0.0,-4.3392,-4.3315,-4.3299,-4.2591,-4.2126,-4.1965,-4.1949,0.0,-4.1709,-4.1181,-4.0893,-4.0893,-4.0427,0.0,0.0,0.0,0.0,0.0,0.0,0.0,0.0,0.0,0.0,0.0,-3.9525,-4.0137,-4.0151,-4.0352,-4.0717,-4.1173,-4.158,-4.1894,-4.208,-4.221,-4.234,-4.2438,-4.2454,-4.2472,-4.2586,-4.2728,-4.2837,-4.2837,-4.2868,-4.293,-4.3023,-4.3325,-4.3625,-4.3756,-4.4281,-4.4665,-4.4831,-4.4922,-4.4997,-4.5027,-4.5334,-4.5965,-4.689,-4.6801,-4.6641,-4.6694,-4.6605,-4.6284,-4.6141,-4.5606,-4.5124,-4.5053,-4.4143,-4.3322,-4.3322,-4.2626,-4.2183,-4.2073,-4.1948,-4.1377,-3.9825,-3.9494,-3.9498,-4.7769,0.0,-4.8083,-4.8383,0.0,-4.8383,-4.8177,-4.7782,-4.7119,-4.6629,-4.625,-4.557,-4.4685,-4.369,-4.3239,-4.2412,-4.1355,-4.1339,-4.1239,-4.1021,-4.0374,-4.0095,-4.0181,-3.9457,-3.9111,-3.9126,-3.9111,-3.9328,-3.9793,-3.9793,-4.0258,-4.1171,-4.1241,-4.131,-4.1326,-4.1928,-4.2375,-4.2597,-4.2582,-4.2571,-4.2539,-4.2091,-4.1708,-4.147,0.0,0.0,0.0,0.0,0.0,0.0,0.0,0.0,0.0,0.0,0.0,-4.0375,-3.9744,-3.9531,-3.9946,-4.0348,-4.0496,-4.0483,-4.1144,-4.1387,-4.1047,-4.1399,-4.1786,-4.216,-4.2192,-4.2307,-4.2554,-4.2602,-4.2602,-4.2602,-4.2602,-4.2602,-4.2602,-4.2696,-4.2759,-4.2759,-4.2837,-4.2916,-4.2899,-4.316,-4.3386,-4.3505,-4.3889,-4.4241,-4.4333,-4.4392,-4.4383,-4.4369,-4.453,-4.5104,-4.6112,-4.6359,-4.656,-4.6873,-4.6998,-4.6998,-4.6998,-4.6659,-4.6373,-4.6337,-4.5731,-4.5231,-4.516,-4.4571,-4.4018,-4.3982,-4.3714,-4.3268,-4.2341,-4.1725,-4.125,-4.8067,-4.813,-4.8778,-4.9062,-4.9062,-4.9078,-4.9062,-4.9015,0.0,0.0,0.0,-4.6155,-4.5159,-4.4053,-4.3706,-4.2866,-4.1694,-4.1552,-4.1357,-4.1122,-4.0528,-4.0165,-3.9975,-3.94,-3.9096,-3.9111,-3.9111,-3.9343,-3.9824,-3.9824,-4.0071,-4.047,-4.0489,-4.0593,-4.0796,-4.165,-4.1802,-4.1221,-4.1533,-4.1729,-4.1729,-4.1601,-4.1287,-4.0848,-4.0734,-4.0466,-4.0103,-3.9787,-3.9724,-3.9928,-3.9924,-3.9745,-3.9422,-3.9969,-4.0156,-3.9836,-4.0266,-4.0877,-4.1633,-4.1729,-4.1971,-4.2554,-4.2602,-4.2391,-4.1792,-4.2294,-4.2602,-4.2602,-4.2602,-4.2602,-4.2602,-4.2602,-4.2602,-4.2602,-4.2602,-4.2602,-4.2602,-4.2602,-4.2602,-4.2634,-4.2728,-4.2821,-4.2821,-4.3007,-4.3174,-4.3325,-4.3595,-4.386,-4.4026,-4.3976,-4.3898,-4.3934,-4.4069,-4.4318,-4.5228,-4.5574,-4.5803,-4.6173,-4.6344,-4.6514,-4.6679,-4.6738,-4.6814,-4.6908,-4.698,-4.6908,-4.6908,-4.6337,-4.6034,-4.6016,-4.5499,-4.5017,-4.4928,-4.4036,-4.3147,-4.8746,-4.881,-4.9489,-4.9773,-4.9773,-4.9773,-4.9773,-4.9663,-4.843,-4.783,-4.7672,-4.6376,-4.5697,-4.5412,-4.3643,-4.2525,-4.2016,-4.1435,-4.095,0.0,-4.0489,-4.0455,-4.042,-4.0316,-4.0281,-4.0281,-4.0246,-4.0316,-4.0385,-4.0385,-4.042,-4.0489,-4.0489,-4.0524,-4.0558,-4.0857,-4.0892,-4.0643,-4.1731,-4.2286,-4.2286,-4.1567,-4.1138,-4.1078,-4.1028,-4.1033,-4.1058,-4.0509,-4.0291,-4.0467,-3.9913,-3.9943,-4.0718,-4.0116,-4.0338,-4.1754,-4.1197,-4.1119,-4.1965,-4.2189,-4.2363,-4.2555,-4.2602,-4.2554,-4.2473,-4.2554,-4.2602,-4.2602,-4.2602,-4.2602,-4.2602,-4.2602,-4.2602,-4.2602,-4.2602,-4.2602,-4.2602,-4.2602,-4.2602,-4.2602,-4.265,-4.2665,-4.2696,-4.2898,-4.3082,-4.3174,-4.3399,-4.3726,-4.3951,-4.3921,-4.3956,-4.4215,-4.4306,-4.4508,-4.4907,-4.5014,-4.4928,-4.4372,-4.4507,-4.4899,-4.5597,-4.5709,-4.599,-4.6832,-4.6886,-4.6944,-4.698,-4.6926,-4.6766,-4.673,-4.6551,-4.6498,-4.6462,-4.6177,-4.5731,-4.9457,-4.9489,-4.9789,-4.9916,-4.9916,-4.9916,-4.9916,-4.9829,-4.9268,-4.8762,-4.8351,-4.7372,-4.6708,-4.6245,-4.5225,-4.4248,-4.3318,-4.254,-4.1887,-4.1376,-4.0866,-4.0662,-4.0662,-4.0574,-4.0489,-4.0489,-4.0489,-4.0489,-4.0489,-4.0489,-4.0489,-4.0489,-4.0489,-4.0489,-4.0489,-4.0593,-4.0593,-4.0539,-4.1162,-4.147,-4.1351,-4.0969,-4.0898,-4.1086,-4.1018,-4.1037,-4.129,-4.0941,-4.0835,-4.113,-4.0798,-4.0737,-4.0928,-4.0912,-4.1103,-4.1502,-4.1613,-4.1837,-4.2222,-4.2413,-4.2539,-4.2602,-4.2602,-4.2602,-4.2602,-4.2602,-4.2602,-4.2602,-4.2602,-4.2602,-4.2602,-4.2602,-4.2602,-4.2602,-4.2602,-4.2602,-4.2602,-4.2602,-4.2602,-4.2602,-4.2602,-4.2602,-4.2602,-4.2711,-4.2836,-4.2867,-4.3113,-4.3446,-4.3789,-4.375,-4.3787,-4.4042,-4.407,-4.4208,-4.4555,-4.4612,-4.4555,-4.4417,-4.4429,-4.4489,-4.4706,-4.4623,-4.5092,-4.5932,-4.6214,-4.6438,-4.6832,-4.6998,-4.6998,-4.6998,-4.6998,-4.6998,-4.6998,-4.6998,-4.6569,-4.9916,-4.9916,-4.9916,-4.9916,-4.9916,-4.9916,-4.9916,-4.9916,-4.99,-4.9592,-4.9023,-4.8376,-4.7814,-4.7261,-4.6796,-4.5929,-4.4867,-4.4038,-4.3149,-4.2249,-4.1565,-4.1093,-4.0746,-4.0558,-4.0489,-4.0489,-4.0489,-4.0489,-4.0489,-4.0489,-4.0489,-4.0489,-4.0489,-4.0489,-4.0489,-4.0489,-4.0489,-4.0489,-4.0662,-4.0662,-4.0505,-4.0489,-4.0662,-4.0935,-4.0833,-4.0867,-4.1156,-4.107,-4.1187,-4.1489,-4.1522,-4.1384,-4.1103,-4.1645,-4.1709,-4.1183,-4.1774,-4.2238,-4.2286,-4.2381,-4.2557,-4.2782,-4.2782,-4.2878,-4.3055,-4.3088,-4.2926,-4.2667,-4.2602,-4.2602,-4.2602,-4.2602,-4.2602,-4.2602,-4.2764,-4.2877,-4.2861,-4.2975,-4.3007,-4.2894,-4.2845,-4.2813,-4.2651,-4.2602,-4.2602,-4.2665,-4.2836,-4.3113,-4.3416,-4.3489,-4.3548,-4.3721,-4.3793,-4.3844,-4.4052,-4.4156,-4.4181,-4.4364,-4.4275,-4.4174,-4.4006,-4.392,-4.4202,-4.51,-4.5234,-4.5538,-4.6402,-4.6626,-4.672,-4.6868,-4.6998,-4.6998,-4.6998,-4.6998,-4.6819,-4.9916,-4.9916,-4.9916,-4.9916,-4.9916,-4.9916,-4.9916,-4.9916,-4.9916,-4.9781,-4.9473,-4.9016,-4.8762,-4.8509,-4.7381,-4.6691,-4.6338,-4.5609,-4.4408,-4.2998,-4.276,-4.1921,-4.0682,-4.052,-4.0489,-4.0489,-4.0489,-4.0489,-4.0489,-4.0489,-4.0489,-4.0489,-4.0489,-4.0489,-4.0489,-4.0489,-4.0489,-4.0489,-4.0524,-4.0524,-4.0489,-4.0489,-4.0539,-4.0558,-4.0524,-4.0627,-4.0817,-4.0833,-4.0969,-4.129,-4.1323,-4.1474,-4.1722,-4.1704,-4.1704,-4.1754,-4.1721,-4.1768,-4.1931,-4.1979,-4.2381,-4.3282,-4.3396,-4.3702,-4.4382,-4.4528,-4.3994,-4.3023,-4.2651,-4.2716,-4.2619,-4.2667,-4.2748,-4.2829,-4.325,-4.3605,-4.367,-4.4188,-4.435,-4.367,-4.3622,-4.3363,-4.2894,-4.278,-4.2699,-4.2732,-4.2795,-4.2886,-4.3066,-4.3157,-4.3232,-4.3551,-4.3831,-4.3674,-4.3289,-4.3358,-4.3423,-4.2845,-4.2782,-4.3254,-4.3698,-4.3682,-4.3708,-4.4758,-4.4618,-4.4747,-4.5445,-4.5691,-4.6062,-4.6791,-4.698,-4.6998,-4.6998,-4.6998,-4.689,-4.9916,-4.9916,-4.9916,-4.9916,-4.9916,-4.9916,-4.9916,-4.9916,-4.9916,-4.9852,-4.9725,-4.9458,-4.9308,-4.9261,-4.8694,-4.8215,-4.7697,-4.6778,-4.5761,-4.4648,-4.3762,-4.2757,-4.1801,-4.1324,-4.094,-4.052,-4.0489,-4.0489,-4.0489,-4.0489,-4.0489,-4.0489,-4.0489,-4.0489,-4.0489,-4.0489,-4.0489,-4.0489,-4.0489,-4.0489,-4.0489,-4.0489,-4.0489,-4.0489,-4.0489,-4.0524,-4.0608,-4.0627,-4.0765,-4.0987,-4.0987,-4.1171,-4.1538,-4.1456,-4.1489,-4.1703,-4.1752,-4.185,-4.2012,-4.2029,-4.2205,-4.2655,-4.3185,-4.3669,-4.4009,-4.4479,-4.4512,-4.4043,-4.3897,-4.3897,-4.3881,-4.3913,-4.3897,-4.3945,-4.4188,-4.435,-4.4366,-4.4609,-4.4642,-4.4383,-4.435,-4.4269,-4.3994,-4.3913,-4.3719,-4.3379,-4.3233,-4.3215,-4.2935,-4.2805,-4.2867,-4.3021,-4.3295,-4.3436,-4.3223,-4.3394,-4.3215,-4.278,-4.2783,-4.3233,-4.3211,-4.3321,-4.3578,-4.4778,-4.4611,-4.4859,-4.6059,-4.6205,-4.6458,-4.687,-4.6957,-4.6998,-4.6998,-4.6998,-4.6998,-4.9916,-4.9916,-4.9916,-4.9916,-4.9916,-4.9916,-4.9916,-4.9916,-4.9916,-4.9892,-4.9797,-4.9693,-4.9557,-4.9517,-4.9517,-4.9235,-4.8709,-4.7933,-4.706,-4.6114,-4.48,-4.3753,-4.2863,-4.2186,-4.1509,-4.0924,-4.0797,-4.0705,-4.0536,-4.0489,-4.0489,-4.0489,-4.0489,-4.0489,-4.0489,-4.0489,-4.0489,-4.0489,-4.0489,-4.0489,-4.0489,-4.0489,-4.0489,-4.0489,-4.0489,-4.0489,-4.0489,-4.0489,-4.0593,-4.0799,-4.0799,-4.0935,-4.1239,-4.1256,-4.139,-4.1588,-4.1752,-4.185,-4.1948,-4.1964,-4.206,-4.2349,-4.3184,-4.3829,-4.4169,-4.4866,-4.5354,-4.537,-4.537,-4.5273,-4.482,-4.4804,-4.4804,-4.4804,-4.4917,-4.5079,-4.5063,-4.5192,-4.5322,-4.5111,-4.5063,-4.4982,-4.4836,-4.4723,-4.4496,-4.4107,-4.3994,-4.3881,-4.3282,-4.3103,-4.2941,-4.2877,-4.2999,-4.3052,-4.3279,-4.3499,-4.331,-4.3107,-4.3089,-4.3278,-4.3027,-4.3183,-4.3356,-4.4377,-4.4572,-4.4927,-4.5587,-4.6071,-4.6548,-4.6742,-4.6888,-4.698,-4.6998,-4.6998,-4.6998,-4.9916,-4.9916,-4.9916,-4.9916,-4.9916,-4.9916,-4.9916,-4.9916,-4.9916,-4.9797,-4.9637,-4.9597,-4.9477,-4.9316,-4.9316,-4.93,-4.9237,-4.9103,-4.8298,-4.6935,-4.6075,-4.4977,-4.3578,-4.2879,-4.2217,-4.1586,-4.154,-4.1217,-4.0582,-4.0505,-4.0489,-4.0489,-4.0489,-4.0489,-4.0489,-4.0489,-4.0489,-4.0489,-4.0489,-4.0489,-4.0489,-4.0489,-4.0489,-4.0489,-4.0489,-4.0489,-4.0489,-4.0489,-4.0593,-4.0799,-4.0799,-4.0882,-4.1086,-4.1254,-4.139,-4.1555,-4.1621,-4.1621,-4.1654,-4.1654,-4.1958,-4.2741,-4.3547,-4.4499,-4.5019,-4.5834,-4.6356,-4.6698,-4.652,-4.6083,-4.516,-4.5063,-4.4998,-4.4982,-4.5435,-4.5743,-4.5775,-4.6261,-4.639,-4.5937,-4.5775,-4.5581,-4.4982,-4.4804,-4.4885,-4.4787,-4.4739,-4.4658,-4.4464,-4.401,-4.367,-4.3476,-4.3103,-4.2634,-4.2728,-4.3082,-4.3292,-4.3158,-4.3149,-4.3589,-4.3688,-4.3755,-4.3848,-4.387,-4.3838,-4.4168,-4.4872,-4.5452,-4.5971,-4.6359,-4.6835,-4.698,-4.6998,-4.6998,-4.6998,-4.9916,-4.9916,-4.9916,-4.9916,-4.9916,-4.9916,-4.9916,-4.9916,-4.9916,-4.9836,-4.9773,-4.9637,-4.9477,-4.9275,-4.9184,-4.9169,-4.9275,-4.9169,-4.8783,-4.8128,-4.6956,-4.5819,-4.4856,-4.3756,-4.2879,-4.2325,-4.2232,-4.1894,-4.1217,-4.0755,-4.0489,-4.0489,-4.0489,-4.0489,-4.0489,-4.0489,-4.0489,-4.0489,-4.0489,-4.0489,-4.0489,-4.0489,-4.0489,-4.0489,-4.0489,-4.0489,-4.0489,-4.0489,-4.0524,-4.0593,-4.0627,-4.0696,-4.0916,-4.1171,-4.1323,-4.1423,-4.1522,-4.1588,-4.1588,-4.1588,-4.1716,-4.2051,-4.2884,-4.3577,-4.3948,-4.4709,-4.544,-4.5945,-4.6058,-4.5914,-4.6228,-4.6131,-4.6131,-4.6198,-4.6326,-4.6471,-4.652,-4.673,-4.6763,-4.6552,-4.6488,-4.6374,-4.6147,-4.6149,-4.5953,-4.5548,-4.5451,-4.5273,-4.4868,-4.4544,-4.4269,-4.3816,-4.346,-4.312,-4.2602,-4.2759,-4.2929,-4.2959,-4.305,-4.3333,-4.3485,-4.3731,-4.385,-4.4099,-4.3836,-4.4006,-4.488,-4.5389,-4.5814,-4.6295,-4.6754,-4.6824,-4.6998,-4.6975,-4.6975,-4.9916,-4.9916,-4.9916,-4.9916,-4.9916,-4.9916,-4.9916,-4.9916,-4.9916,-4.9916,-4.9876,-4.9677,-4.9493,-4.9275,-4.9062,-4.9021,-4.9072,-4.8924,-4.8857,-4.8764,-4.7531,-4.668,-4.608,-4.4849,-4.3879,-4.3248,-4.2786,-4.2263,-4.1617,-4.1109,-4.072,-4.0505,-4.0489,-4.0489,-4.0489,-4.0489,-4.0489,-4.0489,-4.0489,-4.0489,-4.0489,-4.0489,-4.0489,-4.0489,-4.0489,-4.0489,-4.0489,-4.0489,-4.0489,-4.0489,-4.0489,-4.0608,-4.0799,-4.1021,-4.1189,-4.129,-4.1407,-4.1555,-4.1588,-4.1588,-4.1588,-4.162,-4.2387,-4.2916,-4.2981,-4.3996,-4.492,-4.5488,-4.5894,-4.6304,-4.6696,-4.6894,-4.6911,-4.6911,-4.6911,-4.6911,-4.6911,-4.6911,-4.6911,-4.6878,-4.6862,-4.6894,-4.6911,-4.6894,-4.6617,-4.6196,-4.6164,-4.5937,-4.5581,-4.5208,-4.4982,-4.4464,-4.3929,-4.3509,-4.3055,-4.2956,-4.2824,-4.2775,-4.279,-4.305,-4.3306,-4.3591,-4.381,-4.414,-4.4322,-4.4451,-4.4783,-4.532,-4.5759,-4.6175,-4.6394,-4.6442,-4.6666,-4.6911,-4.6888,-4.9916,-4.9916,-4.9916,-4.9916,-4.9916,-4.9916,-4.9916,-4.9916,-4.9916,-4.9916,-4.9876,-4.9677,-4.9517,-4.9316,-4.9066,-4.8852,-4.861,-4.8476,-4.8538,-4.8527,-4.7865,-4.7511,-4.7342,-4.6095,-4.5141,-4.4471,-4.3248,-4.234,-4.1801,-4.1648,-4.1278,-4.0659,-4.0612,-4.0582,-4.0505,-4.0489,-4.0489,-4.0489,-4.0489,-4.0489,-4.0489,-4.0489,-4.0489,-4.0489,-4.0489,-4.0489,-4.0489,-4.0489,-4.0489,-4.0489,-4.0489,-4.0608,-4.0765,-4.0817,-4.0969,-4.1189,-4.129,-4.1423,-4.154,-4.1588,-4.1588,-4.1685,-4.2371,-4.2755,-4.2965,-4.4205,-4.5194,-4.5325,-4.6124,-4.6795,-4.6728,-4.6844,-4.6911,-4.6911,-4.6911,-4.6911,-4.6911,-4.6911,-4.6911,-4.6911,-4.6911,-4.6911,-4.6911,-4.6911,-4.6846,-4.6779,-4.6747,-4.6714,-4.652,-4.6115,-4.584,-4.5467,-4.482,-4.414,-4.3638,-4.3136,-4.2861,-4.2682,-4.265,-4.2758,-4.2958,-4.3202,-4.3369,-4.3604,-4.3794,-4.3939,-4.4209,-4.4695,-4.4939,-4.5338,-4.5648,-4.5968,-4.6133,-4.6339,-4.6661,-4.9916,-4.9916,-4.9916,-4.9916,-4.9916,-4.9916,-4.9916,-4.9916,-4.9916,-4.9916,-4.9876,-4.9836,-4.9677,-4.9367,-4.8838,-4.8379,-4.8156,-4.7592,-4.7711,-4.8358,-4.7896,-4.7619,-4.745,-4.6711,-4.5926,-4.518,-4.391,-4.3208,-4.2894,-4.2494,-4.1955,-4.1401,-4.1263,-4.0986,-4.0536,-4.0489,-4.0489,-4.0489,-4.0489,-4.0489,-4.0489,-4.0489,-4.0489,-4.0489,-4.0489,-4.0489,-4.0489,-4.0489,-4.0489,-4.0489,-4.0489,-4.0524,-4.0593,-4.073,-4.0867,-4.0953,-4.1189,-4.1307,-4.1374,-4.1522,-4.1604,-4.1636,-4.1907,-4.2004,-4.2083,-4.314,-4.385,-4.3962,-4.5098,-4.6009,-4.6108,-4.6583,-4.6844,-4.6911,-4.6911,-4.6911,-4.6911,-4.6911,-4.6911,-4.6911,-4.6911,-4.6911,-4.6911,-4.6911,-4.6911,-4.6911,-4.6911,-4.6911,-4.6828,-4.6666,-4.6309,-4.584,-4.5257,-4.4836,-4.4399,-4.3913,-4.3524,-4.3104,-4.2877,-4.2619,-4.2743,-4.2836,-4.299,-4.3113,-4.3292,-4.3486,-4.3748,-4.3992,-4.4249,-4.4595,-4.4959,-4.5216,-4.5416,-4.5691,-4.601,-4.9836,-4.9892,-4.9852,-4.9797,-4.9797,-4.9797,-4.9757,-4.9677,-4.9693,-4.9693,-4.9677,-4.9693,-4.9557,-4.9293,-4.8773,-4.8302,-4.7821,-4.7238,-4.7281,-4.7804,-4.7773,-4.7727,-4.7835,-4.7296,-4.6434,-4.5588,-4.4764,-4.4086,-4.3593,-4.3193,-4.2633,-4.2078,-4.174,-4.1401,-4.0874,-4.0628,-4.0489,-4.0489,-4.0489,-4.0489,-4.0489,-4.0489,-4.0489,-4.0489,-4.0489,-4.0489,-4.0489,-4.0489,-4.0489,-4.0489,-4.0489,-4.0489,-4.0505,-4.0627,-4.073,-4.0833,-4.0987,-4.114,-4.129,-4.1407,-4.168,-4.192,-4.1999,-4.2173,-4.2475,-4.318,-4.3663,-4.3888,-4.5037,-4.5867,-4.5982,-4.6394,-4.6756,-4.6772,-4.6842,-4.6876,-4.6911,-4.6911,-4.6911,-4.6911,-4.6911,-4.6911,-4.6911,-4.6911,-4.6911,-4.6911,-4.6911,-4.6911,-4.6911,-4.6911,-4.6536,-4.6212,-4.5824,-4.5467,-4.5176,-4.4706,-4.4188,-4.3702,-4.3233,-4.2845,-4.2665,-4.2696,-4.2759,-4.279,-4.2912,-4.2974,-4.3199,-4.332,-4.3512,-4.3918,-4.4271,-4.4495,-4.4732,-4.5013,-4.5277,-4.9677,-4.9836,-4.9677,-4.9597,-4.9597,-4.9597,-4.9477,-4.9316,-4.9316,-4.9356,-4.9316,-4.9356,-4.925,-4.9062,-4.8876,-4.8357,-4.7706,-4.7281,-4.7019,-4.6957,-4.7142,-4.765,-4.8312,-4.7804,-4.6927,-4.5988,-4.5664,-4.4979,-4.3994,-4.3855,-4.3325,-4.2679,-4.2063,-4.1632,-4.1401,-4.0878,-4.0489,-4.0489,-4.0489,-4.0489,-4.0489,-4.0489,-4.0489,-4.0489,-4.0489,-4.0536,-4.0659,-4.0766,-4.0674,-4.052,-4.0566,-4.0659,-4.0582,-4.0582,-4.0855,-4.1074,-4.0954,-4.1236,-4.1362,-4.1669,-4.1924,-4.2579,-4.2758,-4.2995,-4.35,-4.4211,-4.463,-4.4598,-4.5569,-4.6186,-4.6173,-4.641,-4.6547,-4.6617,-4.6807,-4.6876,-4.6911,-4.6911,-4.6911,-4.6911,-4.6911,-4.6911,-4.6911,-4.6911,-4.6911,-4.6911,-4.6911,-4.6911,-4.6911,-4.6911,-4.6911,-4.6651,-4.6277,-4.6131,-4.584,-4.5322,-4.4836,-4.4577,-4.401,-4.3427,-4.2829,-4.2732,-4.2619,-4.2634,-4.2634,-4.2618,-4.268,-4.2881,-4.3005,-4.3246,-4.3542,-4.3789,-4.4004,-4.426,-4.4495,-4.9396,-4.9437,-4.9396,-4.9356,-4.9396,-4.9396,-4.9356,-4.9275,-4.9275,-4.9275,-4.9275,-4.9275,-4.9235,-4.9163,-4.8565,-4.8088,-4.7682,-4.6744,-4.6372,-4.6511,-4.6203,-4.7127,-4.8189,-4.7942,-4.7434,-4.6988,-4.6511,-4.588,-4.5164,-4.4957,-4.4456,-4.3347,-4.2679,-4.2078,-4.1571,-4.0924,-4.052,-4.0489,-4.0489,-4.0489,-4.0489,-4.052,-4.0489,-4.0489,-4.0536,-4.0832,-4.1294,-4.1801,-4.1489,-4.0628,-4.1063,-4.1324,-4.1355,-4.1709,-4.1996,-4.2138,-4.224,-4.2341,-4.2556,-4.2714,-4.2959,-4.3167,-4.3368,-4.3532,-4.3706,-4.4513,-4.4608,-4.4529,-4.532,-4.6019,-4.5649,-4.5959,-4.6375,-4.6598,-4.6738,-4.6892,-4.6911,-4.6911,-4.6911,-4.6911,-4.6911,-4.6911,-4.6911,-4.6911,-4.6911,-4.6911,-4.6911,-4.6911,-4.6911,-4.6911,-4.6911,-4.6911,-4.6716,-4.6649,-4.6439,-4.5921,-4.5548,-4.5419,-4.4885,-4.4172,-4.3541,-4.2991,-4.278,-4.2602,-4.2602,-4.2634,-4.2602,-4.2711,-4.2728,-4.2805,-4.2912,-4.3185,-4.3171,-4.3353,-4.3647,-4.9275,-4.9275,-4.921,-4.9169,-4.9169,-4.9184,-4.9128,-4.9031,-4.8975,-4.9031,-4.9015,-4.9031,-4.899,-4.8944,-4.8465,-4.81,-4.7688,-4.6899,-4.6388,-4.608,-4.6095,-4.688,-4.7865,-4.7942,-4.7881,-4.7573,-4.7219,-4.665,-4.6034,-4.5741,-4.5126,-4.444,-4.3464,-4.2679,-4.2048,-4.1355,-4.0816,-4.0566,-4.0489,-4.0489,-4.0489,-4.0797,-4.0951,-4.1028,-4.1217,-4.1648,-4.2048,-4.2402,-4.2186,-4.1663,-4.1801,-4.2017,-4.2048,-4.2386,-4.2638,-4.2783,-4.2788,-4.29,-4.3078,-4.322,-4.3502,-4.3827,-4.4027,-4.4216,-4.4571,-4.5092,-4.5045,-4.4895,-4.5611,-4.5707,-4.558,-4.5877,-4.623,-4.6423,-4.658,-4.6719,-4.6842,-4.6911,-4.6911,-4.6911,-4.6911,-4.6911,-4.6911,-4.6911,-4.6911,-4.6911,-4.6911,-4.6911,-4.6911,-4.6911,-4.6911,-4.6911,-4.6911,-4.6846,-4.6797,-4.6374,-4.618,-4.605,-4.5662,-4.4965,-4.4156,-4.3443,-4.3039,-4.2813,-4.2699,-4.2602,-4.2602,-4.2602,-4.2634,-4.2665,-4.2602,-4.2634,-4.2728,-4.2821,-4.3082,-4.9235,-4.9194,-4.9021,-4.8955,-4.8955,-4.8955,-4.8841,-4.8661,-4.8646,-4.8646,-4.8646,-4.8604,-4.8646,-4.8604,-4.8553,-4.8281,-4.7742,-4.7511,-4.6757,-4.6357,-4.6388,-4.7142,-4.7681,-4.8296,-4.8219,-4.7865,-4.7727,-4.7311,-4.6742,-4.6126,-4.5818,-4.5372,-4.4425,-4.3547,-4.2925,-4.2217,-4.1463,-4.0997,-4.0951,-4.0966,-4.1043,-4.1447,-4.1678,-4.1771,-4.2294,-4.2571,-4.2709,-4.2848,-4.2833,-4.2817,-4.274,-4.2694,-4.2725,-4.274,-4.2915,-4.3029,-4.32,-4.3299,-4.3374,-4.355,-4.3803,-4.4539,-4.4614,-4.4849,-4.5471,-4.5701,-4.5649,-4.5555,-4.5792,-4.5796,-4.578,-4.5988,-4.6168,-4.6278,-4.6298,-4.6474,-4.6754,-4.6858,-4.6892,-4.6911,-4.6911,-4.6911,-4.6911,-4.6911,-4.6911,-4.6911,-4.6911,-4.6911,-4.6911,-4.6911,-4.6911,-4.6911,-4.6911,-4.6911,-4.6911,-4.6846,-4.6781,-4.6684,-4.6277,-4.5646,-4.4723,-4.4026,-4.3492,-4.3153,-4.3088,-4.2877,-4.2602,-4.2602,-4.2635,-4.2602,-4.2602,-4.2602,-4.2634,-4.2665,-4.2836,-4.8728,-4.8728,-4.8702,-4.8661,-4.8676,-4.8676,-4.8661,-4.8604,-4.8604,-4.8604,-4.8604,-4.8604,-4.8604,-4.8604,-4.8604,-4.8512,-4.8266,-4.785,-4.7127,-4.6588,-4.708,-4.7419,-4.7758,-4.8296,-4.8496,-4.8343,-4.8389,-4.8035,-4.745,-4.7142,-4.688,-4.628,-4.5541,-4.4856,-4.4148,-4.3387,-4.2802,-4.2263,-4.2109,-4.2048,-4.2048,-4.2232,-4.2402,-4.2509,-4.3048,-4.3362,-4.3516,-4.3879,-4.4141,-4.4018,-4.3664,-4.3408,-4.3448,-4.3818,-4.4077,-4.4152,-4.4214,-4.4319,-4.4625,-4.4658,-4.4872,-4.519,-4.5331,-4.5561,-4.5708,-4.5807,-4.5807,-4.5807,-4.5807,-4.5807,-4.5823,-4.6004,-4.606,-4.6116,-4.6207,-4.6298,-4.6439,-4.6547,-4.6703,-4.6842,-4.6876,-4.6911,-4.6911,-4.6911,-4.6911,-4.6911,-4.6911,-4.6911,-4.6911,-4.6911,-4.6911,-4.6911,-4.6911,-4.6911,-4.6911,-4.6911,-4.6911,-4.6911,-4.6651,-4.6374,-4.5451,-4.4852,-4.4415,-4.3962,-4.3557,-4.3282,-4.3104,-4.2732,-4.278,-4.2699,-4.2635,-4.2602,-4.2602,-4.2602,-4.2602,-4.8702,-4.8604,-4.8604,-4.8604,-4.8604,-4.8604,-4.8604,-4.8604,-4.8604,-4.8604,-4.8604,-4.8604,-4.8604,-4.8604,-4.8604,-4.8604,-4.845,-4.7927,-4.7419,-4.7173,-4.7465,-4.7588,-4.7758,-4.8235,-4.8604,-4.8604,-4.8589,-4.8358,-4.8096,-4.7742,-4.7357,-4.705,-4.6403,-4.568,-4.5087,-4.4425,-4.3732,-4.3063,-4.274,-4.2602,-4.2617,-4.2925,-4.3279,-4.3494,-4.3864,-4.4086,-4.4132,-4.4379,-4.4564,-4.4533,-4.4286,-4.4086,-4.4101,-4.4356,-4.4632,-4.4739,-4.4814,-4.4889,-4.5114,-4.5204,-4.5284,-4.5589,-4.5662,-4.5698,-4.5771,-4.5807,-4.5807,-4.5807,-4.5807,-4.5807,-4.5807,-4.5896,-4.5952,-4.5952,-4.6024,-4.6116,-4.6223,-4.6385,-4.6528,-4.6703,-4.6738,-4.6807,-4.6842,-4.6842,-4.6892,-4.6892,-4.6911,-4.6911,-4.6911,-4.6911,-4.6911,-4.6911,-4.6911,-4.6911,-4.6911,-4.6911,-4.6911,-4.6911,-4.6846,-4.6716,-4.6277,-4.5824,-4.5451,-4.4852,-4.4204,-4.4156,-4.3945,-4.346,-4.3088,-4.312,-4.3055,-4.278,-4.2619,-4.2635,-4.2619,-4.8816,-4.8604,-4.8604,-4.8604,-4.8604,-4.8604,-4.8604,-4.8604,-4.8604,-4.8604,-4.8604,-4.8604,-4.8604,-4.8604,-4.8604,-4.8604,-4.845,-4.8142,-4.7788,-4.7804,-4.7819,-4.7881,-4.8004,-4.8343,-4.8604,-4.8604,-4.8604,-4.8558,-4.8404,-4.8096,-4.785,-4.7665,-4.7234,-4.6665,-4.5942,-4.5249,-4.4687,-4.4033,-4.3417,-4.3094,-4.311,-4.3547,-4.4009,-4.4332,-4.4456,-4.4464,-4.4502,-4.4579,-4.461,-4.461,-4.461,-4.461,-4.461,-4.461,-4.461,-4.4625,-4.4739,-4.4889,-4.5055,-4.5167,-4.5352,-4.5698,-4.5625,-4.5625,-4.5735,-4.5771,-4.5771,-4.5807,-4.5807,-4.5807,-4.5807,-4.5823,-4.5807,-4.5807,-4.5807,-4.588,-4.6024,-4.6136,-4.6298,-4.6493,-4.6563,-4.6598,-4.6703,-4.6789,-4.6823,-4.6892,-4.6892,-4.6911,-4.6876,-4.6911,-4.6911,-4.6911,-4.6911,-4.6911,-4.6911,-4.6911,-4.6911,-4.6911,-4.6911,-4.6878,-4.6795,-4.6504,-4.6002,-4.5386,-4.4901,-4.4836,-4.4625,-4.4172,-4.3881,-4.3767,-4.3476,-4.3136,-4.291,-4.2699,-4.2667,-4.862,-4.8604,-4.8604,-4.8604,-4.8604,-4.8604,-4.8604,-4.8604,-4.8604,-4.8604,-4.8604,-4.8604,-4.8604,-4.8604,-4.8604,-4.8604,-4.8558,-4.8373,-4.8358,-4.8358,-4.8358,-4.8358,-4.8389,-4.8481,-4.8604,-4.8604,-4.8604,-4.8604,-4.8589,-4.8481,-4.8327,-4.8373,-4.8235,-4.7804,-4.7188,-4.6588,-4.5772,-4.5095,-4.4418,-4.4048,-4.4132,-4.424,-4.4394,-4.461,-4.461,-4.461,-4.461,-4.461,-4.461,-4.461,-4.461,-4.461,-4.461,-4.461,-4.461,-4.461,-4.4648,-4.4761,-4.4964,-4.5145,-4.5294,-4.5478,-4.5515,-4.5589,-4.5698,-4.5662,-4.5662,-4.5771,-4.5807,-4.5807,-4.5807,-4.5807,-4.5807,-4.5807,-4.5807,-4.5807,-4.588,-4.5916,-4.6044,-4.6262,-4.6333,-4.6404,-4.6493,-4.6598,-4.6649,-4.6703,-4.6772,-4.6807,-4.6842,-4.6876,-4.6911,-4.6911,-4.6911,-4.6911,-4.6911,-4.6911,-4.6911,-4.6911,-4.6911,-4.6911,-4.6894,-4.6894,-4.6522,-4.5905,-4.5565,-4.5451,-4.516,-4.4836,-4.4642,-4.4528,-4.4059,-4.3525,-4.3395,-4.3266,-4.2829,-4.8604,-4.8604,-4.8604,-4.8604,-4.8604,-4.8604,-4.8604,-4.8604,-4.8604,-4.8604,-4.8604,-4.8604,-4.8604,-4.8604,-4.8604,-4.8604,-4.8604,-4.8604,-4.8604,-4.8604,-4.8604,-4.8604,-4.8604,-4.8604,-4.8604,-4.8604,-4.8604,-4.8604,-4.8604,-4.8589,-4.8604,-4.8589,-4.8604,-4.8419,-4.7942,-4.7065,-4.6511,-4.5942,-4.5157,-4.461,-4.461,-4.461,-4.461,-4.461,-4.461,-4.461,-4.461,-4.461,-4.461,-4.461,-4.461,-4.461,-4.461,-4.461,-4.461,-4.461,-4.461,-4.4701,-4.4874,-4.5017,-4.5151,-4.5442,-4.5405,-4.5515,-4.5662,-4.5662,-4.5589,-4.5735,-4.5807,-4.5807,-4.5807,-4.5807,-4.5807,-4.5807,-4.5807,-4.5807,-4.5807,-4.5807,-4.5916,-4.608,-4.6152,-4.6207,-4.6317,-4.6388,-4.6423,-4.6528,-4.6633,-4.6703,-4.6738,-4.6807,-4.6842,-4.6911,-4.6911,-4.6911,-4.6911,-4.6911,-4.6911,-4.6911,-4.6911,-4.6911,-4.6911,-4.6911,-4.6846,-4.6488,-4.6261,-4.6034,-4.5969,-4.5726,-4.5516,-4.5241,-4.4723,-4.4285,-4.4091,-4.3816,-4.3411,-4.8604,-4.8604,-4.8604,-4.8604,-4.8604,-4.8604,-4.8604,-4.8604,-4.8604,-4.8604,-4.8604,-4.8604,-4.8604,-4.8604,-4.8604,-4.8604,-4.8604,-4.8604,-4.8604,-4.8604,-4.8604,-4.8604,-4.8604,-4.8604,-4.8604,-4.8604,-4.8604,-4.8604,-4.8604,-4.8604,-4.8604,-4.8604,-4.8604,-4.8604,-4.8312,-4.745,-4.6911,-4.6234,-4.5464,-4.4825,-4.4641,-4.461,-4.461,-4.461,-4.461,-4.461,-4.461,-4.461,-4.461,-4.461,-4.461,-4.461,-4.461,-4.461,-4.461,-4.461,-4.461,-4.4685,-4.4814,-4.4911,-4.5024,-4.5278,-4.5204,-4.5352,-4.5552,-4.5552,-4.5589,-4.5735,-4.5807,-4.5807,-4.5807,-4.5807,-4.5807,-4.5807,-4.5807,-4.5807,-4.5807,-4.5807,-4.5807,-4.5916,-4.5988,-4.6044,-4.6136,-4.6243,-4.6278,-4.6349,-4.6439,-4.6493,-4.6563,-4.6738,-4.6807,-4.6876,-4.6911,-4.6911,-4.6911,-4.6911,-4.6911,-4.6911,-4.6911,-4.6911,-4.6911,-4.6911,-4.683,-4.6781,-4.6781,-4.6587,-4.6568,-4.652,-4.6228,-4.5856,-4.537,-4.5046,-4.4868,-4.4496,-4.4043,-4.8604,-4.8604,-4.8604,-4.8604,-4.8604,-4.8604,-4.8604,-4.8604,-4.8604,-4.8604,-4.8604,-4.8604,-4.8604,-4.8604,-4.8604,-4.8604,-4.8604,-4.8604,-4.8604,-4.8604,-4.8604,-4.8604,-4.8604,-4.8604,-4.8604,-4.8604,-4.8604,-4.8604,-4.8604,-4.8604,-4.8604,-4.8604,-4.8604,-4.8604,-4.8512,-4.7758,-4.7204,-4.6573,-4.5803,-4.5164,-4.4718,-4.461,-4.461,-4.461,-4.461,-4.461,-4.461,-4.461,-4.461,-4.461,-4.461,-4.461,-4.461,-4.461,-4.461,-4.461,-4.461,-4.4625,-4.4701,-4.4799,-4.4911,-4.5039,-4.4949,-4.5077,-4.5241,-4.5478,-4.5589,-4.5771,-4.5807,-4.5807,-4.5807,-4.5807,-4.5807,-4.5807,-4.5807,-4.5807,-4.5807,-4.5807,-4.5807,-4.5807,-4.588,-4.588,-4.5916,-4.6024,-4.6132,-4.6152,-4.6207,-4.6298,-4.6388,-4.6528,-4.6703,-4.6772,-4.6842,-4.6842,-4.6911,-4.6911,-4.6894,-4.6894,-4.6911,-4.6911,-4.6911,-4.6911,-4.6911,-4.6878,-4.6911,-4.6911,-4.6813,-4.6714,-4.673,-4.6471,-4.6002,-4.5807,-4.5694,-4.5225,-4.469,-4.8604,-4.8604,-4.8604,-4.8604,-4.8604,-4.8604,-4.8604,-4.8604,-4.8604,-4.8604,-4.8604,-4.8604,-4.8604,-4.8604,-4.8604,-4.8604,-4.8604,-4.8604,-4.8604,-4.8604,-4.8604,-4.8604,-4.8604,-4.8604,-4.8604,-4.8604,-4.8604,-4.8604,-4.8604,-4.8604,-4.8604,-4.8604,-4.8604,-4.8604,-4.8558,-4.7942,-4.7265,-4.6496,-4.5618,-4.4949,-4.4687,-4.461,-4.461,-4.461,-4.461,-4.461,-4.461,-4.461,-4.461,-4.461,-4.461,-4.461,-4.461,-4.461,-4.461,-4.461,-4.461,-4.461,-4.461,-4.4685,-4.4761,-4.4836,-4.4799,-4.4836,-4.5039,-4.5331,-4.5515,-4.5625,-4.5735,-4.5771,-4.5807,-4.5807,-4.5807,-4.5807,-4.5807,-4.5807,-4.5807,-4.5807,-4.5807,-4.5807,-4.5807,-4.5807,-4.5807,-4.588,-4.5988,-4.5988,-4.606,-4.6152,-4.6243,-4.6333,-4.6493,-4.6703,-4.6738,-4.6738,-4.6842,-4.6911,-4.6828,-4.6828,-4.6911,-4.6911,-4.6911,-4.6911,-4.6911,-4.6911,-4.6911,-4.6911,-4.6911,-4.6894,-4.6846,-4.6765,-4.6668,-4.6423,-4.6212,-4.5824,-4.5273,-4.8578,-4.8537,-4.8578,-4.8604,-4.8604,-4.8604,-4.8604,-4.8604,-4.8604,-4.8604,-4.8563,-4.8521,-4.8521,-4.8563,-4.8521,-4.8537,-4.8604,-4.8604,-4.8604,-4.8604,-4.8604,-4.8604,-4.8604,-4.8604,-4.8604,-4.8604,-4.8604,-4.8604,-4.8604,-4.8604,-4.8604,-4.8604,-4.8604,-4.8604,-4.8481,-4.8142,-4.7542,-4.6557,-4.5311,-4.4718,-4.461,-4.461,-4.461,-4.461,-4.461,-4.461,-4.461,-4.461,-4.461,-4.461,-4.461,-4.461,-4.461,-4.461,-4.461,-4.461,-4.461,-4.461,-4.461,-4.461,-4.4701,-4.4723,-4.4723,-4.4723,-4.4911,-4.5241,-4.5478,-4.5499,-4.5698,-4.5771,-4.5807,-4.5807,-4.5807,-4.5807,-4.5807,-4.5807,-4.5807,-4.5807,-4.5807,-4.5807,-4.5807,-4.5807,-4.5807,-4.5807,-4.5823,-4.5859,-4.5932,-4.604,-4.6096,-4.6171,-4.6314,-4.6493,-4.6239,-4.6242,-4.6314,-4.6447,-4.6514,-4.6631,-4.6664,-4.6795,-4.6763,-4.6828,-4.6911,-4.6911,-4.6779,-4.6911,-4.6911,-4.6911,-4.6911,-4.6846,-4.6797,-4.6862,-4.6633,-4.6277,-4.5872,-4.8495,-4.8328,-4.8521,-4.8563,-4.8563,-4.8604,-4.8563,-4.8604,-4.8604,-4.8578,-4.8521,-4.8412,-4.8453,-4.8495,-4.8412,-4.8412,-4.8578,-4.8604,-4.8563,-4.8563,-4.8604,-4.8604,-4.8563,-4.8563,-4.8563,-4.8604,-4.8563,-4.8563,-4.8604,-4.8604,-4.8604,-4.8604,-4.8604,-4.8604,-4.8527,-4.8296,-4.7619,-4.6588,-4.5357,-4.4679,-4.4641,-4.461,-4.461,-4.461,-4.461,-4.461,-4.461,-4.461,-4.461,-4.461,-4.461,-4.461,-4.461,-4.461,-4.461,-4.461,-4.461,-4.461,-4.461,-4.461,-4.461,-4.461,-4.461,-4.4648,-4.4836,-4.5055,-4.5294,-4.5442,-4.5625,-4.5787,-4.5787,-4.5807,-4.5807,-4.5807,-4.5807,-4.5807,-4.5807,-4.5807,-4.5807,-4.5807,-4.5807,-4.5807,-4.5807,-4.5807,-4.5807,-4.5823,-4.5823,-4.5916,-4.6004,-4.6096,-4.6187,-4.6166,-4.5757,-4.56,-4.5507,-4.5608,-4.5858,-4.5911,-4.5929,-4.6255,-4.655,-4.6615,-4.6304,-4.6387,-4.6207,-4.6567,-4.6747,-4.6354,-4.6239,-4.673,-4.6911,-4.6911,-4.6911,-4.6633,-4.6293,-4.8286,-4.8118,-4.8218,-4.8286,-4.8396,-4.8427,-4.8495,-4.8563,-4.8604,-4.8537,-4.8412,-4.8328,-4.8286,-4.8202,-4.816,-4.8202,-4.8412,-4.8412,-4.8495,-4.8563,-4.8604,-4.8604,-4.8563,-4.8495,-4.8469,-4.8521,-4.848,-4.8495,-4.8578,-4.8563,-4.8604,-4.8604,-4.8604,-4.8604,-4.8543,-4.8204,-4.7481,-4.6711,-4.5711,-4.5049,-4.4603,-4.461,-4.461,-4.461,-4.461,-4.461,-4.461,-4.461,-4.461,-4.461,-4.461,-4.461,-4.461,-4.461,-4.461,-4.461,-4.461,-4.461,-4.461,-4.461,-4.461,-4.461,-4.461,-4.4663,-4.4761,-4.4927,-4.5092,-4.5278,-4.5515,-4.5677,-4.5771,-4.5807,-4.5807,-4.5807,-4.5807,-4.5807,-4.5807,-4.5807,-4.5807,-4.5807,-4.5807,-4.5807,-4.5807,-4.5807,-4.5807,-4.5807,-4.5807,-4.5823,-4.5896,-4.5968,-4.606,-4.6036,-4.5642,-4.5381,-4.5288,-4.5245,-4.5271,-4.5225,-4.5228,-4.5472,-4.5733,-4.5277,-4.5082,-4.5277,-4.544,-4.5506,-4.5456,-4.5359,-4.5635,-4.6336,-4.6747,-4.6911,-4.6911,-4.6911,-4.6649,-4.8091,-4.788,-4.788,-4.8007,-4.8202,-4.8218,-4.8286,-4.8412,-4.8495,-4.8495,-4.837,-4.8286,-4.816,-4.8076,-4.7922,-4.8007,-4.8175,-4.8202,-4.8328,-4.8412,-4.848,-4.848,-4.8453,-4.8412,-4.8328,-4.8412,-4.837,-4.837,-4.8495,-4.8578,-4.8563,-4.8604,-4.8604,-4.8604,-4.845,-4.7942,-4.7317,-4.677,-4.6003,-4.5434,-4.4949,-4.4702,-4.461,-4.461,-4.461,-4.461,-4.461,-4.461,-4.461,-4.461,-4.461,-4.461,-4.461,-4.461,-4.461,-4.461,-4.461,-4.461,-4.461,-4.461,-4.461,-4.461,-4.461,-4.461,-4.4648,-4.4761,-4.5002,-4.5077,-4.5315,-4.5552,-4.5698,-4.5735,-4.5807,-4.5807,-4.5807,-4.5807,-4.5807,-4.5807,-4.5807,-4.5807,-4.5807,-4.5807,-4.5807,-4.5807,-4.5807,-4.5807,-4.5807,-4.5807,-4.5807,-4.588,-4.588,-4.5825,-4.5623,-4.5396,-4.518,-4.4931,-4.4731,-4.4637,-4.4607,-4.4595,-4.4595,-4.4239,-4.4239,-4.4677,-4.4709,-4.4385,-4.4433,-4.4693,-4.5391,-4.6173,-4.65,-4.6795,-4.6911,-4.6911,-4.6911,-4.7837,-4.7639,-4.7624,-4.7752,-4.7964,-4.8007,-4.8007,-4.8091,-4.8244,-4.837,-4.8412,-4.8175,-4.8091,-4.8076,-4.7752,-4.781,-4.7964,-4.8007,-4.8118,-4.8244,-4.8286,-4.8301,-4.8301,-4.8244,-4.8175,-4.8091,-4.8133,-4.8218,-4.8343,-4.8495,-4.8521,-4.8563,-4.8563,-4.8563,-4.8501,-4.7973,-4.7497,-4.7145,-4.617,-4.5834,-4.5357,-4.4979,-4.481,-4.461,-4.461,-4.461,-4.4534,-4.4572,-4.4572,-4.4534,-4.4572,-4.4572,-4.461,-4.461,-4.461,-4.461,-4.461,-4.461,-4.461,-4.461,-4.461,-4.461,-4.461,-4.461,-4.461,-4.4761,-4.4927,-4.5002,-4.5241,-4.5442,-4.5589,-4.5662,-4.5771,-4.5807,-4.5807,-4.5807,-4.5807,-4.5807,-4.5807,-4.5807,-4.5807,-4.5807,-4.5807,-4.5807,-4.5807,-4.5807,-4.5807,-4.5807,-4.5807,-4.5807,-4.5844,-4.578,-4.5627,-4.5282,-4.4973,-4.444,-4.4175,-4.4116,-4.399,-4.3878,-4.385,-4.3689,-4.3818,-4.4093,-4.3852,-4.3432,-4.3786,-4.4239,-4.4709,-4.513,-4.6272,-4.668,-4.6811,-4.6779,-4.6631,-4.7596,-4.7381,-4.7396,-4.7467,-4.7553,-4.7681,-4.7837,-4.8007,-4.816,-4.816,-4.7992,-4.7922,-4.7794,-4.7639,-4.7553,-4.7553,-4.7724,-4.7752,-4.7837,-4.8091,-4.8091,-4.8091,-4.8091,-4.7964,-4.7922,-4.7922,-4.7964,-4.8049,-4.8328,-4.837,-4.8495,-4.8537,-4.8453,-4.8412,-4.8423,-4.8173,-4.8004,-4.7405,-4.6929,-4.6557,-4.5711,-4.5341,-4.5018,-4.4618,-4.4572,-4.4534,-4.4419,-4.4511,-4.4511,-4.4419,-4.4473,-4.4587,-4.4572,-4.4572,-4.461,-4.461,-4.461,-4.461,-4.461,-4.461,-4.461,-4.461,-4.461,-4.461,-4.461,-4.4648,-4.4761,-4.4927,-4.5129,-4.5331,-4.5478,-4.5662,-4.5787,-4.5823,-4.5807,-4.5807,-4.5807,-4.5807,-4.5807,-4.5807,-4.5807,-4.5807,-4.5807,-4.5807,-4.5807,-4.5807,-4.5807,-4.5807,-4.5807,-4.5807,-4.5807,-4.5807,-4.5649,-4.5238,-4.4847,-4.4522,-4.4177,-4.4069,-4.3609,-4.3099,-4.3071,-4.3154,-4.2836,-4.2805,-4.2644,-4.25,-4.2886,-4.3207,-4.3432,-4.3996,-4.505,-4.5846,-4.5993,-4.5993,-4.5961,-4.7424,-4.7309,-4.7309,-4.7309,-4.7309,-4.7424,-4.7639,-4.7837,-4.8007,-4.7907,-4.7779,-4.7837,-4.7709,-4.7467,-4.7337,-4.7337,-4.751,-4.751,-4.7581,-4.7837,-4.788,-4.788,-4.7794,-4.7709,-4.7681,-4.7709,-4.7709,-4.7794,-4.8007,-4.8133,-4.826,-4.8286,-4.8244,-4.8133,-4.8103,-4.8111,-4.8046,-4.7494,-4.721,-4.6737,-4.5981,-4.5493,-4.5118,-4.4695,-4.4496,-4.4511,-4.4396,-4.4396,-4.4396,-4.432,-4.4358,-4.4511,-4.4511,-4.4572,-4.4572,-4.461,-4.461,-4.461,-4.461,-4.461,-4.461,-4.461,-4.461,-4.461,-4.461,-4.461,-4.4685,-4.4814,-4.5017,-4.5167,-4.5368,-4.5589,-4.5714,-4.5735,-4.5807,-4.5807,-4.5807,-4.5807,-4.5807,-4.5807,-4.5807,-4.5807,-4.5807,-4.5807,-4.5807,-4.5807,-4.5807,-4.5807,-4.5807,-4.5807,-4.5807,-4.5807,-4.5807,-4.5523,-4.5175,-4.4863,-4.4499,-4.4117,-4.3611,-4.3074,-4.2713,-4.2845,-4.2192,-4.1652,-4.1892,-4.202,-4.1907,-4.21,-4.25,-4.2981,-4.3673,-4.4417,-4.4984,-4.5146,-4.5146,-4.7309,-4.7309,-4.7309,-4.7309,-4.7309,-4.7309,-4.7424,-4.7581,-4.7581,-4.7752,-4.7922,-4.7666,-4.7581,-4.7538,-4.7396,-4.7309,-4.7337,-4.7337,-4.7424,-4.7538,-4.7639,-4.7639,-4.7596,-4.7596,-4.751,-4.7424,-4.7467,-4.7596,-4.7639,-4.7922,-4.8049,-4.8049,-4.8007,-4.788,-4.7837,-4.7822,-4.7819,-4.7565,-4.7388,-4.6828,-4.6062,-4.5715,-4.526,-4.4825,-4.4611,-4.4611,-4.4488,-4.4373,-4.4235,-4.4181,-4.4181,-4.4243,-4.4358,-4.4511,-4.4534,-4.461,-4.461,-4.461,-4.461,-4.461,-4.461,-4.461,-4.461,-4.461,-4.461,-4.461,-4.461,-4.4685,-4.4852,-4.5002,-4.5167,-4.5389,-4.5589,-4.5662,-4.5771,-4.5771,-4.5807,-4.5807,-4.5807,-4.5807,-4.5807,-4.5807,-4.5807,-4.5807,-4.5807,-4.5807,-4.5807,-4.5807,-4.5807,-4.5807,-4.5807,-4.5807,-4.5807,-4.5807,-4.5507,-4.5191,-4.5065,-4.478,-4.418,-4.3643,-4.3169,-4.271,-4.2315,-4.1999,-4.1715,-4.1669,-4.17,-4.1685,-4.1732,-4.2227,-4.2805,-4.3335,-4.4045,-4.4207,-4.4239,-4.7309,-4.7309,-4.7309,-4.7309,-4.7309,-4.7309,-4.7352,-4.7381,-4.7538,-4.7581,-4.751,-4.7581,-4.751,-4.7381,-4.7309,-4.7309,-4.7309,-4.7309,-4.7337,-4.7381,-4.7439,-4.7396,-4.7396,-4.7396,-4.7352,-4.7352,-4.7381,-4.7467,-4.7639,-4.788,-4.7964,-4.8007,-4.7794,-4.7681,-4.7581,-4.7553,-4.7553,-4.7593,-4.7537,-4.6895,-4.6405,-4.6168,-4.5555,-4.5072,-4.4961,-4.4961,-4.4852,-4.4464,-4.4264,-4.4111,-4.408,-4.4143,-4.432,-4.4358,-4.4419,-4.4572,-4.461,-4.461,-4.461,-4.461,-4.461,-4.461,-4.461,-4.461,-4.461,-4.461,-4.461,-4.4648,-4.4723,-4.4889,-4.5002,-4.5204,-4.5352,-4.5426,-4.5573,-4.5735,-4.5735,-4.5787,-4.5787,-4.5807,-4.5807,-4.5807,-4.5807,-4.5807,-4.5807,-4.5807,-4.5807,-4.5807,-4.5807,-4.5807,-4.5807,-4.5807,-4.5807,-4.5807,-4.5807,-4.5555,-4.5555,-4.5412,-4.4812,-4.4322,-4.3959,-4.3469,-4.2821,-4.2299,-4.1904,-4.1699,-4.1604,-4.1588,-4.1588,-4.1588,-4.2051,-4.2531,-4.2981,-4.3174,-4.3319,-4.7309,-4.7309,-4.7309,-4.7309,-4.7309,-4.7309,-4.7309,-4.7309,-4.7424,-4.7381,-4.7294,-4.7424,-4.7424,-4.7352,-4.7309,-4.7309,-4.7309,-4.7309,-4.7309,-4.7309,-4.7309,-4.7309,-4.7309,-4.7309,-4.7309,-4.7309,-4.7309,-4.7381,-4.751,-4.7596,-4.7724,-4.7681,-4.751,-4.7495,-4.7467,-4.7396,-4.7381,-4.7467,-4.7385,-4.6864,-4.6543,-4.6418,-4.5874,-4.5273,-4.5282,-4.5449,-4.5293,-4.4819,-4.4413,-4.4174,-4.4128,-4.3988,-4.4205,-4.432,-4.4419,-4.4572,-4.461,-4.461,-4.461,-4.461,-4.461,-4.461,-4.461,-4.461,-4.461,-4.461,-4.461,-4.461,-4.4685,-4.4761,-4.4889,-4.4964,-4.5039,-4.5114,-4.5389,-4.5662,-4.5698,-4.5787,-4.5787,-4.5823,-4.5807,-4.5807,-4.5807,-4.5807,-4.5807,-4.5807,-4.5807,-4.5807,-4.5807,-4.5807,-4.5807,-4.5807,-4.5807,-4.5807,-4.5807,-4.5807,-4.5744,-4.5681,-4.5476,-4.5017,-4.4717,-4.4196,-4.35,-4.2758,-4.2031,-4.1825,-4.162,-4.1604,-4.1588,-4.1588,-4.1588,-4.1988,-4.2259,-4.2308,-4.2387,-4.7309,-4.7309,-4.7309,-4.7309,-4.7309,-4.7309,-4.7309,-4.7309,-4.7309,-4.7309,-4.7309,-4.7309,-4.7309,-4.7309,-4.7309,-4.7309,-4.7309,-4.7309,-4.7309,-4.7309,-4.7309,-4.7309,-4.7309,-4.7309,-4.7309,-4.7309,-4.7309,-4.7309,-4.7309,-4.7396,-4.7439,-4.7309,-4.7352,-4.7352,-4.7352,-4.7309,-4.7352,-4.7352,-4.7231,-4.6809,-4.6044,-4.5905,-4.6075,-4.5137,-4.541,-4.5955,-4.5789,-4.5344,-4.4715,-4.4534,-4.4272,-4.3935,-4.4042,-4.432,-4.4511,-4.4572,-4.4572,-4.461,-4.461,-4.461,-4.461,-4.461,-4.461,-4.461,-4.461,-4.461,-4.461,-4.461,-4.4648,-4.4648,-4.4685,-4.4852,-4.4964,-4.5077,-4.5262,-4.5463,-4.5589,-4.5714,-4.5787,-4.5807,-4.5807,-4.5807,-4.5807,-4.5807,-4.5807,-4.5807,-4.5807,-4.5807,-4.5807,-4.5807,-4.5807,-4.5807,-4.5807,-4.5807,-4.5807,-4.5807,-4.5807,-4.576,-4.5713,-4.5555,-4.5128,-4.467,-4.418,-4.3216,-4.2252,-4.1873,-4.1667,-4.162,-4.1588,-4.1588,-4.1588,-4.1588,-4.1669,-4.1748,-4.1795,-4.7309,-4.7309,-4.7309,-4.7309,-4.7309,-4.7309,-4.7309,-4.7309,-4.7309,-4.7309,-4.7309,-4.7309,-4.7309,-4.7309,-4.7309,-4.7309,-4.7309,-4.7309,-4.7309,-4.7309,-4.7309,-4.7309,-4.7309,-4.7309,-4.7309,-4.7309,-4.7309,-4.7309,-4.7309,-4.7309,-4.7309,-4.7309,-4.7309,-4.7309,-4.7309,-4.7309,-4.7309,-4.7309,-4.7204,-4.6666,-4.5765,-4.6259,-4.6571,-4.5803,-4.5868,-4.6399,-4.6233,-4.5811,-4.5484,-4.5288,-4.4584,-4.4113,-4.3814,-4.4196,-4.4358,-4.4396,-4.4496,-4.4572,-4.461,-4.461,-4.4572,-4.4572,-4.4572,-4.4572,-4.461,-4.461,-4.461,-4.461,-4.4572,-4.4534,-4.4534,-4.4723,-4.4889,-4.5002,-4.5151,-4.5315,-4.5478,-4.5625,-4.5771,-4.5807,-4.5807,-4.5807,-4.5807,-4.5807,-4.5807,-4.5807,-4.5807,-4.5807,-4.5807,-4.5807,-4.5807,-4.5807,-4.5807,-4.5807,-4.5807,-4.5807,-4.5807,-4.5807,-4.5776,-4.5649,-4.5507,-4.4938,-4.4306,-4.3342,-4.2489,-4.2094,-4.1762,-4.162,-4.1588,-4.1588,-4.1588,-4.1588,-4.1588,-4.1685,-4.1636,-4.7309,-4.7309,-4.7309,-4.7309,-4.7309,-4.7309,-4.7309,-4.7309,-4.7309,-4.7309,-4.7309,-4.7309,-4.7309,-4.7309,-4.7309,-4.7309,-4.7309,-4.7309,-4.7309,-4.7309,-4.7309,-4.7309,-4.7309,-4.7309,-4.7309,-4.7309,-4.7309,-4.7309,-4.7309,-4.7309,-4.7309,-4.7309,-4.7309,-4.7309,-4.7309,-4.7309,-4.7309,-4.7309,-4.7309,-4.6696,-4.5843,-4.6531,-4.6576,-4.596,-4.6167,-4.6758,-4.6786,-4.6379,-4.6079,-4.5699,-4.5015,-4.4474,-4.4191,-4.4155,-4.4235,-4.432,-4.4381,-4.4496,-4.4572,-4.4572,-4.4587,-4.4549,-4.4603,-4.4603,-4.4458,-4.4458,-4.4572,-4.461,-4.461,-4.4572,-4.4381,-4.4496,-4.4473,-4.4549,-4.4889,-4.5151,-4.5352,-4.5552,-4.5698,-4.5807,-4.5807,-4.5807,-4.5807,-4.5807,-4.5807,-4.5807,-4.5807,-4.5807,-4.5807,-4.5807,-4.5807,-4.5807,-4.5807,-4.5807,-4.5807,-4.5807,-4.5807,-4.5807,-4.5807,-4.5744,-4.5586,-4.5049,-4.4385,-4.3579,-4.2853,-4.2252,-4.1968,-4.1731,-4.1604,-4.1588,-4.1588,-4.1588,-4.1588,-4.1588,-4.1588,-4.7309,-4.7309,-4.7309,-4.7309,-4.7309,-4.7309,-4.7309,-4.7309,-4.7309,-4.7309,-4.7309,-4.7309,-4.7309,-4.7309,-4.7309,-4.7309,-4.7309,-4.7309,-4.7309,-4.7309,-4.7309,-4.7309,-4.7309,-4.7309,-4.7309,-4.7309,-4.7309,-4.7309,-4.7309,-4.7309,-4.7309,-4.7309,-4.7309,-4.7309,-4.7309,-4.7309,-4.7309,-4.7309,-4.7219,-4.692,-4.683,-4.692,-4.6441,-4.6322,-4.6531,-4.7291,-4.7214,-4.7016,-4.6584,-4.61,-4.5466,-4.4789,-4.4343,-4.4149,-4.4079,-4.4143,-4.4281,-4.4396,-4.4496,-4.4572,-4.4473,-4.4396,-4.4519,-4.4519,-4.4419,-4.4487,-4.4565,-4.4665,-4.4665,-4.4526,-4.4389,-4.4327,-4.4304,-4.4327,-4.4709,-4.5011,-4.5213,-4.5436,-4.562,-4.5782,-4.5798,-4.5798,-4.5834,-4.5834,-4.5834,-4.5818,-4.5803,-4.5823,-4.5807,-4.5807,-4.5807,-4.5807,-4.5807,-4.5807,-4.5807,-4.5807,-4.5807,-4.5807,-4.5807,-4.5807,-4.5713,-4.5349,-4.4812,-4.4034,-4.3374,-4.2726,-4.2126,-4.1794,-4.1699,-4.1588,-4.1588,-4.1588,-4.1588,-4.1588,-4.1588,-4.7309,-4.7309,-4.7309,-4.7309,-4.7309,-4.7309,-4.7309,-4.7309,-4.7309,-4.7309,-4.7309,-4.7309,-4.7309,-4.7309,-4.7309,-4.7309,-4.7309,-4.7309,-4.7309,-4.7309,-4.7309,-4.7309,-4.7309,-4.7309,-4.7309,-4.7309,-4.7309,-4.7309,-4.7309,-4.7309,-4.7309,-4.7309,-4.7309,-4.7309,-4.7309,-4.7309,-4.7309,-4.7309,-4.7234,-4.701,-4.677,-4.677,-4.6785,-4.6756,-4.686,-4.7174,-4.7278,-4.7204,-4.7173,-4.6753,-4.5927,-4.5042,-4.4494,-4.4072,-4.3883,-4.3964,-4.4104,-4.4281,-4.4381,-4.4496,-4.4435,-4.4334,-4.4408,-4.4497,-4.4479,-4.4638,-4.4744,-4.4916,-4.4864,-4.4649,-4.4542,-4.4549,-4.4565,-4.4596,-4.481,-4.4879,-4.497,-4.5279,-4.5509,-4.5682,-4.5766,-4.5819,-4.5856,-4.5856,-4.5835,-4.5803,-4.5777,-4.5761,-4.5783,-4.5793,-4.5803,-4.5823,-4.5787,-4.5807,-4.5807,-4.5807,-4.5807,-4.5807,-4.5807,-4.5807,-4.5807,-4.5792,-4.5238,-4.4433,-4.3797,-4.3232,-4.2663,-4.1904,-4.1683,-4.1588,-4.1588,-4.1588,-4.1588,-4.1588,-4.1588]},{"header":{"parameterUnit":"m.s-1","parameterCategory":1,"la1":31.0,"la2":29.5877,"lo1":-88.7671,"lo2":-86.6584,"dy":0.0162,"dx":0.0185,"nx":115,"ny":88,"refTime":"2023-04-17T06:00:00:Z","depth":0,"parameterNumber":3,"parameterNumberName":"V-component_of_WINDS"},"data":[0.0,0.0,0.0,0.0,0.0,0.0,0.0,0.0,0.0,0.0,0.0,0.0,0.0,0.0,0.0,0.0,0.0,0.0,0.0,0.0,0.0,0.0,0.0,0.0,0.0,0.0,0.0,0.0,0.0,0.0,0.0,0.0,0.0,0.0,0.0,0.0,0.0,0.0,0.0,0.0,0.0,0.0,0.0,0.0,0.0,0.0,0.0,0.0,0.0,0.0,0.0,0.0,0.0,0.0,0.0,0.0,0.0,0.0,0.0,0.0,0.0,0.0,0.0,0.0,0.0,0.0,0.0,0.0,0.0,0.0,0.0,0.0,0.0,0.0,0.0,0.0,0.0,0.0,0.0,0.0,0.0,0.0,0.0,0.0,0.0,0.0,0.0,0.0,0.0,0.0,0.0,0.0,0.0,0.0,0.0,0.0,0.0,0.0,0.0,0.0,0.0,0.0,0.0,0.0,0.0,0.0,0.0,0.0,0.0,0.0,0.0,0.0,0.0,0.0,0.0,0.0,0.0,0.0,0.0,0.0,0.0,0.0,0.0,0.0,0.0,0.0,0.0,0.0,0.0,0.0,0.0,0.0,0.0,0.0,0.0,0.0,0.0,0.0,0.0,0.0,0.0,0.0,0.0,0.0,0.0,0.0,0.0,0.0,0.0,0.0,0.0,0.0,0.0,0.0,0.0,0.0,0.0,0.0,0.0,0.0,0.0,0.0,0.0,0.0,0.0,0.0,0.0,0.0,0.0,0.0,0.0,0.0,0.0,0.0,0.0,0.0,0.0,0.0,0.0,0.0,0.0,0.0,0.0,0.0,0.0,0.0,0.0,0.0,0.0,0.0,0.0,0.0,0.0,0.0,0.0,0.0,0.0,0.0,0.0,0.0,0.0,0.0,0.0,0.0,0.0,0.0,0.0,0.0,0.0,0.0,0.0,0.0,0.0,0.0,0.0,0.0,0.0,0.0,0.0,0.0,0.0,0.0,0.0,0.0,0.0,0.0,0.0,0.0,0.0,0.0,0.0,0.0,0.0,0.0,0.0,0.0,0.0,0.0,0.0,0.0,0.0,0.0,0.0,0.0,0.0,0.0,0.0,0.0,0.0,0.0,0.0,0.0,0.0,0.0,0.0,0.0,0.0,0.0,0.0,0.0,0.0,0.0,0.0,0.0,0.0,0.0,0.0,0.0,0.0,0.0,0.0,0.0,0.0,0.0,0.0,0.0,0.0,0.0,0.0,0.0,0.0,0.0,0.0,0.0,0.0,0.0,0.0,0.0,0.0,0.0,0.0,0.0,0.0,0.0,0.0,0.0,0.0,0.0,0.0,0.0,0.0,0.0,0.0,0.0,0.0,0.0,0.0,0.0,0.0,0.0,0.0,0.0,0.0,0.0,0.0,0.0,0.0,0.0,0.0,0.0,0.0,0.0,0.0,0.0,0.0,0.0,0.0,0.0,0.0,0.0,0.0,0.0,0.0,0.0,0.0,0.0,0.0,0.0,0.0,0.0,0.0,0.0,0.0,0.0,0.0,0.0,0.0,0.0,0.0,0.0,0.0,0.0,0.0,0.0,0.0,0.0,0.0,0.0,0.0,0.0,0.0,0.0,0.0,0.0,0.0,0.0,0.0,0.0,0.0,0.0,0.0,0.0,0.0,0.0,0.0,0.0,0.0,0.0,0.0,0.0,0.0,0.0,0.0,0.0,0.0,0.0,0.0,0.0,0.0,0.0,0.0,0.0,0.0,0.0,0.0,0.0,0.0,0.0,0.0,0.0,0.0,0.0,0.0,0.0,0.0,0.0,0.0,0.0,0.0,0.0,0.0,0.0,0.0,0.0,0.0,0.0,0.0,0.0,0.0,0.0,0.0,0.0,0.0,0.0,0.0,0.0,0.0,0.0,0.0,0.0,0.0,0.0,0.0,0.0,0.0,0.0,0.0,0.0,0.0,0.0,0.0,0.0,0.0,0.0,0.0,0.0,0.0,0.0,0.0,0.0,0.0,0.0,0.0,0.0,0.0,0.0,0.0,0.0,0.0,0.0,0.0,0.0,0.0,0.0,0.0,0.0,0.0,0.0,0.0,0.0,0.0,0.0,0.0,0.0,0.0,0.0,0.0,0.0,0.0,0.0,0.0,0.0,0.0,0.0,0.0,0.0,0.0,0.0,0.0,0.0,0.0,0.0,0.0,0.0,0.0,0.0,0.0,0.0,0.0,0.0,0.0,0.0,0.0,0.0,0.0,0.0,0.0,0.0,0.0,0.0,0.0,0.0,0.0,0.0,0.0,0.0,0.0,0.0,0.0,0.0,0.0,0.0,0.0,0.0,0.0,0.0,0.0,0.0,0.0,0.0,0.0,0.0,0.0,0.0,0.0,0.0,0.0,0.0,0.0,0.0,0.0,0.0,0.0,0.0,0.0,0.0,0.0,0.0,0.0,0.0,0.0,0.0,0.0,0.0,0.0,0.0,0.0,0.0,0.0,0.0,0.0,0.0,0.0,0.0,0.0,0.0,0.0,0.0,0.0,0.0,0.0,0.0,0.0,0.0,0.0,0.0,0.0,0.0,0.0,0.0,0.0,0.0,0.0,0.0,0.0,0.0,0.0,0.0,0.0,0.0,0.0,0.0,0.0,0.0,0.0,0.0,0.0,0.0,0.0,0.0,0.0,0.0,0.0,0.0,0.0,0.0,0.0,0.0,0.0,0.0,0.0,0.0,0.0,0.0,0.0,0.0,0.0,0.0,0.0,0.0,0.0,0.0,0.0,0.0,0.0,0.0,0.0,0.0,0.0,0.0,0.0,0.0,0.0,0.0,0.0,0.0,0.0,0.0,0.0,0.0,0.0,0.0,0.0,0.0,0.0,0.0,0.0,0.0,0.0,0.0,0.0,0.0,0.0,0.0,0.0,0.0,0.0,0.0,0.0,0.0,0.0,0.0,0.0,0.0,0.0,0.0,0.0,0.0,0.0,0.0,0.0,0.0,0.0,0.0,0.0,0.0,0.0,0.0,0.0,0.0,0.0,0.0,0.0,0.0,0.0,0.0,0.0,0.0,0.0,0.0,0.0,0.0,0.0,0.0,0.0,0.0,0.0,0.0,0.0,0.0,0.0,0.0,0.0,0.0,0.0,0.0,0.0,0.0,0.0,0.0,0.0,0.0,0.0,0.0,0.0,0.0,0.0,0.0,0.0,0.0,0.0,0.0,0.0,0.0,0.0,0.0,0.0,0.0,0.0,0.0,0.0,0.0,0.0,0.0,0.0,0.0,0.0,0.0,0.0,0.0,0.0,0.0,0.0,0.0,0.0,0.0,0.0,0.0,0.0,0.0,0.0,0.0,0.0,0.0,0.0,0.0,0.0,0.0,0.0,0.0,0.0,0.0,0.0,0.0,0.0,0.0,0.0,0.0,0.0,0.0,0.0,0.0,0.0,0.0,0.0,0.0,0.0,0.0,0.0,0.0,0.0,0.0,0.0,0.0,0.0,0.0,0.0,0.0,0.0,0.0,0.0,0.0,0.0,0.0,0.0,0.0,0.0,0.0,0.0,0.0,0.0,0.0,0.0,0.0,0.0,0.0,0.0,0.0,0.0,0.0,0.0,0.0,0.0,0.0,0.0,0.0,0.0,0.0,0.0,0.0,0.0,0.0,0.0,0.0,0.0,0.0,0.0,0.0,0.0,0.0,0.0,0.0,0.0,0.0,0.0,0.0,0.0,0.0,0.0,0.0,0.0,0.0,0.0,0.0,0.0,0.0,0.0,0.0,0.0,0.0,0.0,0.0,0.0,0.0,0.0,0.0,0.0,0.0,0.0,0.0,0.0,0.0,0.0,0.0,0.0,0.0,0.0,0.0,0.0,0.0,0.0,0.0,0.0,0.0,0.0,0.0,0.0,0.0,0.0,0.0,0.0,0.0,0.0,0.0,0.0,0.0,0.0,0.0,0.0,0.0,0.0,0.0,0.0,0.0,0.0,0.0,0.0,0.0,0.0,0.0,0.0,0.0,0.0,0.0,0.0,0.0,0.0,0.0,0.0,0.0,0.0,0.0,0.0,0.0,0.0,0.0,0.0,0.0,0.0,0.0,0.0,0.0,0.0,0.0,0.0,0.0,0.0,0.0,0.0,0.0,0.0,0.0,0.0,0.0,0.0,0.0,0.0,0.0,0.0,0.0,0.0,0.0,0.0,0.0,0.0,0.0,0.0,0.0,0.0,0.0,0.0,0.0,0.0,0.0,0.0,0.0,0.0,0.0,0.0,0.0,0.0,0.0,0.0,0.0,0.0,0.0,0.6735,0.0,0.0,0.0,0.0,0.0,0.0,0.0,0.0,0.0,0.0,0.0,0.0,0.0,0.0,0.0,0.0,0.0,0.0,0.0,0.0,0.0,0.0,0.0,0.0,0.0,0.0,0.0,0.0,0.0,0.0,0.0,0.0,0.0,0.0,0.0,0.0,0.0,0.0,0.0,0.0,0.0,0.0,0.0,0.0,0.0,0.0,0.0,0.0,0.0,0.0,0.0,0.0,0.0,0.0,0.0,0.0,0.0,0.0,0.0,0.0,0.0,0.0,0.0,0.0,0.0,0.0,0.0,0.0,0.0,0.0,0.0,0.0,0.0,0.0,0.0,0.0,0.0,0.0,0.0,0.0,0.0,0.0,0.0,0.0,0.0,0.0,0.0,0.0,0.0,0.0,0.0,0.0,0.0,0.0,0.0,0.0,0.0,0.0,0.0,0.0,0.0,0.0,0.0,0.0,0.0,0.0,0.0,0.0,0.0,0.0,0.8134,0.7815,0.7567,0.7305,0.704,0.0,0.0,0.0,0.0,0.0,0.0,0.0,0.0,0.0,0.0,0.0,0.0,0.0,0.0,0.0,0.0,0.0,0.0,0.0,0.0,0.0,0.0,0.0,0.0,0.0,0.0,0.0,0.0,0.0,0.0,0.0,0.0,0.0,0.0,0.0,0.0,0.0,0.0,0.0,0.0,0.0,0.0,0.0,0.0,0.0,0.0,0.0,0.0,0.0,0.0,0.0,0.0,0.0,0.0,0.0,0.0,0.0,0.0,0.0,0.0,0.0,0.0,0.0,0.0,0.0,0.0,0.0,0.0,0.0,0.0,0.0,0.0,0.0,0.0,0.0,0.0,0.0,0.0,0.0,0.0,0.0,0.0,0.0,0.0,0.0,0.0,0.0,0.0,0.0,0.0,0.0,0.0,0.0,0.0,0.0,0.0,0.0,0.0,0.0,0.0,0.0,0.0,0.0,0.0,0.0,0.0,0.0,0.0,0.0,0.0,0.0,0.0,0.7878,0.7624,0.7431,0.0,0.0,0.0,0.0,0.0,0.0,0.0,0.0,0.0,0.0,0.0,0.0,0.0,0.0,0.0,0.0,0.0,0.0,0.0,0.0,0.0,0.0,0.0,0.0,0.0,0.0,0.0,0.0,0.0,0.0,0.0,0.0,0.0,0.0,0.0,0.0,0.0,0.0,0.0,0.0,0.0,0.0,0.0,0.0,0.0,0.0,0.0,0.0,0.0,0.0,0.0,0.0,0.0,0.0,0.0,0.0,0.0,0.0,0.0,0.0,0.0,0.0,0.0,0.0,0.0,0.0,0.0,0.0,0.0,0.0,0.0,0.0,0.0,0.0,0.0,0.0,0.0,0.0,0.0,0.0,0.0,0.0,0.0,0.0,0.0,0.0,0.0,0.0,0.0,0.0,0.0,0.0,0.0,0.0,0.0,0.0,0.0,0.0,0.0,0.0,0.0,0.0,0.0,0.0,0.0,0.0,0.0,0.0,0.0,0.0,0.9051,0.8665,0.8449,0.0,0.7768,0.0,0.0,0.0,0.0,0.0,0.0,0.0,0.0,0.0,0.0,0.0,0.0,0.0,0.0,0.0,0.0,0.0,0.0,0.0,0.0,0.0,0.0,0.0,0.0,0.0,0.0,0.0,0.0,0.0,0.0,0.0,0.0,0.0,0.0,0.0,0.0,0.0,0.0,0.0,0.0,0.0,0.0,0.0,0.0,0.0,0.0,0.0,0.0,0.0,0.0,0.0,0.0,0.0,0.0,0.0,0.0,0.0,0.0,0.0,0.0,0.0,0.0,0.0,0.0,0.0,0.0,0.0,0.0,0.0,0.0,0.0,0.0,0.0,0.0,0.0,0.0,0.0,0.0,0.0,0.0,0.0,0.0,0.0,0.0,0.0,0.0,0.0,0.0,0.0,0.0,0.0,0.0,0.0,0.0,0.0,0.0,0.0,0.0,0.0,0.0,0.0,0.0,0.0,0.0,0.0,0.0,0.0,0.0,0.0,0.0,0.9392,0.9236,0.8807,0.849,0.0,0.0,0.0,0.0,0.0,0.0,0.0,0.0,0.0,0.0,0.0,0.0,0.0,0.0,0.0,0.0,0.0,0.0,0.0,0.0,0.0,0.0,0.0,0.0,0.0,0.0,0.0,0.0,0.0,0.0,0.0,0.0,0.0,0.0,0.0,0.0,0.0,0.0,0.0,0.0,0.0,0.0,0.0,0.0,0.0,0.0,0.0,0.0,0.0,0.0,0.0,0.0,0.0,0.0,0.0,0.0,0.0,0.0,0.0,0.0,0.0,0.0,0.0,0.0,0.0,0.0,0.0,0.0,0.0,0.0,0.0,0.0,0.0,0.0,0.0,0.0,0.0,0.0,0.0,0.0,0.0,0.0,0.0,0.0,0.0,0.0,0.0,0.0,0.0,0.0,0.0,0.0,0.0,0.0,0.0,0.0,0.0,0.0,0.0,0.0,0.0,0.0,0.0,0.0,0.0,0.0,0.0,0.0,0.0,0.0,0.9916,0.9777,0.9638,0.9179,0.8871,0.8827,0.0,0.0,0.0,0.0,0.0,0.0,0.0,0.0,0.0,0.0,0.0,0.0,0.0,0.0,0.0,0.0,0.0,0.0,0.0,0.0,0.0,0.0,0.0,0.0,0.0,0.0,0.0,0.0,0.0,0.0,0.0,0.0,0.0,0.0,0.0,0.0,0.0,0.0,0.0,0.0,0.0,0.0,0.0,0.0,0.0,0.0,0.0,0.0,0.0,0.0,0.0,0.0,0.0,0.0,0.0,0.0,0.0,0.0,0.0,0.0,0.0,0.0,0.0,0.0,0.0,0.0,0.0,0.0,0.0,0.0,0.0,0.0,0.0,0.0,0.0,0.0,0.0,0.0,0.0,0.0,0.0,0.0,0.0,0.0,0.0,0.0,0.0,0.0,0.0,0.0,0.0,0.0,0.0,0.0,0.0,0.0,0.0,0.0,0.0,0.0,0.0,0.0,0.0,0.0,0.0,0.0,0.0,0.0,1.0475,1.0481,1.0256,0.9818,0.9572,0.9384,0.0,0.0,0.0,0.0,0.0,0.0,0.0,0.0,0.0,0.0,0.0,0.0,0.0,0.0,0.0,0.0,0.0,0.0,0.0,0.0,0.0,0.0,0.0,0.0,0.0,0.0,0.0,0.0,0.0,0.0,0.0,0.0,0.0,0.0,0.0,0.0,0.0,0.0,0.0,0.0,0.0,0.0,0.0,0.0,0.0,0.0,0.0,0.0,0.0,0.0,0.0,0.0,0.0,0.0,0.0,0.0,0.0,0.0,0.0,0.0,0.0,0.0,0.0,0.0,0.0,0.0,0.0,0.0,0.0,0.0,0.0,0.0,0.0,0.0,0.0,0.0,0.0,0.0,0.0,0.0,0.0,0.0,0.0,0.0,0.0,0.0,0.0,0.0,0.0,0.0,0.0,0.0,0.0,0.0,0.0,0.0,0.0,0.0,0.0,0.0,0.0,0.0,0.0,0.0,0.0,0.0,0.0,0.0,0.0,1.1074,1.0807,1.051,1.0195,1.0002,0.9749,0.0,0.0,0.0,0.0,0.0,0.0,0.0,0.0,0.0,0.0,0.0,0.0,0.0,0.0,0.0,0.0,0.0,0.0,0.0,0.0,0.0,0.0,0.0,0.0,0.0,0.0,0.0,0.0,0.0,0.0,0.0,0.0,0.0,0.0,0.0,0.0,0.0,0.0,0.0,0.0,0.0,0.0,0.0,0.0,0.0,0.0,0.0,0.0,0.0,0.0,0.0,0.0,0.0,0.0,0.0,0.0,0.0,0.0,0.0,0.0,0.0,0.0,0.0,0.0,0.0,0.0,0.0,0.0,0.0,0.0,0.0,0.0,0.0,0.0,0.0,0.0,0.0,0.0,0.0,0.0,0.0,0.0,0.0,0.0,0.0,0.0,0.0,0.0,0.0,0.0,0.0,0.0,0.0,0.0,0.0,0.0,0.0,0.0,0.0,0.0,0.0,0.0,0.0,0.0,0.0,0.0,0.0,0.0,0.0,1.1484,0.0,1.0948,1.0701,1.0498,1.0213,0.0,0.0,0.0,0.0,0.0,0.0,0.0,0.0,0.0,0.0,0.0,0.0,0.0,0.0,0.0,0.0,0.0,0.0,0.0,0.0,0.0,0.0,0.0,0.0,0.0,0.0,0.0,0.0,0.0,0.0,0.0,0.0,0.0,0.0,0.0,0.0,0.0,0.0,0.0,0.0,0.0,0.0,0.0,0.0,0.0,0.0,0.0,0.0,0.0,0.0,0.0,0.0,0.0,0.0,0.0,0.0,0.0,0.0,0.0,0.0,0.0,0.0,0.0,0.0,0.0,0.0,0.0,0.0,0.0,0.0,0.0,0.0,0.0,0.0,0.0,0.0,0.0,0.0,0.0,0.0,0.0,0.0,0.0,0.0,0.0,0.0,0.0,0.0,0.0,0.0,0.0,0.0,0.0,0.0,0.0,0.0,0.0,0.0,0.0,0.0,0.0,0.0,0.0,0.0,0.0,0.0,0.0,0.0,1.1706,1.1706,1.1706,1.1536,1.1299,1.1045,1.0789,0.0,0.0,0.0,0.0,0.0,0.0,0.0,0.0,0.0,0.0,0.0,0.0,0.0,0.0,0.0,0.0,0.0,0.0,0.0,0.0,0.0,0.0,0.0,0.0,0.0,0.0,0.0,0.0,0.0,0.0,0.0,0.0,0.0,0.0,0.0,0.0,0.0,0.0,0.0,0.0,0.0,0.0,0.0,0.0,0.0,0.0,0.0,0.0,0.0,0.0,0.0,0.0,0.0,0.0,0.0,0.0,0.0,0.0,0.0,0.0,0.0,0.0,0.0,0.0,0.0,0.0,0.0,0.0,0.0,0.0,0.0,0.0,0.0,0.0,0.0,0.0,0.0,0.0,0.0,0.0,0.0,0.0,0.0,0.0,0.0,0.0,0.0,0.0,0.0,0.0,0.0,0.0,0.0,0.0,0.0,0.0,0.0,0.0,0.0,0.0,0.0,0.0,0.0,0.0,0.0,0.0,0.0,0.0,0.0,1.212,1.1855,1.1646,1.1485,1.1281,1.1112,0.0,0.0,0.0,0.0,0.0,0.0,0.0,0.0,0.0,0.0,0.0,0.0,0.0,0.0,0.0,0.0,0.0,0.0,0.0,0.0,0.0,0.0,0.0,0.0,0.0,0.0,0.0,0.0,0.0,0.0,0.0,0.0,0.0,0.0,0.0,0.0,0.0,0.0,0.0,0.0,0.0,0.0,0.0,0.0,0.0,0.0,0.0,0.0,0.0,0.0,0.0,0.0,0.0,0.0,0.0,0.0,0.0,0.0,0.0,0.0,0.0,0.0,0.0,0.0,0.0,0.0,0.0,0.0,0.0,0.0,0.0,0.0,0.0,0.0,0.0,0.0,0.0,0.0,0.0,0.0,0.0,0.0,0.0,0.0,0.0,0.0,0.0,0.0,0.0,0.0,0.0,0.0,0.0,0.0,0.0,0.0,0.0,0.0,0.0,0.0,0.0,0.0,0.0,0.0,0.0,0.0,0.0,0.0,0.0,1.2859,1.2556,1.2319,1.2186,1.2,1.1722,1.1471,0.0,0.0,0.0,0.0,0.0,0.0,0.0,0.0,0.0,0.0,0.0,0.0,0.0,0.0,0.0,0.0,0.0,0.0,0.0,0.0,0.0,0.0,0.0,0.0,0.0,0.0,0.0,0.0,0.0,0.0,0.0,0.0,0.0,0.0,0.0,0.0,0.0,0.0,0.0,0.0,0.0,0.0,0.0,0.0,0.0,0.0,0.0,0.0,0.0,0.0,0.0,0.0,0.0,0.0,0.0,0.0,0.0,0.0,0.0,0.0,0.0,0.0,0.0,0.0,0.0,0.0,0.0,0.0,0.0,0.0,0.0,0.0,0.0,0.0,0.0,0.0,0.0,0.0,0.0,0.0,0.0,0.0,0.0,0.0,0.0,0.0,0.0,0.0,0.0,0.0,0.0,0.0,0.0,0.0,0.0,0.0,0.0,0.0,0.0,0.0,0.0,0.0,0.0,0.0,0.0,0.0,0.0,0.0,1.3847,1.367,1.3472,1.3247,1.2971,1.2587,0.0,0.0,0.0,0.0,0.0,0.0,0.0,0.0,0.0,0.0,0.0,0.0,0.0,0.0,0.0,0.0,0.0,0.0,0.0,0.0,0.0,0.0,0.0,0.0,0.0,0.0,0.0,0.0,0.0,0.0,0.0,0.0,0.0,0.0,0.0,0.0,0.0,0.0,0.0,0.0,0.0,0.0,0.0,0.0,0.0,0.0,0.0,0.0,0.0,0.0,0.0,0.0,0.0,0.0,0.0,0.0,0.0,0.0,0.0,0.0,0.0,0.0,0.0,0.0,0.0,0.0,0.0,0.0,0.0,0.0,0.0,0.0,0.0,0.0,0.0,0.0,0.0,0.0,0.0,0.0,0.0,0.0,0.0,0.0,0.0,0.0,0.0,0.0,0.0,0.0,0.0,0.0,0.0,0.0,0.0,0.0,0.0,0.0,0.0,0.0,0.0,0.0,0.0,0.0,0.0,0.0,0.0,0.0,0.0,1.4719,1.4763,1.446,1.3868,1.3507,1.3272,0.0,0.0,0.0,0.0,0.0,0.0,0.0,0.0,0.0,0.0,0.0,0.0,0.0,0.0,0.0,0.0,0.0,0.0,0.0,0.0,0.0,0.0,0.0,0.0,0.0,0.0,0.0,0.0,0.0,0.0,0.0,0.0,0.0,0.0,0.0,0.0,0.0,0.0,0.0,0.0,0.0,0.0,0.0,0.0,0.0,0.0,0.0,0.0,0.0,0.0,0.0,0.0,0.0,0.0,0.0,0.0,0.0,0.0,0.0,0.0,0.0,0.0,0.0,0.0,0.0,0.0,0.0,0.0,0.0,0.0,0.0,0.0,0.0,0.0,0.0,0.0,0.0,0.0,0.0,0.0,0.0,0.0,0.0,0.0,0.0,0.0,0.0,0.0,0.0,0.0,0.0,0.0,0.0,0.0,0.0,0.0,0.0,0.0,0.0,0.0,0.0,0.0,0.0,0.0,0.0,0.0,0.0,0.0,1.5189,1.5734,1.6202,1.6197,1.5796,1.4546,1.3762,0.0,0.0,0.0,0.0,0.0,0.0,0.0,0.0,0.0,0.0,0.0,0.0,0.0,0.0,0.0,0.0,0.0,0.0,0.0,0.0,0.0,0.0,0.0,0.0,0.0,0.0,0.0,0.0,0.0,0.0,0.0,0.0,0.0,0.0,0.0,0.0,0.0,0.0,0.0,0.0,0.0,0.0,0.0,0.0,0.0,0.0,0.0,0.0,0.0,0.0,0.0,0.0,0.0,0.0,0.0,0.0,0.0,0.0,0.0,0.0,0.0,0.0,0.0,0.0,0.0,0.0,0.0,0.0,0.0,0.0,0.0,0.0,0.0,0.0,0.0,0.0,0.0,0.0,0.0,0.0,0.0,0.0,0.0,0.0,0.0,0.0,0.0,0.0,0.0,0.0,0.0,0.0,0.0,0.0,0.0,0.0,0.0,0.0,0.0,0.0,0.0,0.0,0.0,0.0,0.0,0.0,0.0,0.0,1.635,1.676,1.7636,1.8087,1.8048,1.5792,1.4331,0.0,0.0,0.0,0.0,0.0,0.0,0.0,0.0,0.0,0.0,0.0,0.0,0.0,0.0,0.0,0.0,0.0,0.0,0.0,0.0,0.0,0.0,0.0,0.0,0.0,0.0,0.0,0.0,0.0,0.0,0.0,0.0,0.0,0.0,0.0,0.0,0.0,0.0,0.0,0.0,0.0,0.0,0.0,0.0,0.0,0.0,0.0,0.0,0.0,0.0,0.0,0.0,0.0,0.0,0.0,0.0,0.0,0.0,0.0,0.0,0.0,0.0,0.0,0.0,0.0,0.0,0.0,0.0,0.0,0.0,0.0,0.0,0.0,0.0,0.0,0.0,0.0,0.0,0.0,0.0,0.0,0.0,0.0,0.0,0.0,0.0,0.0,0.0,0.0,0.0,0.0,0.0,0.0,0.0,0.0,0.0,0.0,0.0,0.0,0.0,0.0,0.0,0.0,0.0,0.0,0.0,0.0,0.0,1.706,1.7702,1.7964,1.8087,1.8079,1.6573,1.5688,0.0,0.0,0.0,0.0,0.0,0.0,0.0,0.0,0.0,0.0,0.0,0.0,0.0,0.0,0.0,0.0,0.0,0.0,0.0,0.0,0.0,0.0,0.0,0.0,0.0,0.0,0.0,0.0,0.0,0.0,0.0,0.0,0.0,0.0,0.0,0.0,0.0,0.0,0.0,0.0,0.0,0.0,0.0,0.0,0.0,0.0,0.0,0.0,0.8454,0.0,0.0,0.0,0.0,0.0,0.0,0.0,0.0,0.0,0.0,0.0,0.0,0.0,0.0,0.0,0.0,0.0,0.0,0.0,0.0,0.0,0.0,0.0,0.0,0.0,0.0,0.0,0.0,0.0,0.0,0.0,0.0,0.0,0.0,0.0,0.0,0.0,0.0,0.0,0.0,0.0,0.0,0.0,0.0,0.0,0.0,0.0,0.0,0.0,0.0,0.0,0.0,0.0,0.0,0.0,0.0,0.0,0.0,0.0,1.8102,1.8637,1.8956,1.9142,1.9101,1.804,1.6988,0.0,0.0,0.0,0.0,0.0,0.0,0.0,0.0,0.0,0.0,0.0,0.0,0.0,0.0,0.0,0.0,0.0,0.0,0.0,0.0,0.0,0.0,0.0,0.0,0.0,0.0,0.0,0.0,0.0,0.0,0.0,0.0,0.0,0.0,0.0,0.0,0.0,0.0,0.0,0.0,0.0,0.0,0.0,0.0,0.0,0.0,0.0,0.0,0.0,0.0,0.0,0.0,0.0,0.0,0.0,0.0,0.0,0.0,0.0,0.0,0.0,0.0,0.0,0.0,0.0,0.0,0.0,0.0,0.0,0.0,0.0,0.0,0.0,0.0,0.0,0.0,0.0,0.0,0.0,0.0,0.0,0.0,0.0,0.0,0.0,0.0,0.0,0.0,0.0,0.0,0.0,0.0,0.0,0.0,0.0,0.0,0.0,0.0,0.0,0.0,0.0,0.0,0.0,0.0,0.0,0.0,0.0,1.8423,1.9253,1.9538,2.0039,2.0292,2.0283,1.9535,1.8242,1.6399,0.0,0.0,0.0,0.0,0.0,0.0,0.0,0.0,0.0,0.0,0.0,0.0,0.0,0.0,0.0,0.0,0.0,0.0,0.0,0.0,0.0,0.0,0.0,0.0,0.0,0.0,0.0,0.0,0.0,0.0,0.0,0.0,0.0,0.0,0.0,0.0,0.0,0.0,0.9724,0.9851,0.0,0.0,0.0,0.0,0.0,0.0,0.0,0.0,0.8903,0.0,0.0,0.0,0.0,0.0,0.0,0.0,0.0,0.0,0.0,0.0,0.0,0.0,0.0,0.0,0.0,0.0,0.0,0.0,0.0,0.0,0.0,0.0,0.0,0.0,0.0,0.0,0.0,0.0,0.0,0.0,0.0,0.0,0.0,0.0,0.0,0.0,0.0,0.0,0.0,0.0,0.0,0.0,0.0,0.0,0.0,0.0,0.0,0.0,0.0,0.0,0.0,0.0,0.0,0.0,0.0,1.7825,1.9195,1.9954,2.0144,2.0257,2.0292,2.0292,2.0127,1.92,1.7352,0.0,0.0,0.0,0.0,0.0,0.0,0.0,0.0,0.0,0.0,0.0,0.0,0.0,0.0,0.0,0.0,0.0,0.0,0.0,0.0,0.0,0.0,0.0,0.0,0.0,0.0,0.0,0.0,0.0,0.0,0.0,0.0,0.0,0.0,0.0,0.0,0.0,0.0,0.0,1.0504,1.0452,0.0,0.0,0.0,0.0,0.0,0.0,0.0,0.0,0.9569,0.0,0.0,0.0,0.0,0.0,0.0,0.0,0.0,0.0,0.0,0.0,0.0,0.0,0.0,0.0,0.0,0.0,0.0,0.0,0.0,0.0,0.0,0.0,0.0,0.0,0.0,0.0,0.0,0.0,0.0,0.0,0.0,0.0,0.0,0.0,0.0,0.0,0.0,0.0,0.0,0.0,0.0,0.0,0.0,0.0,0.0,0.0,0.0,0.0,0.0,0.0,0.0,0.0,0.0,0.0,1.8244,1.9523,2.0247,2.0283,2.0292,2.0292,2.0292,2.0428,1.9816,0.0,0.0,0.0,0.0,0.0,0.0,0.0,0.0,0.0,0.0,0.0,0.0,0.0,0.0,0.0,0.0,0.0,0.0,0.0,0.0,0.0,0.0,0.0,0.0,0.0,0.0,0.0,0.0,0.0,0.0,0.0,0.0,0.0,0.0,0.0,0.0,0.0,0.0,0.0,0.0,1.1616,1.1976,1.2419,0.0,0.0,0.0,0.0,0.0,0.0,1.0722,1.0213,0.0,0.0,0.0,0.0,0.0,0.0,0.0,0.0,0.0,0.0,0.0,0.0,0.0,0.0,0.0,0.0,0.0,0.0,0.0,0.0,0.0,0.0,0.0,0.0,0.0,0.0,0.0,0.0,0.0,0.0,0.0,0.0,0.0,0.0,0.0,0.0,0.0,0.0,0.0,0.0,0.0,0.0,0.0,0.0,0.0,0.0,0.0,0.0,0.0,0.0,0.0,0.0,0.0,0.0,0.0,1.8778,1.9963,2.0526,2.042,2.0412,2.0377,2.0292,2.0564,2.0114,0.0,0.0,0.0,0.0,0.0,0.0,0.0,0.0,0.0,0.0,0.0,0.0,0.0,0.0,0.0,0.0,0.0,0.0,0.0,0.0,0.0,0.0,0.0,0.0,0.0,0.0,0.0,0.0,0.0,0.0,0.0,0.0,0.0,0.0,0.0,0.0,0.0,0.0,0.0,0.0,0.0,1.3401,1.3887,1.3208,0.0,0.0,0.0,0.0,1.1349,1.14,0.0,0.0,0.0,0.0,0.0,0.0,0.0,0.0,0.0,0.0,0.0,0.0,0.0,0.0,0.0,0.0,0.0,0.0,0.0,0.0,0.0,0.0,0.0,0.0,0.0,0.0,0.0,0.0,0.0,0.0,0.0,0.0,0.0,0.0,0.0,0.0,0.0,0.0,0.0,0.0,0.0,0.0,0.0,0.0,0.0,0.0,0.0,0.0,0.0,0.0,0.0,0.0,0.0,0.0,0.0,0.0,2.0209,2.1147,2.1367,2.0878,2.0814,2.0698,2.03,2.0564,2.007,0.0,0.0,0.0,0.0,0.0,0.0,0.0,0.0,0.0,0.0,0.0,0.0,0.0,0.0,0.0,0.0,0.0,0.0,0.0,0.0,0.0,0.0,0.0,0.0,0.0,0.0,0.0,0.0,0.0,0.0,0.0,0.0,0.0,0.0,0.0,0.0,0.0,0.0,0.0,0.0,0.0,1.3908,1.454,1.3957,1.3323,0.0,0.0,1.37,1.2804,1.3287,0.0,0.0,0.0,0.0,0.0,0.0,0.0,0.0,0.0,0.0,0.0,0.0,0.0,0.0,0.0,0.0,0.0,0.0,0.0,0.0,0.0,0.0,0.0,0.0,0.0,0.0,0.0,0.0,0.0,0.0,0.0,0.0,0.0,0.0,0.0,0.0,0.0,0.0,0.0,0.0,0.0,0.0,0.0,0.0,0.0,0.0,0.0,0.0,0.0,0.0,0.0,0.0,0.0,0.0,0.0,2.0236,2.057,2.1249,2.1432,2.1182,2.0977,2.0797,2.0634,2.0921,2.0571,0.0,0.0,0.0,0.0,0.0,0.0,0.0,0.0,0.0,0.0,0.0,0.0,0.0,0.0,0.0,0.0,0.0,0.0,0.0,0.0,0.0,0.0,0.0,0.0,0.0,0.0,0.0,0.0,0.0,0.0,0.0,0.0,0.0,0.0,0.0,0.0,0.0,0.0,0.0,0.0,0.0,0.0,1.5349,1.5005,0.0,0.0,0.0,1.3973,1.3174,0.0,0.0,0.0,0.0,0.0,0.0,0.0,0.0,0.0,0.0,0.0,0.0,0.0,0.0,0.0,0.0,0.0,0.0,0.0,0.0,0.0,0.0,0.0,0.0,0.0,0.0,0.0,0.0,0.0,0.0,0.0,0.0,0.0,0.0,0.0,0.0,0.0,0.0,0.0,0.0,0.0,0.0,0.0,0.0,0.0,0.0,0.0,0.0,0.0,0.0,0.0,0.0,0.0,0.0,0.0,0.0,0.0,2.1611,2.2173,2.2446,2.23,2.2073,2.1842,2.1646,2.1943,0.0,0.0,0.0,0.0,0.0,0.0,0.0,0.0,0.0,0.0,0.0,0.0,0.0,0.0,0.0,0.0,0.0,0.0,0.0,0.0,0.0,0.0,0.0,0.0,0.0,0.0,0.0,1.2902,0.0,0.0,0.0,0.0,0.0,0.0,0.0,0.0,0.0,0.0,0.0,0.0,0.0,0.0,1.5554,1.5812,1.567,1.5636,0.0,0.0,1.4305,1.3765,1.4543,1.4469,0.0,0.0,0.0,0.0,0.0,0.0,0.0,0.0,0.0,0.0,0.0,0.0,0.0,0.0,0.0,0.0,0.0,0.0,0.0,0.0,0.0,0.0,0.0,0.0,0.0,0.0,0.0,0.0,0.0,0.0,0.0,0.0,0.0,0.0,0.0,0.0,0.0,0.0,0.0,0.0,0.0,0.0,0.0,0.0,0.0,0.0,0.0,0.0,0.0,0.0,0.0,0.0,0.0,0.0,0.0,2.4159,2.4984,2.5179,2.4858,2.4857,2.4421,2.3654,2.3865,2.3355,0.0,0.0,0.0,0.0,0.0,0.0,0.0,0.0,0.0,0.0,0.0,0.0,0.0,0.0,0.0,0.0,0.0,0.0,0.0,0.0,0.0,0.0,0.0,0.0,0.0,0.0,0.0,0.0,0.0,0.0,0.0,0.0,0.0,0.0,0.0,0.0,0.0,0.0,0.0,0.0,0.0,1.5686,1.571,1.5541,1.5834,0.0,0.0,1.533,1.5345,1.6194,1.5935,1.3077,0.0,0.0,0.0,0.0,0.0,0.0,0.0,0.0,0.0,0.0,0.0,0.0,0.0,0.0,0.0,0.0,0.0,0.0,0.0,0.0,0.0,0.0,0.0,0.0,0.0,0.0,0.0,0.0,0.0,0.0,0.0,0.0,0.0,0.0,0.0,0.0,0.0,0.0,0.0,0.0,0.0,0.0,0.0,0.0,0.0,0.0,0.0,0.0,0.0,0.0,0.0,0.0,0.0,2.4191,2.4664,2.533,2.5624,2.5458,2.5251,2.4957,2.4597,2.4476,2.3929,0.0,0.0,0.0,0.0,0.0,0.0,0.0,0.0,0.0,0.0,0.0,0.0,0.0,0.0,0.0,0.0,0.0,0.0,0.0,0.0,0.0,0.0,0.0,0.0,0.0,0.0,0.0,0.0,1.5975,1.5893,1.5201,0.0,0.0,0.0,0.0,0.0,0.0,0.0,0.0,0.0,0.0,1.5743,1.6653,1.6726,0.0,0.0,1.6846,1.6157,1.5418,1.5843,1.539,1.2967,1.2337,0.0,0.0,0.0,0.0,0.0,0.0,0.0,0.0,0.0,0.0,0.0,0.0,0.0,0.0,0.0,0.0,0.0,0.0,0.0,0.0,0.0,0.0,0.0,0.0,0.0,0.0,0.0,0.0,0.0,0.0,0.0,0.0,0.0,0.0,0.0,0.0,0.0,0.0,0.0,0.0,0.0,0.0,0.0,0.0,0.0,0.0,0.0,0.0,0.0,0.0,0.0,0.0,2.5062,2.5351,2.6192,2.6617,2.6617,2.6371,2.6148,2.5959,2.569,2.5146,0.0,0.0,0.0,0.0,0.0,0.0,0.0,0.0,0.0,0.0,0.0,0.0,0.0,0.0,0.0,0.0,0.0,0.0,0.0,0.0,0.0,0.0,0.0,0.0,0.0,0.0,0.0,0.0,1.6803,1.6639,1.5774,0.0,0.0,0.0,0.0,0.0,0.0,0.0,0.0,0.0,0.0,1.6116,1.6858,1.6951,1.6982,1.7075,1.6575,1.5969,1.5304,1.5396,1.4987,1.3346,0.0,0.0,0.0,0.0,0.0,0.0,0.0,0.0,0.0,0.0,0.0,0.0,0.0,0.0,0.0,0.0,0.0,0.0,0.0,0.0,0.0,0.0,0.0,0.0,0.0,0.0,0.0,0.0,0.0,0.0,0.0,0.0,0.0,0.0,0.0,0.0,0.0,0.0,0.0,0.0,0.0,0.0,0.0,0.0,0.0,0.0,0.0,0.0,0.0,0.0,0.0,0.0,0.0,2.6626,2.6657,2.7945,2.871,2.8699,2.8746,2.8413,2.7932,2.7924,2.7448,2.6496,0.0,0.0,0.0,0.0,0.0,0.0,0.0,0.0,0.0,0.0,0.0,0.0,0.0,0.0,0.0,0.0,0.0,0.0,0.0,0.0,0.0,0.0,0.0,0.0,0.0,0.0,1.4749,1.5557,1.615,0.0,0.0,0.0,0.0,0.0,0.0,0.0,0.0,0.0,0.0,1.5959,1.7032,1.5903,1.5765,1.5919,1.6252,1.5215,1.4592,1.5134,1.5211,1.5011,0.0,0.0,0.0,0.0,0.0,0.0,0.0,0.0,0.0,0.0,0.0,0.0,0.0,0.0,0.0,0.0,0.0,0.0,0.0,0.0,0.0,0.0,0.0,0.0,0.0,0.0,0.0,2.5514,2.5194,0.0,0.0,0.0,0.0,0.0,0.0,0.0,0.0,0.0,0.0,0.0,2.6853,2.7425,0.0,0.0,0.0,0.0,0.0,0.0,0.0,0.0,0.0,0.0,0.0,0.0,2.6692,2.6779,2.8093,2.8803,2.8803,2.8803,2.8727,2.8506,2.8211,2.7571,2.6628,0.0,0.0,0.0,0.0,0.0,0.0,0.0,0.0,0.0,0.0,0.0,0.0,0.0,0.0,0.0,0.0,0.0,0.0,0.0,0.0,0.0,0.0,0.0,0.0,0.0,1.6815,0.0,0.0,0.0,0.0,0.0,0.0,0.0,0.0,0.0,0.0,0.0,1.4403,1.5333,1.5408,1.553,1.598,1.6034,1.6275,0.0,0.0,0.0,0.0,0.0,0.0,0.0,0.0,0.0,0.0,0.0,0.0,0.0,0.0,1.1081,1.0135,0.9933,0.9902,0.9896,0.0,0.0,0.0,0.0,0.0,0.0,0.0,0.0,0.0,0.0,0.0,0.0,0.0,0.0,0.0,0.0,2.636,0.0,0.0,0.0,0.0,0.0,0.0,0.0,0.0,2.7863,2.7944,2.7371,2.7922,2.801,0.0,2.7591,2.7184,0.0,0.0,0.0,0.0,0.0,0.0,0.0,0.0,2.6893,2.6936,2.8139,2.8803,2.8803,2.8803,2.8803,2.8803,2.8451,2.7967,2.7264,2.6784,2.601,0.0,0.0,0.0,0.0,0.0,0.0,0.0,0.0,0.0,0.0,0.0,0.0,0.0,0.0,0.0,0.0,0.0,0.0,0.0,0.0,0.0,0.0,0.0,1.7856,0.0,0.0,0.0,0.0,0.0,0.0,0.0,0.0,0.0,1.4835,1.4797,1.5165,1.608,1.5827,1.5587,1.569,0.0,0.0,0.0,0.0,0.0,0.0,0.0,1.4044,1.3741,1.3711,1.3932,1.4501,1.452,1.4291,1.3828,0.0,0.0,1.191,1.1561,1.1514,1.1521,1.114,1.0823,1.0686,1.0633,1.0566,0.0,0.0,0.0,0.0,0.0,0.0,0.0,0.0,2.7624,2.7568,0.0,2.7677,0.0,0.0,0.0,0.0,0.0,0.0,0.0,0.0,2.9903,3.0068,2.8745,2.893,2.8839,2.8397,2.8166,2.7932,2.7701,2.727,0.0,0.0,0.0,0.0,0.0,0.0,2.7337,2.7336,2.8276,2.8803,2.8803,2.8803,2.8803,2.8803,2.8803,2.8666,2.8396,2.7945,2.7365,2.6649,2.5732,0.0,0.0,0.0,0.0,0.0,0.0,0.0,0.0,0.0,0.0,0.0,0.0,0.0,0.0,0.0,0.0,0.0,0.0,0.0,0.0,1.9126,0.0,0.0,0.0,0.0,0.0,0.0,0.0,0.0,0.0,0.0,1.5483,1.5997,1.6451,1.6237,0.0,0.0,0.0,0.0,1.5665,1.4324,1.4064,1.4064,1.4124,1.4238,1.4607,1.5431,0.0,0.0,1.6144,1.5602,1.5071,1.4901,1.5403,1.5258,1.316,1.2645,1.2492,1.2485,1.2245,1.195,1.1799,1.1768,1.1575,3.0642,0.0,0.0,0.0,0.0,2.9284,2.9526,2.9758,3.0028,2.9954,2.9642,2.9327,0.0,0.0,0.0,0.0,0.0,0.0,2.9771,2.9342,2.9709,2.946,2.878,2.883,2.8819,2.8688,2.8739,2.8673,2.849,2.8479,2.7972,2.7019,0.0,0.0,0.0,0.0,2.7783,2.7636,2.8405,2.8803,2.8803,2.8803,2.8803,2.8803,2.8803,2.8784,2.871,2.838,2.7763,2.6899,2.5836,0.0,0.0,0.0,0.0,0.0,0.0,0.0,0.0,0.0,0.0,0.0,0.0,0.0,0.0,0.0,0.0,0.0,0.0,0.0,2.0275,2.0889,2.0716,0.0,0.0,0.0,0.0,0.0,0.0,0.0,0.0,0.0,1.8303,1.7367,1.6705,0.0,0.0,1.546,1.4884,1.5036,1.5272,1.5461,0.0,0.0,0.0,1.5279,1.4957,1.5187,1.5606,1.5951,1.5972,1.6147,1.6235,1.6138,1.6305,1.6236,1.5701,1.515,1.4866,1.4805,1.4201,1.3631,1.3536,1.3237,1.2912,3.1712,3.1221,3.1061,3.0708,3.0357,3.0647,3.0845,3.0965,3.1273,3.128,3.112,3.0814,3.0729,3.087,3.0411,0.0,0.0,0.0,3.0529,3.0432,2.9858,2.9455,2.9209,2.8932,2.8803,2.8803,2.8943,2.8885,2.8803,2.8989,2.8749,2.8096,0.0,0.0,2.7293,2.7886,2.8138,2.7978,2.8517,2.8803,2.8803,2.8803,2.8803,2.8803,2.8803,2.8803,2.8803,2.8622,2.8192,2.7431,2.6693,2.578,0.0,0.0,0.0,0.0,0.0,0.0,0.0,0.0,0.0,0.0,0.0,2.1124,2.0616,0.0,0.0,0.0,2.2582,2.2655,2.2676,2.2839,0.0,0.0,0.0,0.0,0.0,0.0,0.0,1.9318,2.013,2.0648,2.0601,1.9637,1.8735,1.8028,1.7038,1.6183,1.5799,0.0,1.6362,1.6687,1.6381,1.6388,1.7048,1.6792,1.6433,1.6376,1.6365,1.6464,1.6464,1.6617,1.6689,1.6689,1.6689,1.6689,1.6689,1.6426,1.6203,1.6195,1.5528,1.4973,1.4912,1.4366,1.3822,3.2413,3.2364,3.1943,3.1734,3.171,3.171,3.1717,3.1669,3.168,3.1833,3.2112,3.2079,3.2214,3.2405,3.2228,0.0,3.2018,3.1505,3.1267,3.1233,3.0413,2.9967,2.9829,2.9279,2.9024,2.9013,2.9071,2.9035,2.8978,2.9174,2.9242,2.9218,2.8752,2.8298,2.7867,2.8265,2.8486,2.8463,2.8688,2.8792,2.8803,2.8803,2.8803,2.8803,2.8803,2.8803,2.8803,2.8803,2.856,2.8089,2.8012,2.7302,2.5903,0.0,0.0,0.0,0.0,0.0,0.0,0.0,0.0,0.0,0.0,0.0,0.0,0.0,0.0,0.0,2.4556,0.0,2.5988,2.4754,0.0,0.0,0.0,2.1949,2.2736,2.2602,2.25,2.2419,0.0,0.0,0.0,0.0,2.1848,2.032,1.9348,1.8463,1.7518,1.7998,1.8333,1.781,1.7749,1.7857,1.8133,1.8256,1.8298,1.815,1.7819,1.7445,1.7397,1.7143,1.6864,1.6887,1.6784,1.6745,1.6745,1.6713,1.6689,1.6673,1.6227,1.5856,1.5762,1.498,1.4268,3.262,3.2458,3.2342,3.2152,3.19,3.1961,3.2079,3.228,3.2291,3.2325,3.2437,3.2398,3.2207,3.1878,3.2013,3.1877,3.1471,3.1357,3.1097,3.077,3.1043,3.0801,3.0125,3.0666,3.0923,3.0968,3.1169,3.0958,3.0453,3.0621,3.057,3.0279,3.0014,2.9561,2.9126,2.917,2.9145,2.8916,2.898,2.8943,2.8803,2.8803,2.8803,2.8803,2.8803,2.8803,2.8803,2.8803,2.8749,2.8593,2.8233,2.7827,2.7455,2.6344,0.0,0.0,0.0,0.0,0.0,0.0,0.0,0.0,0.0,2.3652,2.3646,0.0,2.4671,0.0,2.6341,2.6935,2.6555,2.6066,0.0,0.0,2.3955,2.3571,2.4535,2.4359,2.4001,2.3644,2.4128,2.449,2.4546,2.374,2.3419,2.3784,2.1366,1.9373,1.9118,1.8738,1.8465,1.841,1.8502,1.8548,1.8674,1.8689,1.8727,1.8678,1.8565,1.8462,1.8454,1.8168,1.793,1.789,1.7485,1.7191,1.7167,1.6929,1.6721,1.6665,1.6275,1.5912,1.5864,1.5115,1.4372,3.2934,3.283,3.283,3.2779,3.2694,3.2369,3.2331,3.2493,3.2493,3.2555,3.2718,3.2818,3.2585,3.206,3.2097,3.1776,3.1312,3.1074,3.1003,3.1101,3.1316,3.1329,3.1169,3.1665,3.1916,3.1916,3.2072,3.1777,3.1057,3.1122,3.0941,3.0456,3.034,3.0089,2.9829,2.9848,2.9674,2.9266,2.9174,2.8989,2.8803,2.8803,2.8751,2.8646,2.8635,2.8571,2.8452,2.8452,2.8441,2.8441,2.8052,2.7755,2.748,2.6692,2.6037,0.0,0.0,0.0,0.0,0.0,0.0,0.0,0.0,0.0,0.0,0.0,2.5712,0.0,2.6915,2.7358,2.6459,2.6498,2.6515,2.6362,2.5842,2.5818,2.6751,2.6658,2.6406,2.6165,2.6375,2.6445,2.6316,2.5669,2.5295,2.5596,2.3566,2.1866,2.1346,2.057,2.0035,2.0074,1.9861,1.9694,1.9725,1.9622,1.9519,1.9503,1.9272,1.9066,1.9066,1.8772,1.8533,1.8502,1.8224,1.7969,1.7954,1.7683,1.7394,1.7339,1.7059,1.6645,1.633,1.5642,1.505,3.3353,3.3297,3.3375,3.3553,3.3714,3.3068,3.2752,3.2696,3.2628,3.2706,3.298,3.3124,3.2879,3.2386,3.2134,3.174,3.124,3.0854,3.1021,3.1629,3.1449,3.1677,3.2227,3.2333,3.2407,3.2395,3.2395,3.2016,3.1356,3.1311,3.1048,3.0444,3.041,3.041,3.0467,3.0454,3.0255,2.9722,2.9389,2.9135,2.8948,2.8883,2.8802,2.8553,2.8519,2.8466,2.8209,2.8131,2.8097,2.8097,2.7855,2.7567,2.7105,2.6854,2.6353,0.0,2.504,0.0,0.0,0.0,0.0,0.0,0.0,0.0,0.0,2.6184,2.6195,2.5648,2.6861,2.7325,2.6451,2.6717,2.7203,2.7761,2.785,2.8115,2.8691,2.8757,2.8757,2.8757,2.8535,2.8207,2.7741,2.7452,2.7013,2.6322,2.5373,2.445,2.3696,2.2568,2.1827,2.201,2.1296,2.0642,2.0745,2.0599,2.0424,2.0377,1.9995,1.9622,1.9606,1.9304,1.8995,1.8987,1.8955,1.8867,1.8899,1.8589,1.8359,1.8311,1.8073,1.7668,1.7006,1.6429,1.6082,3.4032,3.3897,3.4319,3.4543,3.4543,3.4388,3.4102,3.3679,3.3291,3.3181,3.3197,3.2822,3.2351,3.194,3.1656,3.1333,3.1028,3.098,3.1068,3.1416,3.1893,3.1965,3.1881,3.2544,3.2889,3.2889,3.2902,3.2575,3.2072,3.2072,3.1974,3.1742,3.1526,3.1514,3.1709,0.0,0.0,0.0,3.0173,2.97,2.9689,2.9478,2.936,2.9316,2.9305,0.0,2.9205,2.8836,2.8567,2.8567,2.8176,0.0,0.0,0.0,0.0,0.0,0.0,0.0,0.0,0.0,0.0,0.0,2.666,2.7009,2.6955,2.6899,2.695,2.7252,2.7521,2.7861,2.825,2.8337,2.8424,2.8558,2.8569,2.8648,2.8792,2.8617,2.8488,2.8488,2.8441,2.8348,2.8207,2.7668,2.7194,2.6945,2.6149,2.5528,2.5235,2.3385,2.2068,2.1961,2.1321,2.0887,2.0877,2.0837,2.0766,2.079,2.075,2.0607,2.0543,2.0305,2.0091,2.0059,1.9654,1.9288,1.9288,1.8978,1.8726,1.8732,1.8676,1.8422,1.7731,1.7224,1.6868,3.4468,0.0,3.4934,3.5152,0.0,3.5152,3.5003,3.4716,3.4234,3.3878,3.3602,3.3109,3.2466,3.1743,3.1632,3.124,3.0601,3.0589,3.0724,3.0982,3.1757,3.2108,3.2033,3.2889,3.333,3.3343,3.333,3.3074,3.2513,3.2513,3.2311,3.1878,3.1788,3.1698,3.171,3.1595,3.1356,3.102,3.0373,3.0017,3.0063,2.9885,2.9681,2.9308,0.0,0.0,0.0,0.0,0.0,0.0,0.0,0.0,0.0,0.0,0.0,2.7426,2.6998,2.679,2.6944,2.7151,2.7315,2.737,2.7752,2.7916,2.7687,2.7793,2.7987,2.8237,2.8259,2.8403,2.8771,2.8803,2.8803,2.8803,2.8803,2.8803,2.8803,2.8664,2.8571,2.8571,2.8488,2.8405,2.8395,2.7961,2.7573,2.7384,2.6764,2.6255,2.5984,2.4417,2.2982,2.2061,2.1599,2.1213,2.0893,2.0822,2.0852,2.0869,2.0925,2.0925,2.0925,2.0774,2.0647,2.0631,2.0361,2.0138,2.0106,1.9844,1.9598,1.9582,1.9463,1.9264,1.8851,1.836,1.7936,3.4923,3.4969,3.5439,3.5646,3.5646,3.5657,3.5646,3.5611,0.0,0.0,0.0,3.3534,3.281,3.2007,3.1754,3.1215,3.0502,3.0398,3.0532,3.0847,3.1593,3.2021,3.2227,3.2988,3.3318,3.333,3.333,3.3086,3.2537,3.2537,3.2232,3.1761,3.1705,3.1572,3.1374,3.1315,3.1144,3.0781,3.0523,3.0388,3.0388,3.0364,3.0066,2.9474,2.9663,2.9468,2.8804,2.8841,2.8795,2.8612,2.8281,2.7959,2.7603,2.7534,2.7469,2.7314,2.7481,2.7832,2.8214,2.8213,2.8377,2.8771,2.8803,2.8593,2.8189,2.8528,2.8803,2.8803,2.8803,2.8803,2.8803,2.8803,2.8803,2.8803,2.8803,2.8803,2.8803,2.8803,2.8803,2.8757,2.8617,2.8477,2.8477,2.8196,2.7904,2.7668,2.7241,2.6812,2.6388,2.5198,2.3773,2.2446,2.2092,2.1855,2.1271,2.1131,2.1055,2.1042,2.0998,2.0953,2.0966,2.0931,2.0904,2.0885,2.0917,2.0885,2.0885,2.0631,2.0496,2.0488,2.0257,2.0043,2.0003,1.9606,1.9154,3.5416,3.5462,3.5956,3.6162,3.6162,3.6162,3.6162,3.6082,3.5187,3.475,3.4636,3.3694,3.3201,3.2994,3.1708,3.1252,3.1446,3.1082,3.1139,0.0,3.1705,3.1749,3.1793,3.1925,3.1969,3.1969,3.2013,3.1925,3.1837,3.1837,3.1793,3.1705,3.1705,3.1661,3.1617,3.1422,3.1377,3.154,3.1304,3.1148,3.1148,3.0969,3.0859,3.0744,3.0777,3.0641,3.0312,2.9839,2.9542,2.9334,2.8866,2.8557,2.8511,2.8483,2.8574,2.8764,2.8847,2.8993,2.9248,2.9063,2.8912,2.8839,2.8803,2.8771,2.8716,2.8771,2.8803,2.8803,2.8803,2.8803,2.8803,2.8803,2.8803,2.8803,2.8803,2.8803,2.8803,2.8803,2.8803,2.8803,2.8768,2.871,2.8664,2.8326,2.8045,2.7904,2.7515,2.6993,2.6474,2.5294,2.4115,2.3262,2.3003,2.2739,2.2207,2.2077,2.1852,2.1343,2.1288,2.1236,2.1081,2.1072,2.102,2.0912,2.0936,2.0901,2.0917,2.0893,2.0821,2.0805,2.0726,2.0702,2.0686,2.0559,2.0361,3.5933,3.5956,3.6174,3.6266,3.6266,3.6266,3.6266,3.6286,3.5795,3.5428,3.5129,3.4418,3.3935,3.3676,3.3085,3.2667,3.2347,3.1984,3.1779,3.1677,3.1571,3.1484,3.1484,3.1629,3.1705,3.1705,3.1705,3.1705,3.1705,3.1705,3.1705,3.1705,3.1705,3.1705,3.1705,3.1572,3.1572,3.1673,3.1442,3.1392,3.1516,3.1437,3.1241,3.096,3.105,3.0994,3.0623,3.0503,3.0285,2.9883,2.9642,2.9327,2.8925,2.9048,2.9116,2.9127,2.9138,2.9159,2.929,2.9082,2.8896,2.8803,2.8803,2.8803,2.8803,2.8803,2.8803,2.8803,2.8803,2.8803,2.8803,2.8803,2.8803,2.8803,2.8803,2.8803,2.8803,2.8803,2.8803,2.8803,2.8803,2.8803,2.8803,2.8606,2.842,2.8373,2.7998,2.7478,2.6965,2.6353,2.5408,2.4162,2.3866,2.3568,2.2947,2.2792,2.2518,2.1964,2.185,2.1639,2.1324,2.1225,2.1147,2.1054,2.1,2.098,2.0912,2.0925,2.0925,2.0925,2.0925,2.0925,2.0925,2.0925,2.0734,3.6266,3.6266,3.6266,3.6266,3.6266,3.6266,3.6266,3.6266,3.6254,3.6113,3.5699,3.5228,3.4739,3.4337,3.4312,3.3908,3.3275,3.2884,3.2441,3.1981,3.175,3.1532,3.1407,3.1617,3.1705,3.1705,3.1705,3.1705,3.1705,3.1705,3.1705,3.1705,3.1705,3.1705,3.1705,3.1705,3.1705,3.1705,3.1484,3.1484,3.1717,3.1705,3.1484,3.1128,3.1261,3.1217,3.0802,3.0949,3.0826,3.0352,3.0306,2.9998,2.9386,2.95,2.9545,2.9308,2.9318,2.9301,2.9266,2.9128,2.9044,2.9061,2.9061,2.9058,2.911,2.9132,2.9022,2.8847,2.8803,2.8803,2.8803,2.8803,2.8803,2.8803,2.8913,2.8989,2.8978,2.9055,2.9077,2.9,2.8967,2.8946,2.8836,2.8803,2.8803,2.871,2.842,2.7998,2.7526,2.7373,2.6686,2.5561,2.4967,2.4679,2.3981,2.3664,2.3368,2.2849,2.2681,2.2447,2.2001,2.1778,2.1559,2.1451,2.1213,2.1114,2.0964,2.0942,2.0923,2.0928,2.0925,2.0925,2.0925,2.0925,2.0845,3.6266,3.6266,3.6266,3.6266,3.6266,3.6266,3.6266,3.6266,3.6266,3.6417,3.6441,3.5776,3.5428,3.5244,3.4504,3.4157,3.421,3.3749,3.3237,3.2771,3.2663,3.2313,3.1713,3.1729,3.1705,3.1705,3.1705,3.1705,3.1705,3.1705,3.1705,3.1705,3.1705,3.1705,3.1705,3.1705,3.1705,3.1705,3.1661,3.1661,3.1705,3.1705,3.1673,3.1617,3.1661,3.1528,3.125,3.1261,3.1083,3.0623,3.0578,3.034,2.9897,3.0023,3.0023,2.9852,2.9966,3.0,2.984,2.9806,2.9744,2.9817,2.9755,2.9826,3.0007,3.0035,2.9674,2.9088,2.8836,2.888,2.8814,2.8847,2.8902,2.8957,2.9241,2.9412,2.9456,2.9805,2.9915,2.9456,2.9423,2.9318,2.9,2.8924,2.8869,2.8891,2.8798,2.852,2.8034,2.7893,2.7741,2.7016,2.6597,2.6177,2.5754,2.5096,2.463,2.4302,2.3898,2.3485,2.3112,2.2679,2.233,2.189,2.1641,2.1283,2.1131,2.1064,2.1052,2.0955,2.0917,2.0925,2.0925,2.0925,2.0877,3.6266,3.6266,3.6266,3.6266,3.6266,3.6266,3.6266,3.6266,3.6266,3.6386,3.646,3.6264,3.6237,3.6202,3.5786,3.5514,3.5294,3.509,3.4719,3.4182,3.3732,3.318,3.2659,3.2286,3.1985,3.1729,3.1705,3.1705,3.1705,3.1705,3.1705,3.1705,3.1705,3.1705,3.1705,3.1705,3.1705,3.1705,3.1705,3.1705,3.1705,3.1705,3.1705,3.1705,3.1705,3.1661,3.1584,3.1528,3.135,3.1026,3.1026,3.0814,3.0318,3.0397,3.0352,3.0091,3.0057,2.992,2.9691,2.9634,2.969,2.966,2.9819,2.9943,3.0035,3.0143,3.0024,2.9707,2.9609,2.9609,2.9598,2.962,2.9609,2.9642,2.9805,2.9915,2.9925,3.0089,3.0111,2.9936,2.9915,2.986,2.9674,2.962,2.9489,2.9328,2.923,2.9012,2.8553,2.8466,2.8373,2.8139,2.7715,2.7274,2.6878,2.6527,2.603,2.5578,2.5075,2.4647,2.3768,2.3155,2.2625,2.2203,2.1879,2.1637,2.1478,2.1301,2.1172,2.1113,2.0968,2.0925,2.0925,2.0925,2.0925,3.6266,3.6266,3.6266,3.6266,3.6266,3.6266,3.6266,3.6266,3.6266,3.6332,3.6429,3.6603,3.6754,3.6808,3.6808,3.6598,3.629,3.6284,3.5947,3.5384,3.4688,3.403,3.3489,3.2959,3.243,3.1973,3.1946,3.1874,3.1741,3.1705,3.1705,3.1705,3.1705,3.1705,3.1705,3.1705,3.1705,3.1705,3.1705,3.1705,3.1705,3.1705,3.1705,3.1705,3.1705,3.1705,3.1705,3.1705,3.1572,3.1306,3.1306,3.1128,3.0724,3.0668,3.0487,3.0216,3.0057,2.992,2.9715,2.9658,2.9725,2.9791,3.0028,3.0193,3.0285,3.0477,3.0592,3.0603,3.0603,3.0537,3.0231,3.022,3.022,3.022,3.0297,3.0406,3.0395,3.0482,3.057,3.0428,3.0395,3.0341,3.0242,3.0166,3.0013,2.9751,2.9674,2.9598,2.9263,2.9074,2.8964,2.8989,2.8528,2.8092,2.7704,2.7247,2.6997,2.6806,2.6276,2.562,2.4654,2.406,2.3296,2.3163,2.2527,2.2034,2.1744,2.1544,2.1397,2.1302,2.1121,2.0917,2.0925,2.0925,2.0925,3.6266,3.6266,3.6266,3.6266,3.6266,3.6266,3.6266,3.6266,3.6266,3.6429,3.6646,3.67,3.6862,3.7078,3.7078,3.7066,3.7019,3.7002,3.6643,3.6014,3.5434,3.4747,3.397,3.3501,3.2984,3.2491,3.2454,3.2202,3.1777,3.1717,3.1705,3.1705,3.1705,3.1705,3.1705,3.1705,3.1705,3.1705,3.1705,3.1705,3.1705,3.1705,3.1705,3.1705,3.1705,3.1705,3.1705,3.1705,3.1572,3.1306,3.1306,3.1229,3.096,3.0736,3.0487,3.0261,3.017,3.017,3.0125,3.0125,3.0205,3.0487,3.0633,3.0942,3.1013,3.1207,3.1341,3.1498,3.1378,3.1083,3.0461,3.0395,3.0351,3.0341,3.0646,3.0854,3.0876,3.1203,3.1291,3.0985,3.0876,3.0745,3.0341,3.022,3.0275,3.0209,3.0177,3.0122,2.9991,2.9685,2.9525,2.9325,2.9074,2.8757,2.8617,2.8045,2.7647,2.7495,2.7291,2.6843,2.638,2.5773,2.4871,2.4068,2.3555,2.2931,2.2189,2.1801,2.162,2.1433,2.1097,2.0917,2.0925,2.0925,2.0925,3.6266,3.6266,3.6266,3.6266,3.6266,3.6266,3.6266,3.6266,3.6266,3.6375,3.6495,3.6646,3.6862,3.7131,3.7316,3.7304,3.7131,3.7304,3.7263,3.693,3.6275,3.5637,3.4967,3.4186,3.3501,3.3068,3.2996,3.2731,3.2202,3.1841,3.1705,3.1705,3.1705,3.1705,3.1705,3.1705,3.1705,3.1705,3.1705,3.1705,3.1705,3.1705,3.1705,3.1705,3.1705,3.1705,3.1705,3.1705,3.1661,3.1572,3.1528,3.1439,3.1184,3.0814,3.0578,3.0442,3.0306,3.0216,3.0216,3.0216,3.0239,3.0342,3.0589,3.0726,3.0844,3.1016,3.123,3.1356,3.1433,3.1262,3.1181,3.1116,3.1116,3.1087,3.1247,3.1345,3.1378,3.152,3.1542,3.14,3.1356,3.128,3.1127,3.1055,3.0996,3.0723,3.0657,3.0537,3.0264,3.0046,2.986,2.9554,2.9383,2.9153,2.8803,2.8571,2.8279,2.8233,2.8023,2.7474,2.6975,2.6536,2.5765,2.5141,2.4612,2.4268,2.3675,2.2816,2.2531,2.1711,2.1369,2.1216,2.0925,2.0976,2.0976,3.6266,3.6266,3.6266,3.6266,3.6266,3.6266,3.6266,3.6266,3.6266,3.6266,3.632,3.6592,3.6874,3.7131,3.7477,3.753,3.74,3.7625,3.7744,3.7672,3.6968,3.6471,3.6002,3.504,3.4282,3.3789,3.3428,3.302,3.2515,3.2118,3.1886,3.1717,3.1705,3.1705,3.1705,3.1705,3.1705,3.1705,3.1705,3.1705,3.1705,3.1705,3.1705,3.1705,3.1705,3.1705,3.1705,3.1705,3.1705,3.1705,3.1705,3.1584,3.1306,3.0982,3.0758,3.0623,3.0431,3.0261,3.0216,3.0216,3.0216,3.0239,3.0444,3.0612,3.0587,3.0878,3.1089,3.1263,3.1395,3.1453,3.1571,3.1556,3.1567,3.1567,3.1567,3.1567,3.1567,3.1567,3.1567,3.1545,3.1534,3.1556,3.1567,3.1556,3.1444,3.116,3.1138,3.0985,3.0745,3.0493,3.0341,2.9991,2.97,2.9416,2.911,2.8838,2.8614,2.8581,2.8524,2.8023,2.7589,2.7173,2.6781,2.6196,2.5848,2.5664,2.508,2.4097,2.3253,2.2459,2.2005,2.1903,2.1514,2.107,2.1121,3.6266,3.6266,3.6266,3.6266,3.6266,3.6266,3.6266,3.6266,3.6266,3.6266,3.632,3.6592,3.6808,3.7078,3.7311,3.7655,3.7808,3.7789,3.7837,3.7914,3.7397,3.712,3.6988,3.6014,3.5268,3.4667,3.3789,3.308,3.2659,3.2539,3.225,3.1837,3.1801,3.1777,3.1717,3.1705,3.1705,3.1705,3.1705,3.1705,3.1705,3.1705,3.1705,3.1705,3.1705,3.1705,3.1705,3.1705,3.1705,3.1705,3.1705,3.1584,3.135,3.125,3.1083,3.0758,3.0623,3.0442,3.025,3.0216,3.0216,3.0216,3.0433,3.0568,3.0576,3.0953,3.1207,3.1224,3.1405,3.1564,3.1593,3.1597,3.1567,3.1567,3.1567,3.1567,3.1567,3.1567,3.1567,3.1567,3.1567,3.1567,3.1567,3.1567,3.1524,3.1553,3.1531,3.1509,3.1378,3.1105,3.0919,3.0668,3.0231,2.9773,2.9434,2.9164,2.8978,2.879,2.8768,2.8502,2.8164,2.7788,2.7563,2.7115,2.6771,2.6532,2.6041,2.5158,2.4718,2.398,2.3384,2.2793,2.2501,2.2165,2.1573,3.6266,3.6266,3.6266,3.6266,3.6266,3.6266,3.6266,3.6266,3.6266,3.6266,3.632,3.6375,3.6592,3.678,3.6802,3.6955,3.7118,3.7016,3.7276,3.7781,3.7421,3.7204,3.7072,3.6495,3.5881,3.5219,3.4306,3.3682,3.3513,3.32,3.2779,3.2346,3.2238,3.2022,3.1741,3.1705,3.1705,3.1705,3.1705,3.1705,3.1705,3.1705,3.1705,3.1705,3.1705,3.1705,3.1705,3.1705,3.1705,3.1705,3.1705,3.1661,3.1572,3.1395,3.1217,3.1071,3.0758,3.0566,3.0476,3.0306,3.0227,3.025,3.0308,3.0308,3.0365,3.0701,3.0847,3.0926,3.114,3.14,3.1394,3.1494,3.1597,3.1567,3.1567,3.1567,3.1567,3.1567,3.1567,3.1567,3.1567,3.1567,3.1567,3.1567,3.1567,3.1567,3.1567,3.1567,3.1586,3.1476,3.1236,3.0919,3.0526,3.0242,2.9947,2.962,2.9358,2.9142,2.8989,2.8814,2.856,2.842,2.8186,2.7998,2.7647,2.7305,2.6809,2.6368,2.5935,2.5295,2.4602,2.4168,2.3831,2.3343,2.2752,3.6375,3.6332,3.6386,3.6429,3.6429,3.6429,3.6483,3.6592,3.6603,3.6603,3.6592,3.6603,3.6754,3.6977,3.6921,3.6896,3.6944,3.674,3.694,3.7348,3.7324,3.7288,3.7372,3.6952,3.6278,3.5617,3.4895,3.4366,3.3982,3.367,3.3308,3.2875,3.2611,3.2346,3.2006,3.1813,3.1705,3.1705,3.1705,3.1705,3.1705,3.1705,3.1705,3.1705,3.1705,3.1705,3.1705,3.1705,3.1705,3.1705,3.1705,3.1705,3.1717,3.1528,3.1395,3.1261,3.1026,3.0791,3.0623,3.0431,3.0422,3.0457,3.0514,3.0641,3.0789,3.1014,3.1145,3.1233,3.1535,3.1745,3.175,3.1737,3.1761,3.1772,3.1669,3.1618,3.1567,3.1567,3.1567,3.1567,3.1567,3.1567,3.1567,3.1567,3.1567,3.1567,3.1567,3.1567,3.1567,3.1567,3.1389,3.1171,3.0908,3.0668,3.0472,3.0155,2.9805,2.9478,2.923,2.8967,2.871,2.8664,2.8571,2.8524,2.8269,2.8175,2.772,2.7531,2.7189,2.6454,2.5818,2.5431,2.5051,2.4503,2.4011,3.6592,3.6375,3.6592,3.67,3.67,3.67,3.6862,3.7078,3.7078,3.7024,3.7078,3.7024,3.7197,3.7477,3.7335,3.7273,3.7188,3.694,3.6735,3.6687,3.6831,3.7228,3.7745,3.7348,3.6663,3.593,3.5677,3.5063,3.4294,3.4186,3.3849,3.3344,3.2863,3.2527,3.2346,3.1937,3.1705,3.1705,3.1705,3.1705,3.1705,3.1705,3.1705,3.1705,3.1705,3.1741,3.1837,3.1922,3.1849,3.1729,3.1765,3.1837,3.1777,3.1777,3.1776,3.1589,3.1425,3.1215,3.0886,3.0833,3.0881,3.1078,3.1065,3.1237,3.1605,3.1755,3.1908,3.1885,3.2205,3.2415,3.2331,3.2196,3.2066,3.1964,3.1721,3.1618,3.1567,3.1567,3.1567,3.1567,3.1567,3.1567,3.1567,3.1567,3.1567,3.1567,3.1567,3.1567,3.1567,3.1567,3.1567,3.1393,3.1214,3.1116,3.0919,3.057,3.0242,3.0067,2.9685,2.9292,2.8957,2.8891,2.8814,2.8757,2.8757,2.8746,2.8653,2.8315,2.8128,2.7683,2.7142,2.6703,2.631,2.5876,2.5431,3.697,3.6916,3.697,3.7024,3.697,3.697,3.7024,3.7131,3.7131,3.7131,3.7131,3.7131,3.7185,3.7215,3.7097,3.6982,3.6836,3.6357,3.623,3.6338,3.6098,3.6819,3.7649,3.7457,3.706,3.6711,3.6338,3.5845,3.5207,3.5124,3.4655,3.379,3.3344,3.2875,3.2478,3.1973,3.1729,3.1705,3.1705,3.1705,3.1705,3.1729,3.1705,3.1705,3.1741,3.1901,3.2262,3.2659,3.2488,3.1813,3.2082,3.2286,3.231,3.2587,3.2663,3.248,3.2412,3.2343,3.1995,3.1751,3.1716,3.1796,3.1654,3.1628,3.1754,3.1971,3.2039,3.1982,3.2252,3.2448,3.2261,3.233,3.2246,3.2026,3.1823,3.1629,3.1567,3.1567,3.1567,3.1567,3.1567,3.1567,3.1567,3.1567,3.1567,3.1567,3.1567,3.1567,3.1567,3.1567,3.1567,3.1567,3.1436,3.1465,3.1323,3.0974,3.0723,3.0635,3.0275,2.9794,2.9368,2.9066,2.8924,2.8803,2.8803,2.8757,2.8803,2.8606,2.8617,2.8466,2.8269,2.7778,2.7835,2.7552,2.701,3.7131,3.7131,3.7251,3.7304,3.7304,3.7316,3.7358,3.7453,3.7495,3.7453,3.7441,3.7453,3.7507,3.7471,3.7357,3.7159,3.6924,3.6477,3.6242,3.6002,3.6014,3.6627,3.7397,3.7457,3.7409,3.7168,3.6892,3.6447,3.5966,3.5737,3.5256,3.4643,3.3958,3.3344,3.2851,3.231,3.1889,3.1765,3.1705,3.1705,3.1705,3.1946,3.2066,3.2126,3.2202,3.2539,3.2851,3.3128,3.2959,3.2551,3.2659,3.2827,3.2851,3.3116,3.3238,3.3051,3.2981,3.277,3.2536,3.2347,3.2263,3.2283,3.2208,3.2347,3.2457,3.2537,3.2502,3.2543,3.2685,3.2753,3.2662,3.2648,3.2521,3.228,3.2088,3.1885,3.1669,3.1567,3.1567,3.1567,3.1567,3.1567,3.1567,3.1567,3.1567,3.1567,3.1567,3.1567,3.1567,3.1567,3.1567,3.1567,3.1567,3.1524,3.1491,3.128,3.1149,3.1061,3.0799,3.033,2.9784,2.9303,2.9099,2.8946,2.8869,2.8803,2.8803,2.8803,2.8757,2.871,2.8803,2.8757,2.8617,2.8477,2.8045,3.7185,3.7239,3.753,3.7649,3.7649,3.7649,3.7732,3.7933,3.7921,3.7921,3.7921,3.7974,3.7921,3.7974,3.7849,3.7721,3.73,3.712,3.6531,3.6218,3.6242,3.6831,3.7252,3.7733,3.7673,3.7397,3.7288,3.6964,3.6519,3.6038,3.5797,3.5449,3.4631,3.3946,3.3537,3.2984,3.2394,3.2102,3.2066,3.2078,3.2138,3.2382,3.2563,3.2635,3.3044,3.326,3.3368,3.3477,3.3464,3.3452,3.3392,3.3356,3.338,3.3392,3.3454,3.3467,3.3374,3.3149,3.2759,3.2818,3.2709,3.2732,3.2862,3.3036,3.3112,3.3128,3.3166,3.3097,3.3269,3.3197,3.3185,3.3031,3.2779,3.2555,3.2493,3.224,3.1834,3.168,3.1629,3.1567,3.1567,3.1567,3.1567,3.1567,3.1567,3.1567,3.1567,3.1567,3.1567,3.1567,3.1567,3.1567,3.1567,3.1567,3.1567,3.1524,3.148,3.1415,3.1214,3.0788,3.0166,2.9696,2.9336,2.9175,2.9132,2.8989,2.8803,2.8803,2.8825,2.8803,2.8803,2.8803,2.8757,2.871,2.842,3.7814,3.7814,3.788,3.7933,3.7945,3.7945,3.7933,3.7974,3.7974,3.7974,3.7974,3.7974,3.7974,3.7974,3.7974,3.7902,3.7709,3.7385,3.6819,3.6398,3.6783,3.7048,3.7312,3.7733,3.789,3.7769,3.7805,3.7529,3.7072,3.6831,3.6627,3.6158,3.5581,3.4967,3.4414,3.3897,3.344,3.302,3.2899,3.2851,3.2851,3.2996,3.3128,3.3212,3.3633,3.3802,3.3922,3.4282,3.4487,3.439,3.4114,3.3838,3.3945,3.4234,3.4282,3.4186,3.4234,3.4161,3.3857,3.3652,3.366,3.3363,3.3238,3.3254,3.3285,3.3281,3.3281,3.3281,3.3281,3.3281,3.3292,3.3042,3.293,3.2818,3.2656,3.2493,3.2291,3.2066,3.1874,3.1669,3.1618,3.1567,3.1567,3.1567,3.1567,3.1567,3.1567,3.1567,3.1567,3.1567,3.1567,3.1567,3.1567,3.1567,3.1567,3.1567,3.1567,3.1567,3.1393,3.128,3.0657,3.0253,2.9958,2.9652,2.9379,2.9263,2.9142,2.8891,2.8924,2.8869,2.8825,2.8803,2.8803,2.8803,2.8803,3.788,3.7974,3.7974,3.7974,3.7974,3.7974,3.7974,3.7974,3.7974,3.7974,3.7974,3.7974,3.7974,3.7974,3.7974,3.7974,3.7853,3.7445,3.7048,3.6855,3.7084,3.718,3.7312,3.7685,3.7974,3.7974,3.7962,3.7781,3.7577,3.73,3.7,3.6759,3.6254,3.5689,3.5147,3.4631,3.409,3.3645,3.3392,3.3284,3.3296,3.3537,3.3813,3.3982,3.427,3.4366,3.4402,3.4595,3.4739,3.4715,3.4522,3.4366,3.4378,3.4655,3.4714,3.464,3.4543,3.4445,3.415,3.4064,3.3892,3.358,3.3481,3.3431,3.3331,3.3281,3.3281,3.3281,3.3281,3.3281,3.3281,3.3192,3.3081,3.3081,3.298,3.2818,3.2667,3.2403,3.2128,3.1874,3.1823,3.1721,3.1669,3.1669,3.1629,3.1629,3.1567,3.1567,3.1567,3.1567,3.1567,3.1567,3.1567,3.1567,3.1567,3.1567,3.1567,3.1567,3.1524,3.1436,3.1214,3.0908,3.0657,3.0253,2.9816,2.9784,2.9642,2.9383,2.9132,2.9153,2.911,2.8924,2.8814,2.8825,2.8814,3.7797,3.7974,3.7974,3.7974,3.7974,3.7974,3.7974,3.7974,3.7974,3.7974,3.7974,3.7974,3.7974,3.7974,3.7974,3.7974,3.7853,3.7613,3.7336,3.7348,3.736,3.7409,3.7505,3.7769,3.7974,3.7974,3.7974,3.7938,3.7817,3.7577,3.7385,3.724,3.6904,3.6459,3.5893,3.5352,3.4835,3.4402,3.3921,3.3669,3.3681,3.3946,3.4306,3.4558,3.4655,3.4739,3.4691,3.4751,3.4775,3.4775,3.4775,3.4775,3.4775,3.4775,3.4775,3.4787,3.464,3.4445,3.4261,3.4113,3.3866,3.3431,3.353,3.353,3.3381,3.3331,3.3331,3.3281,3.3281,3.3281,3.3281,3.3292,3.3281,3.3281,3.3281,3.3181,3.298,3.2757,3.2493,3.2179,3.2077,3.2026,3.1874,3.1783,3.1732,3.1629,3.1629,3.1567,3.1618,3.1567,3.1567,3.1567,3.1567,3.1567,3.1567,3.1567,3.1567,3.1567,3.1567,3.1545,3.1564,3.1367,3.1029,3.0614,3.0286,3.0242,3.01,2.9794,2.9598,2.9521,2.9325,2.9164,2.9011,2.8869,2.8847,3.7986,3.7974,3.7974,3.7974,3.7974,3.7974,3.7974,3.7974,3.7974,3.7974,3.7974,3.7974,3.7974,3.7974,3.7974,3.7974,3.7938,3.7793,3.7781,3.7781,3.7781,3.7781,3.7805,3.7878,3.7974,3.7974,3.7974,3.7974,3.7962,3.7878,3.7757,3.7793,3.7685,3.7348,3.6867,3.6398,3.5761,3.5232,3.4703,3.4414,3.4402,3.4486,3.4607,3.4775,3.4775,3.4775,3.4775,3.4775,3.4775,3.4775,3.4775,3.4775,3.4775,3.4775,3.4775,3.4775,3.4726,3.458,3.4347,3.4174,3.3977,3.3729,3.3679,3.358,3.3431,3.3481,3.3481,3.3331,3.3281,3.3281,3.3281,3.3281,3.3281,3.3281,3.3281,3.3281,3.3181,3.3131,3.2919,3.2544,3.2443,3.2342,3.2179,3.2026,3.1986,3.1874,3.1772,3.1721,3.1669,3.1618,3.1567,3.1567,3.1567,3.1567,3.1567,3.1567,3.1567,3.1567,3.1567,3.1567,3.1556,3.1556,3.1306,3.0963,3.0734,3.0657,3.0461,3.0242,3.0111,3.0035,2.9718,2.9427,2.9339,2.9252,2.8957,3.7974,3.7974,3.7974,3.7974,3.7974,3.7974,3.7974,3.7974,3.7974,3.7974,3.7974,3.7974,3.7974,3.7974,3.7974,3.7974,3.7974,3.7974,3.7974,3.7974,3.7974,3.7974,3.7974,3.7974,3.7974,3.7974,3.7974,3.7974,3.7974,3.7962,3.7974,3.7962,3.7974,3.7829,3.7457,3.6771,3.6338,3.5893,3.528,3.4775,3.4775,3.4775,3.4775,3.4775,3.4775,3.4775,3.4775,3.4775,3.4775,3.4775,3.4775,3.4775,3.4775,3.4775,3.4775,3.4775,3.4775,3.4689,3.4433,3.431,3.4101,3.3779,3.3828,3.3679,3.3481,3.3481,3.358,3.3381,3.3281,3.3281,3.3281,3.3281,3.3281,3.3281,3.3281,3.3281,3.3281,3.3281,3.3131,3.2869,3.2768,3.2656,3.2432,3.2331,3.228,3.2128,3.1975,3.1874,3.1823,3.1721,3.1669,3.1567,3.1567,3.1567,3.1567,3.1567,3.1567,3.1567,3.1567,3.1567,3.1567,3.1567,3.1524,3.1356,3.1203,3.105,3.1007,3.0843,3.0701,3.0515,3.0166,2.9871,2.974,2.9554,2.9281,3.7974,3.7974,3.7974,3.7974,3.7974,3.7974,3.7974,3.7974,3.7974,3.7974,3.7974,3.7974,3.7974,3.7974,3.7974,3.7974,3.7974,3.7974,3.7974,3.7974,3.7974,3.7974,3.7974,3.7974,3.7974,3.7974,3.7974,3.7974,3.7974,3.7974,3.7974,3.7974,3.7974,3.7974,3.7745,3.7072,3.6651,3.6122,3.5521,3.4943,3.4799,3.4775,3.4775,3.4775,3.4775,3.4775,3.4775,3.4775,3.4775,3.4775,3.4775,3.4775,3.4775,3.4775,3.4775,3.4775,3.4775,3.4677,3.4543,3.4384,3.4237,3.3965,3.4064,3.3866,3.363,3.363,3.358,3.3381,3.3281,3.3281,3.3281,3.3281,3.3281,3.3281,3.3281,3.3281,3.3281,3.3281,3.3281,3.3131,3.3031,3.2919,3.2757,3.2606,3.2555,3.2454,3.2291,3.2179,3.2077,3.1823,3.1721,3.1618,3.1567,3.1567,3.1567,3.1567,3.1567,3.1567,3.1567,3.1567,3.1567,3.1567,3.1513,3.148,3.148,3.1349,3.1411,3.1378,3.1181,3.093,3.0603,3.0384,3.0264,3.0013,2.9707,3.7974,3.7974,3.7974,3.7974,3.7974,3.7974,3.7974,3.7974,3.7974,3.7974,3.7974,3.7974,3.7974,3.7974,3.7974,3.7974,3.7974,3.7974,3.7974,3.7974,3.7974,3.7974,3.7974,3.7974,3.7974,3.7974,3.7974,3.7974,3.7974,3.7974,3.7974,3.7974,3.7974,3.7974,3.7902,3.7312,3.6879,3.6386,3.5785,3.5207,3.4859,3.4775,3.4775,3.4775,3.4775,3.4775,3.4775,3.4775,3.4775,3.4775,3.4775,3.4775,3.4775,3.4775,3.4775,3.4775,3.4775,3.4787,3.4689,3.4531,3.4384,3.4249,3.4335,3.42,3.4014,3.3729,3.358,3.3331,3.3281,3.3281,3.3281,3.3281,3.3281,3.3281,3.3281,3.3281,3.3281,3.3281,3.3281,3.3281,3.3181,3.3181,3.3131,3.298,3.283,3.2768,3.2656,3.2493,3.2331,3.2128,3.1874,3.1772,3.1669,3.1669,3.1567,3.1567,3.1556,3.1556,3.1567,3.1567,3.1567,3.1567,3.1567,3.1545,3.1567,3.1567,3.1502,3.1509,3.152,3.1345,3.1029,3.0898,3.0821,3.0504,3.0144,3.7974,3.7974,3.7974,3.7974,3.7974,3.7974,3.7974,3.7974,3.7974,3.7974,3.7974,3.7974,3.7974,3.7974,3.7974,3.7974,3.7974,3.7974,3.7974,3.7974,3.7974,3.7974,3.7974,3.7974,3.7974,3.7974,3.7974,3.7974,3.7974,3.7974,3.7974,3.7974,3.7974,3.7974,3.7938,3.7457,3.6928,3.6326,3.5641,3.5039,3.4835,3.4775,3.4775,3.4775,3.4775,3.4775,3.4775,3.4775,3.4775,3.4775,3.4775,3.4775,3.4775,3.4775,3.4775,3.4775,3.4775,3.4775,3.4775,3.4677,3.458,3.4482,3.4531,3.4482,3.4249,3.3927,3.3679,3.353,3.3381,3.3331,3.3281,3.3281,3.3281,3.3281,3.3281,3.3281,3.3281,3.3281,3.3281,3.3281,3.3281,3.3281,3.3281,3.3181,3.3031,3.3031,3.293,3.2768,3.2606,3.2443,3.2179,3.1874,3.1823,3.1823,3.1669,3.1567,3.1586,3.1586,3.1567,3.1567,3.1567,3.1567,3.1567,3.1567,3.1567,3.1567,3.1567,3.1556,3.1524,3.1469,3.1404,3.1313,3.1171,3.0908,3.0537,3.8039,3.8092,3.8039,3.7974,3.7974,3.7974,3.7974,3.7974,3.7974,3.7974,3.8027,3.808,3.808,3.8027,3.808,3.8092,3.7974,3.7974,3.7974,3.7974,3.7974,3.7974,3.7974,3.7974,3.7974,3.7974,3.7974,3.7974,3.7974,3.7974,3.7974,3.7974,3.7974,3.7974,3.7878,3.7613,3.7144,3.6374,3.54,3.4859,3.4775,3.4775,3.4775,3.4775,3.4775,3.4775,3.4775,3.4775,3.4775,3.4775,3.4775,3.4775,3.4775,3.4775,3.4775,3.4775,3.4775,3.4775,3.4775,3.4775,3.4689,3.4628,3.4628,3.4628,3.4384,3.4014,3.3729,3.3668,3.3431,3.3331,3.3281,3.3281,3.3281,3.3281,3.3281,3.3281,3.3281,3.3281,3.3281,3.3281,3.3281,3.3281,3.3281,3.3281,3.3292,3.3242,3.3142,3.2992,3.288,3.2706,3.2505,3.2179,3.1928,3.1855,3.1682,3.1625,3.1596,3.1527,3.1549,3.1564,3.1542,3.1586,3.1567,3.1567,3.1553,3.1567,3.1567,3.1567,3.1567,3.1524,3.1491,3.1534,3.1455,3.1214,3.0941,3.8145,3.8356,3.808,3.8027,3.8027,3.7974,3.8027,3.7974,3.7974,3.8039,3.808,3.825,3.8198,3.8145,3.825,3.825,3.8039,3.7974,3.8027,3.8027,3.7974,3.7974,3.8027,3.8027,3.8027,3.7974,3.8027,3.8027,3.7974,3.7974,3.7974,3.7974,3.7974,3.7974,3.7914,3.7733,3.7204,3.6398,3.5437,3.4907,3.4799,3.4775,3.4775,3.4775,3.4775,3.4775,3.4775,3.4775,3.4775,3.4775,3.4775,3.4775,3.4775,3.4775,3.4775,3.4775,3.4775,3.4775,3.4775,3.4775,3.4775,3.4775,3.4775,3.4726,3.4482,3.4261,3.3977,3.3779,3.353,3.3342,3.3342,3.3281,3.3281,3.3281,3.3281,3.3281,3.3281,3.3281,3.3281,3.3281,3.3281,3.3281,3.3281,3.3281,3.3281,3.3292,3.3292,3.3131,3.3042,3.288,3.2718,3.2476,3.204,3.1855,3.1716,3.1639,3.1517,3.1406,3.1345,3.142,3.1473,3.1516,3.1453,3.1436,3.1387,3.1484,3.1531,3.1414,3.1409,3.152,3.1567,3.1567,3.1567,3.1455,3.1225,3.8409,3.8619,3.8526,3.8409,3.8238,3.8262,3.8145,3.8027,3.7974,3.8092,3.825,3.8356,3.8409,3.8514,3.8566,3.8514,3.825,3.825,3.8145,3.8027,3.7974,3.7974,3.8027,3.8145,3.821,3.808,3.8133,3.8145,3.8039,3.8027,3.7974,3.7974,3.7974,3.7974,3.7926,3.7661,3.7096,3.6495,3.5713,3.5196,3.4847,3.4775,3.4775,3.4775,3.4775,3.4775,3.4775,3.4775,3.4775,3.4775,3.4775,3.4775,3.4775,3.4775,3.4775,3.4775,3.4775,3.4775,3.4775,3.4775,3.4775,3.4775,3.4775,3.4738,3.458,3.4396,3.4211,3.3965,3.3679,3.3492,3.3331,3.3281,3.3281,3.3281,3.3281,3.3281,3.3281,3.3281,3.3281,3.3281,3.3281,3.3281,3.3281,3.3281,3.3281,3.3281,3.3281,3.3292,3.3192,3.3092,3.293,3.2762,3.2406,3.1998,3.1858,3.1681,3.1405,3.13,3.1157,3.1252,3.1285,3.1191,3.1129,3.1191,3.123,3.1202,3.1241,3.1174,3.1291,3.1475,3.1531,3.1567,3.1567,3.1567,3.1465,3.8684,3.8945,3.8945,3.8788,3.8514,3.8526,3.8409,3.825,3.8145,3.8145,3.8303,3.8409,3.8566,3.8671,3.8893,3.8788,3.8579,3.8514,3.8356,3.825,3.8133,3.8133,3.8198,3.825,3.8356,3.825,3.8303,3.8303,3.8145,3.8039,3.8027,3.7974,3.7974,3.7974,3.7853,3.7457,3.7051,3.6705,3.5942,3.5497,3.5039,3.4847,3.4775,3.4775,3.4775,3.4775,3.4775,3.4775,3.4775,3.4775,3.4775,3.4775,3.4775,3.4775,3.4775,3.4775,3.4775,3.4775,3.4775,3.4775,3.4775,3.4775,3.4775,3.4775,3.4726,3.458,3.4298,3.42,3.3915,3.363,3.3431,3.3381,3.3281,3.3281,3.3281,3.3281,3.3281,3.3281,3.3281,3.3281,3.3281,3.3281,3.3281,3.3281,3.3281,3.3281,3.3281,3.3281,3.3281,3.3181,3.3181,3.2989,3.2769,3.2381,3.2078,3.1754,3.1394,3.1255,3.1162,3.1009,3.1009,3.0905,3.0905,3.0994,3.1016,3.0935,3.0968,3.1005,3.1197,3.1438,3.1512,3.1564,3.1567,3.1567,3.1567,3.8998,3.927,3.9258,3.9102,3.8841,3.8788,3.8788,3.8684,3.8461,3.8303,3.825,3.8579,3.8684,3.8671,3.9102,3.9062,3.8841,3.8788,3.8619,3.8461,3.8409,3.8421,3.8421,3.8461,3.8579,3.8684,3.8631,3.8526,3.8368,3.8145,3.808,3.8027,3.8027,3.8027,3.7979,3.7481,3.736,3.7333,3.6235,3.5809,3.5437,3.5063,3.4931,3.4775,3.4775,3.4775,3.4872,3.4823,3.4823,3.4872,3.4823,3.4823,3.4775,3.4775,3.4775,3.4775,3.4775,3.4775,3.4775,3.4775,3.4775,3.4775,3.4775,3.4775,3.4775,3.458,3.4396,3.4298,3.4014,3.3779,3.358,3.3481,3.3331,3.3281,3.3281,3.3281,3.3281,3.3281,3.3281,3.3281,3.3281,3.3281,3.3281,3.3281,3.3281,3.3281,3.3281,3.3281,3.3281,3.3281,3.3231,3.3185,3.2998,3.2674,3.2301,3.1772,3.1437,3.125,3.1089,3.101,3.0847,3.0805,3.0825,3.0874,3.0777,3.0695,3.0802,3.0905,3.1016,3.1162,3.1431,3.156,3.1575,3.1553,3.1527,3.9322,3.9581,3.9594,3.9478,3.9374,3.9218,3.8998,3.8788,3.8566,3.8566,3.8776,3.8893,3.905,3.927,3.9374,3.9374,3.9166,3.9102,3.8998,3.8684,3.8684,3.8684,3.8684,3.8841,3.8893,3.8893,3.8841,3.8736,3.8356,3.8303,3.8145,3.8092,3.8198,3.825,3.8173,3.7891,3.7758,3.7539,3.6913,3.6374,3.5713,3.5425,3.5172,3.4859,3.4823,3.4872,3.5017,3.4932,3.4932,3.5017,3.4981,3.4835,3.4823,3.4823,3.4775,3.4775,3.4775,3.4775,3.4775,3.4775,3.4775,3.4775,3.4775,3.4775,3.4775,3.4726,3.458,3.4396,3.4162,3.3927,3.3729,3.3481,3.3342,3.3292,3.3281,3.3281,3.3281,3.3281,3.3281,3.3281,3.3281,3.3281,3.3281,3.3281,3.3281,3.3281,3.3281,3.3281,3.3281,3.3281,3.3281,3.3281,3.3166,3.2868,3.2509,3.2125,3.1803,3.1652,3.1322,3.1027,3.0864,3.0782,3.0555,3.0532,3.0488,3.0455,3.0519,3.0606,3.0695,3.0878,3.1107,3.1362,3.1389,3.1389,3.1367,3.953,3.9697,3.9697,3.9697,3.9697,3.953,3.927,3.8998,3.8788,3.8881,3.9037,3.8998,3.9154,3.9478,3.9633,3.9633,3.9426,3.9426,3.931,3.8998,3.8945,3.8945,3.905,3.9154,3.9218,3.9154,3.9154,3.905,3.8788,3.8631,3.8473,3.8409,3.8461,3.8631,3.8607,3.8441,3.8303,3.8118,3.7721,3.7093,3.6412,3.5864,3.5488,3.5077,3.492,3.4932,3.5078,3.5078,3.5078,3.5175,3.5126,3.4932,3.4932,3.4823,3.4823,3.4775,3.4775,3.4775,3.4775,3.4775,3.4775,3.4775,3.4775,3.4775,3.4775,3.4775,3.4677,3.4543,3.431,3.4113,3.3878,3.358,3.3442,3.3381,3.3281,3.3281,3.3281,3.3281,3.3281,3.3281,3.3281,3.3281,3.3281,3.3281,3.3281,3.3281,3.3281,3.3281,3.3281,3.3281,3.3281,3.3281,3.3281,3.3074,3.2822,3.252,3.2257,3.2053,3.1685,3.1295,3.0961,3.0844,3.0514,3.0262,3.0297,3.032,3.0308,3.0308,3.0455,3.0587,3.0794,3.0957,3.1134,3.1173,3.1173,3.9697,3.9697,3.9697,3.9697,3.9697,3.9697,3.953,3.931,3.931,3.9102,3.8893,3.9206,3.931,3.9362,3.9594,3.9697,3.9633,3.9633,3.953,3.9362,3.927,3.927,3.9322,3.9322,3.9426,3.953,3.9478,3.9322,3.927,3.8893,3.8736,3.8736,3.8788,3.8945,3.8998,3.8985,3.8896,3.8775,3.8374,3.7668,3.6969,3.6527,3.6001,3.5575,3.5247,3.5247,3.5308,3.5296,3.5344,3.538,3.538,3.5271,3.5126,3.4932,3.4872,3.4775,3.4775,3.4775,3.4775,3.4775,3.4775,3.4775,3.4775,3.4775,3.4775,3.4775,3.4775,3.4677,3.4494,3.4298,3.4113,3.3817,3.358,3.3481,3.3331,3.3331,3.3281,3.3281,3.3281,3.3281,3.3281,3.3281,3.3281,3.3281,3.3281,3.3281,3.3281,3.3281,3.3281,3.3281,3.3281,3.3281,3.3281,3.3281,3.3063,3.2833,3.2741,3.2535,3.2099,3.1708,3.1364,3.1031,3.0744,3.0514,3.0308,3.0205,3.0228,3.0216,3.0251,3.0399,3.0532,3.0697,3.0841,3.0882,3.0905,3.9697,3.9697,3.9697,3.9697,3.9697,3.9697,3.9645,3.9581,3.9362,3.931,3.9426,3.931,3.9426,3.9581,3.9697,3.9697,3.9697,3.9697,3.9633,3.9581,3.9542,3.9594,3.9594,3.9594,3.9645,3.9645,3.9581,3.9478,3.927,3.8945,3.8841,3.8788,3.905,3.9218,3.931,3.9374,3.9374,3.9233,3.884,3.8144,3.7662,3.7303,3.6726,3.6174,3.5844,3.5844,3.5917,3.5527,3.5526,3.5561,3.5537,3.5428,3.5175,3.5126,3.5017,3.4823,3.4775,3.4775,3.4775,3.4775,3.4775,3.4775,3.4775,3.4775,3.4775,3.4775,3.4775,3.4726,3.4628,3.4445,3.4298,3.4064,3.3866,3.3767,3.3568,3.3381,3.3381,3.3342,3.3342,3.3281,3.3281,3.3281,3.3281,3.3281,3.3281,3.3281,3.3281,3.3281,3.3281,3.3281,3.3281,3.3281,3.3281,3.3281,3.3281,3.3097,3.3097,3.2994,3.2558,3.2202,3.1938,3.1582,3.1111,3.0732,3.0445,3.0296,3.0227,3.0216,3.0216,3.0216,3.0342,3.0478,3.0587,3.0654,3.0685,3.9697,3.9697,3.9697,3.9697,3.9697,3.9697,3.9697,3.9697,3.953,3.9581,3.9685,3.953,3.953,3.9645,3.9697,3.9697,3.9697,3.9697,3.9697,3.9697,3.9697,3.9697,3.9697,3.9697,3.9697,3.9697,3.9697,3.9581,3.9426,3.9322,3.9166,3.9218,3.9426,3.9413,3.9478,3.9594,3.9581,3.9478,3.9148,3.846,3.8112,3.7925,3.748,3.6826,3.6505,3.664,3.6677,3.6052,3.5965,3.6011,3.5974,3.562,3.532,3.5175,3.5017,3.4823,3.4775,3.4775,3.4775,3.4775,3.4775,3.4775,3.4775,3.4775,3.4775,3.4775,3.4775,3.4775,3.4677,3.458,3.4445,3.4347,3.4249,3.415,3.3817,3.3481,3.3431,3.3342,3.3342,3.3292,3.3281,3.3281,3.3281,3.3281,3.3281,3.3281,3.3281,3.3281,3.3281,3.3281,3.3281,3.3281,3.3281,3.3281,3.3281,3.3281,3.3235,3.3189,3.304,3.2707,3.2489,3.211,3.1605,3.1065,3.0537,3.0388,3.0239,3.0227,3.0216,3.0216,3.0216,3.0297,3.0422,3.0387,3.0444,3.9697,3.9697,3.9697,3.9697,3.9697,3.9697,3.9697,3.9697,3.9697,3.9697,3.9697,3.9697,3.9697,3.9697,3.9697,3.9697,3.9697,3.9697,3.9697,3.9697,3.9697,3.9697,3.9697,3.9697,3.9697,3.9697,3.9697,3.9697,3.9697,3.9594,3.9542,3.9697,3.9645,3.9645,3.9645,3.9697,3.9645,3.9645,3.9456,3.9017,3.8379,3.8179,3.8066,3.7208,3.7184,3.738,3.7245,3.7048,3.686,3.6711,3.6414,3.6056,3.5585,3.5175,3.4932,3.4823,3.4823,3.4775,3.4775,3.4775,3.4775,3.4775,3.4775,3.4775,3.4775,3.4775,3.4775,3.4775,3.4726,3.4726,3.4677,3.4494,3.4347,3.42,3.3953,3.3717,3.358,3.3442,3.3342,3.3281,3.3281,3.3281,3.3281,3.3281,3.3281,3.3281,3.3281,3.3281,3.3281,3.3281,3.3281,3.3281,3.3281,3.3281,3.3281,3.3281,3.3281,3.3247,3.3212,3.3097,3.2787,3.2454,3.2099,3.1398,3.0698,3.0422,3.0273,3.0239,3.0216,3.0216,3.0216,3.0216,3.0205,3.0262,3.0296,3.9697,3.9697,3.9697,3.9697,3.9697,3.9697,3.9697,3.9697,3.9697,3.9697,3.9697,3.9697,3.9697,3.9697,3.9697,3.9697,3.9697,3.9697,3.9697,3.9697,3.9697,3.9697,3.9697,3.9697,3.9697,3.9697,3.9697,3.9697,3.9697,3.9697,3.9697,3.9697,3.9697,3.9697,3.9697,3.9697,3.9697,3.9697,3.9609,3.9157,3.8316,3.873,3.8905,3.8179,3.7979,3.8164,3.8027,3.768,3.7494,3.7332,3.708,3.6607,3.5957,3.5392,3.5126,3.5078,3.492,3.4823,3.4775,3.4775,3.4823,3.4823,3.4823,3.4823,3.4775,3.4775,3.4775,3.4775,3.4823,3.4872,3.4872,3.4628,3.4445,3.4298,3.4101,3.3915,3.3729,3.353,3.3331,3.3281,3.3281,3.3281,3.3281,3.3281,3.3281,3.3281,3.3281,3.3281,3.3281,3.3281,3.3281,3.3281,3.3281,3.3281,3.3281,3.3281,3.3281,3.3281,3.3258,3.3166,3.3063,3.265,3.219,3.149,3.087,3.0583,3.0342,3.0239,3.0216,3.0216,3.0216,3.0216,3.0216,3.0216,3.025,3.9697,3.9697,3.9697,3.9697,3.9697,3.9697,3.9697,3.9697,3.9697,3.9697,3.9697,3.9697,3.9697,3.9697,3.9697,3.9697,3.9697,3.9697,3.9697,3.9697,3.9697,3.9697,3.9697,3.9697,3.9697,3.9697,3.9697,3.9697,3.9697,3.9697,3.9697,3.9697,3.9697,3.9697,3.9697,3.9697,3.9697,3.9697,3.9697,3.9182,3.8467,3.9044,3.9082,3.8479,3.8567,3.8802,3.8739,3.8403,3.8153,3.7755,3.7356,3.6907,3.6267,3.5756,3.5344,3.5175,3.5066,3.492,3.4823,3.4823,3.4835,3.4884,3.4847,3.4847,3.4969,3.4969,3.4823,3.4775,3.4775,3.4823,3.5066,3.492,3.4981,3.4884,3.4445,3.4101,3.3866,3.363,3.3431,3.3281,3.3281,3.3281,3.3281,3.3281,3.3281,3.3281,3.3281,3.3281,3.3281,3.3281,3.3281,3.3281,3.3281,3.3281,3.3281,3.3281,3.3281,3.3281,3.3281,3.3235,3.312,3.273,3.2248,3.1662,3.1134,3.0698,3.0491,3.0319,3.0227,3.0216,3.0216,3.0216,3.0216,3.0216,3.0216,3.9697,3.9697,3.9697,3.9697,3.9697,3.9697,3.9697,3.9697,3.9697,3.9697,3.9697,3.9697,3.9697,3.9697,3.9697,3.9697,3.9697,3.9697,3.9697,3.9697,3.9697,3.9697,3.9697,3.9697,3.9697,3.9697,3.9697,3.9697,3.9697,3.9697,3.9697,3.9697,3.9697,3.9697,3.9697,3.9697,3.9697,3.9697,3.9622,3.9371,3.9295,3.9371,3.8969,3.8868,3.9044,3.9506,3.9354,3.9103,3.8829,3.8341,3.773,3.7168,3.6635,3.6072,3.5694,3.5428,3.5223,3.5078,3.492,3.4823,3.4981,3.5078,3.5017,3.5175,3.5332,3.5466,3.5369,3.5211,3.5211,3.4945,3.5151,3.526,3.532,3.526,3.4774,3.4382,3.4148,3.3852,3.3603,3.3415,3.3427,3.3427,3.3377,3.3377,3.3377,3.3365,3.3354,3.3292,3.3281,3.3281,3.3281,3.3281,3.3281,3.3281,3.3281,3.3281,3.3281,3.3281,3.3281,3.3281,3.3212,3.2948,3.2558,3.2066,3.1513,3.1042,3.0606,3.0365,3.0296,3.0216,3.0216,3.0216,3.0216,3.0216,3.0216,3.9697,3.9697,3.9697,3.9697,3.9697,3.9697,3.9697,3.9697,3.9697,3.9697,3.9697,3.9697,3.9697,3.9697,3.9697,3.9697,3.9697,3.9697,3.9697,3.9697,3.9697,3.9697,3.9697,3.9697,3.9697,3.9697,3.9697,3.9697,3.9697,3.9697,3.9697,3.9697,3.9697,3.9697,3.9697,3.9697,3.9697,3.9697,3.9634,3.9446,3.9245,3.9245,3.9258,3.9233,3.932,3.9584,3.9583,3.9609,3.9495,3.9144,3.8367,3.7628,3.7005,3.6411,3.5934,3.5681,3.5476,3.5223,3.5066,3.492,3.503,3.5502,3.5721,3.6356,3.6747,3.729,3.7131,3.6862,3.6493,3.5357,3.5272,3.5357,3.5369,3.5235,3.4931,3.4906,3.482,3.4353,3.3983,3.388,3.3865,3.3827,3.3777,3.3777,3.3839,3.3815,3.3719,3.3707,3.3646,3.35,3.3354,3.3292,3.3342,3.3281,3.3281,3.3281,3.3281,3.3281,3.3281,3.3281,3.3281,3.3269,3.2868,3.2282,3.1894,3.141,3.0996,3.0445,3.0285,3.0216,3.0216,3.0216,3.0216,3.0216,3.0216]}]]